     2              OBSERVATION DATA    GPS                 RINEX VERSION / TYPE
teqc 2000Feb29 simon 20000627 22:53:12UTC                   PGM / RUN BY / DATE
                                                            COMMENT
L2: 1 -> 1; 150 -> 5; 250 -> 9                              COMMENT
L2: 1 -> 1; 150 -> 5; 250 -> 9                              COMMENT
L2: 1 -> 1; 150 -> 5; 250 -> 9                              COMMENT
L2: 1 -> 1; 150 -> 5; 250 -> 9                              COMMENT
L2: 1 -> 1; 150 -> 5; 250 -> 9                              COMMENT
Original Marker Name: GS11                                  COMMENT
Campaign Name: China Lake April 2000                        COMMENT
4-Character Station Name: GS11                              COMMENT
6-Character Antenna Code: ASHGD3                            COMMENT
Vertical Measurement Point: TGP                             COMMENT
Vertical Offset to Rinex Ref. Point: 0.0640                 COMMENT
Radial Measurement Point: RRP                               COMMENT
Radial Offset to Rinex Ref. Point: 0.0000                   COMMENT
Antenna Height from Field Measurement: 0.2000 m             COMMENT
Additional Antenna Identification Info.:                    COMMENT
The Whopper (700718AB)                                      COMMENT
Original XYZ: -2409864.5000 -4612678.2900 3676975.5500      COMMENT
New XYZ position is based on association with SCEC monument COMMENT
E1F4A7N1+0011. Position of that monument is believed to be  COMMENT
valid to within 1 m horizontally; vertical accuracy         COMMENT
should be no worse than 3-times this value.                 COMMENT
                                                            COMMENT
Revised Rinex header created by UCSD GPS archive for        COMMENT
GSAC on 14-Sep-2001 (2001:257) 19:50:26 GMT                 COMMENT
For assistance contact dagnew@ucsd.edu                      COMMENT
or anderson@python.ucsd.edu                                 COMMENT
                                                            COMMENT
GO11 BLM CACA 36488                                         MARKER NAME
gs11                                                        MARKER NUMBER
___ US NATIONAL IMAGERY MAPPING AGENCY                      OBSERVER / AGENCY
500 ASHTECH Z-XII3 4J30                                     REC # / TYPE / VERS
113 ASHTECH GEODETIC III                                    ANT # / TYPE
 -2409680.1917 -4612263.8383  3677303.4527                  APPROX POSITION XYZ
        0.1360        0.0000        0.0000                  ANTENNA: DELTA H/E/N
     1     1     0                                          WAVELENGTH FACT L1/2
     7    L1    L2    C1    P1    P2    S1    S2            # / TYPES OF OBSERV
    30                                                      INTERVAL
  2000     4    27    15    21   30.000000                  TIME OF FIRST OBS
  2000     4    27    21    30   30.000000                  TIME OF LAST OBS
                                                            END OF HEADER
 00  4 27 15 21 30.0000000  0  5G27G 2G26G 4G 7
     17202.25853                  20494043.319
       218.000          74.000
     -4525.84059     -2654.87657  17955407.936    17955405.594    17955415.096
       241.000         203.000
      4250.81256                  19494159.381                    19494169.043
       232.000
       187.000                    19544946.647
       223.000
     -8984.46859     -5008.99957  17108719.800    17108718.058    17108727.150
       234.000         202.000
 00  4 27 15 22  0.0000000  0  7G27G 2G26G 4G 7G 8G 9
     82626.02545                  20510019.919                    20510034.822
       216.000         158.000
    -11904.91059     -8404.83447  17954003.320    17954001.335    17954010.843
       241.000         203.000
     29646.35359     20510.57856  19498130.743    19498129.461    19498140.236
       233.000         186.000
   -141404.97759    -85970.59256  19520620.505    19520618.561    19520631.826
       225.000         169.000
    -22724.24459    -15715.34647  17106105.394    17106103.515    17106112.685
       235.000         202.000
     50801.70756                  19478714.120
       223.000         172.000
    -24102.27553                  19925196.934
       224.000          74.000
 00  4 27 15 22 30.0010000  0  4G27G 2G26G 7
    205507.30959    148178.33155  24423330.216    24423328.962    24423345.182
       216.000         156.000
    -19085.07549    -13999.78747  21849938.783    21849936.883    21849946.431
       242.000         201.000
     50924.81249     37091.10946  23399481.766    23399480.580    23399491.386
       234.000         185.000
    -36039.02449    -26090.53147  21000873.621    21000871.741    21000880.930
       236.000         201.000
 00  4 27 15 23  0.0010000  0  7G27G 2G26G 4G 7G 8G 9
    289840.35949    213892.20645  24439378.217    24439376.752    24439393.206
       217.000         158.000
    -26100.17749    -19466.09047  21848603.800    21848601.957    21848611.424
       241.000         202.000
     72616.70149     53993.79446  23403609.562    23403608.429    23403619.170
       233.000         186.000
   -396652.23949   -284864.46346  23369349.919    23369348.663    23369361.671
       225.000         169.000
    -48956.73649    -36156.29847  20998415.440    20998413.607    20998422.705
       234.000         202.000
    233372.51359    169173.87556  23404923.434    23404921.750    23404934.375
       223.000         172.000
   -298180.20959   -207825.60156  23777630.678    23777629.057    23777639.570
       223.000         167.000
 00  4 27 15 23 30.0010000  0  7G27G 2G26G 4G 7G 8G 9
    374290.49649    279697.27345  24455448.568    24455447.286    24455463.680
       215.000         153.000
    -33022.49649    -24860.13547  21847286.475    21847284.677    21847294.154
       241.000         197.000
     94634.52749     71150.47346  23407799.412    23407798.313    23407809.043
       229.000         183.000
   -524115.39849   -384186.37046  23345094.371    23345093.259    23345106.197
       221.000         168.000
    -61525.38849    -45950.05847  20996023.756    20996021.898    20996031.004
       234.000         202.000
    309651.03249    228611.59046  23419438.762    23419437.108    23419449.818
       221.000         170.000
   -415838.63249   -299507.40446  23755240.825    23755239.192    23755249.945
       227.000         168.000
 00  4 27 15 24  0.0010000  0  7G27G 2G26G 4G 7G 8G 9
    458755.15949    345513.66245  24471521.735    24471520.570    24471536.877
       215.000         153.000
    -39949.37049    -30257.71347  21845968.311    21845966.542    21845976.093
       241.000         203.000
    116873.28349     88479.28746  23412031.282    23412030.188    23412040.992
       230.000         183.000
   -651596.87649   -483522.51146  23320835.369    23320834.269    23320847.341
       223.000         167.000
    -73857.11649    -55559.22247  20993677.076    20993675.250    20993684.415
       235.000         202.000
    385994.53849    288099.92846  23433966.420    23433964.832    23433977.648
       221.000         170.000
   -533452.08949   -391154.11746  23732859.501    23732857.949    23732868.916
       223.000         169.000
 00  4 27 15 24 30.0010000  0  8G27G 2G26G 4G 7G 8G 9G11
    543173.78749    411294.16745  24487586.191    24487585.001    24487601.338
       214.000         151.000
    -46912.50349    -35683.55547  21844643.259    21844641.520    21844651.116
       241.000         203.000
    139288.88449    105945.91446  23416296.747    23416295.705    23416306.578
       231.000         182.000
   -779148.47549   -582913.31246  23296563.019    23296561.979    23296575.107
       223.000         167.000
    -86033.11049    -65047.02847  20991360.068    20991358.233    20991367.442
       235.000         202.000
    462352.58549    347599.62446  23448496.887    23448495.315    23448508.168
       222.000         169.000
   -651068.22249   -482802.95246  23710477.775    23710476.263    23710487.368
       225.000         170.000
     92162.61855                  25399353.639                    25399365.848
       199.000         137.000
 00  4 27 15 25  0.0010000  0  8G27G 2G26G 4G 7G 8G 9G11
    627588.66649    477071.74845  24503649.897    24503648.706    24503665.079
       212.000         150.000
    -53850.55049    -41089.84247  21843322.974    21843321.261    21843330.889
       241.000         203.000
    161923.00249    123582.80946  23420603.878    23420602.837    23420613.750
       230.000         183.000
   -906710.75149   -682312.43346  23272288.706    23272287.644    23272300.847
       222.000         168.000
    -98020.23549    -74387.67847  20989078.967    20989077.157    20989086.388
       235.000         202.000
    538774.73849    407149.24846  23463039.541    23463037.974    23463050.890
       221.000         168.000
   -768651.51049   -574426.17846  23688102.316    23688100.900    23688112.002
       223.000         171.000
    174402.06449    129819.39845  25408549.456    25408546.936    25408559.731
       204.000         146.000
 00  4 27 15 25 30.0010000  0  8G27G 2G26G 4G 7G 8G 9G11
    712029.67249    542869.66145  24519718.656    24519717.422    24519733.830
       211.000         149.000
    -60736.70049    -46455.68347  21842012.598    21842010.884    21842020.535
       241.000         202.000
    184794.07149    141404.34346  23424956.183    23424955.116    23424966.033
       231.000         182.000
  -1034262.86049   -781703.63546  23248016.230    23248015.291    23248028.522
       223.000         169.000
   -109790.63249    -83559.43847  20986839.137    20986837.334    20986846.574
       235.000         202.000
    615299.07849    466778.49446  23477601.673    23477600.117    23477613.033
       220.000         168.000
   -886168.53249   -665997.77246  23665739.470    23665738.088    23665749.229
       225.000         171.000
    222932.22459    167635.08155  25417784.310    25417781.632    25417793.813
       205.000         136.000
 00  4 27 15 26  0.0010000  0  8G27G 2G26G 4G 7G 8G 9G11
    796478.36849    608673.59345  24535788.920    24535787.628    24535803.971
       211.000         148.000
    -67576.34549    -51785.29447  21840711.081    21840709.350    21840719.030
       241.000         203.000
    207899.35349    159408.38046  23429353.071    23429351.965    23429362.907
       231.000         183.000
  -1161814.50449   -881094.48946  23223743.913    23223743.006    23223756.240
       222.000         169.000
   -121370.98949    -92583.10247  20984635.485    20984633.685    20984642.931
       235.000         202.000
    691910.88449    526475.86146  23492180.475    23492178.918    23492191.852
       220.000         167.000
  -1003639.28149   -757533.32946  23643385.445    23643384.149    23643395.284
       224.000         171.000
    271671.13049    205613.52245  25427059.098    25427057.169    25427068.793
       204.000         143.000
 00  4 27 15 26 30.0010000  0  8G27G 2G26G 4G 7G 8G 9G11
    880918.71949    674470.99545  24551857.653    24551856.226    24551872.652
       210.000         149.000
    -74376.39649    -57084.04847  21839417.063    21839415.361    21839425.050
       241.000         203.000
    231226.61249    177585.38746  23433792.230    23433791.041    23433802.009
       231.000         183.000
  -1289362.59549   -980482.56346  23199472.318    23199471.391    23199484.685
       223.000         171.000
   -132764.93449   -101461.49647  20982467.300    20982465.495    20982474.771
       235.000         202.000
    768597.39249    586231.43546  23506773.508    23506771.916    23506784.894
       220.000         166.000
  -1121081.68449   -849046.80146  23621036.860    23621035.600    23621046.751
       225.000         170.000
    320608.35149    243746.30045  25436371.187    25436369.385    25436381.753
       201.000         136.000
 00  4 27 15 27  0.0010000  0  8G27G 2G26G 4G 7G 8G 9G11
    965340.72449    740254.10045  24567922.792    24567921.292    24567937.769
       212.000         148.000
    -81168.75349    -62376.84847  21838124.567    21838122.848    21838132.560
       241.000         203.000
    254755.80449    195919.74446  23438269.757    23438268.563    23438279.558
       231.000         183.000
  -1416932.72049  -1079887.79146  23175196.525    23175195.615    23175208.909
       224.000         170.000
   -143968.46249   -110191.50047  20980335.395    20980333.571    20980342.859
       235.000         202.000
    845331.63149    646024.16846  23521375.707    23521374.060    23521387.027
       219.000         165.000
  -1238509.36149   -940548.79746  23598691.053    23598689.848    23598700.949
       225.000         170.000
    369723.42849    282017.83145  25445717.565    25445715.900    25445728.015
       201.000         145.000
 00  4 27 15 27 30.0010000  0  8G27G 2G26G 4G 7G 8G 9G11
   1049858.43449    806111.76845  24584006.239    24584004.649    24584021.017
       210.000         147.000
    -87842.72249    -67577.39847  21836854.610    21836852.870    21836862.605
       241.000         203.000
    278612.50249    214509.29746  23442809.613    23442808.399    23442819.426
       231.000         183.000
  -1544411.94949  -1179222.21346  23150938.036    23150937.142    23150950.443
       222.000         171.000
   -154851.73649   -118671.96647  20978264.447    20978262.602    20978271.885
       236.000         202.000
    922220.75249    705937.57046  23536007.362    23536005.649    23536018.639
       218.000         165.000
  -1355775.16649  -1031924.67646  23576376.101    23576374.891    23576385.994
       225.000         171.000
    419140.79649    320524.80145  25455121.248    25455119.541    25455132.011
       205.000         141.000
 00  4 27 15 28  0.0010000  0  8G27G 2G26G 4G 7G 8G 9G11
   1134409.27249    871995.24045  24600096.037    24600094.276    24600110.668
       209.000         146.000
    -94447.30549    -72723.85847  21835597.861    21835596.109    21835605.859
       241.000         203.000
    302739.55249    233309.51446  23447400.919    23447399.696    23447410.738
       231.000         184.000
  -1671841.02049  -1278517.52646  23126689.153    23126688.213    23126701.489
       224.000         172.000
   -165477.47849   -126951.77147  20976242.521    20976240.637    20976249.910
       235.000         203.000
    999192.92449    765915.67646  23550654.788    23550653.034    23550666.044
       218.000         164.000
  -1472918.81349  -1123205.35046  23554084.398    23554083.156    23554094.218
       225.000         171.000
    468799.89649    359220.21745  25464571.218    25464569.583    25464581.859
       206.000         148.000
 00  4 27 15 28 30.0010000  0  8G27G 2G26G 4G 7G 8G 9G11
   1218982.28849    937895.99845  24616190.079    24616188.238    24616204.642
       207.000         145.000
   -100987.71149    -77820.28647  21834353.332    21834351.562    21834361.317
       241.000         203.000
    327134.44849    252318.44146  23452043.173    23452041.952    23452053.006
       232.000         184.000
  -1799204.51449  -1377761.72746  23102452.715    23102451.777    23102464.988
       226.000         172.000
   -175842.90449   -135028.72147  20974270.099    20974268.202    20974277.489
       236.000         202.000
   1076241.62049    825953.40746  23565316.802    23565315.026    23565328.047
       219.000         164.000
  -1589915.97649  -1214371.89446  23531820.599    23531819.315    23531830.357
       226.000         173.000
    518681.27549    398088.76245  25474063.360    25474061.742    25474074.056
       203.000         143.000
 00  4 27 15 29  0.0010000  0  8G27G 2G26G 4G 7G 8G 9G11
   1303570.26549   1003808.39545  24632286.865    24632284.945    24632301.418
       207.000         145.000
   -107470.53249    -82871.86847  21833119.734    21833117.957    21833127.718
       241.000         203.000
    351800.10349    271538.33746  23456737.032    23456735.758    23456746.831
       231.000         184.000
  -1926499.89249  -1476952.85546  23078229.229    23078228.269    23078241.482
       227.000         173.000
   -185968.75249   -142918.99947  20972343.246    20972341.354    20972350.626
       236.000         202.000
   1153352.73549    886039.77146  23579990.695    23579988.919    23580001.928
       220.000         164.000
  -1706755.75749  -1305415.83546  23509586.695    23509585.409    23509596.415
       225.000         172.000
    568776.56349    437124.00345  25483596.097    25483594.485    25483606.784
       206.000         138.000
 00  4 27 15 29 30.0010000  0  8G27G 2G26G 4G 7G 8G 9G11
   1388175.11849   1069733.92845  24648386.972    24648385.012    24648401.407
       207.000         144.000
   -113867.26449    -87856.39247  21831902.509    21831900.732    21831910.493
       241.000         203.000
    376737.67749    290970.12746  23461482.621    23461481.311    23461492.392
       231.000         183.000
  -2053688.23049  -1576060.57846  23054026.091    23054025.128    23054038.333
       225.000         174.000
   -195857.67149   -150624.62747  20970461.481    20970459.597    20970468.845
       236.000         202.000
   1230542.99649    946187.79346  23594679.745    23594677.906    23594690.898
       220.000         165.000
  -1823423.20649  -1396325.46446  23487385.585    23487384.314    23487395.301
       226.000         174.000
    619085.38249    476325.71945  25493169.792    25493168.011    25493180.218
       209.000         152.000
 00  4 27 15 30  0.0010000  0  8G27G 2G26G 4G 7G 8G 9G11
   1472810.84849   1135683.52345  24664492.929    24664490.845    24664507.258
       207.000         144.000
   -120168.84049    -92766.76847  21830703.464    21830701.654    21830711.387
       241.000         203.000
    401950.05349    310616.03546  23466280.474    23466279.160    23466290.238
       231.000         184.000
  -2180742.33249  -1675063.68946  23029848.505    23029847.516    23029860.720
       226.000         174.000
   -205500.53249   -158138.54747  20968626.518    20968624.645    20968633.875
       237.000         202.000
   1307821.62449   1006404.69146  23609385.599    23609383.711    23609396.674
       222.000         165.000
  -1939931.70849  -1487111.25046  23465214.730    23465213.451    23465224.413
       227.000         174.000
    669598.34549    515686.40745  25502782.047    25502780.367    25502792.559
       200.000         137.000
 00  4 27 15 30 30.0010000  0  8G27G 2G26G 4G 7G 8G 9G11
   1557489.34749   1201666.44145  24680606.913    24680604.911    24680621.356
       206.000         143.000
   -126373.70349    -97601.76447  21829522.750    21829520.954    21829530.691
       241.000         203.000
    427441.99349    330479.79446  23471131.493    23471130.187    23471141.285
       230.000         182.000
  -2307664.70949  -1773964.11746  23005695.941    23005695.006    23005708.207
       226.000         174.000
   -214875.40549   -165443.65047  20966842.544    20966840.681    20966849.902
       236.000         202.000
   1385190.35149   1066691.80046  23624108.599    23624106.682    23624119.642
       222.000         166.000
  -2056285.05849  -1577776.12646  23443073.347    23443072.143    23443083.055
       227.000         175.000
    720325.31449    555213.87745  25512435.086    25512433.404    25512445.602
       212.000         144.000
 00  4 27 15 31  0.0010000  0  8G27G 2G26G 4G 7G 8G 9G11
   1642275.64749   1267733.36245  24696741.480    24696739.452    24696755.945
       204.000         141.000
   -132419.43749   -102312.76147  21828372.320    21828370.527    21828380.283
       241.000         203.000
    453247.12349    350587.60046  23476042.095    23476040.837    23476051.942
       230.000         182.000
  -2434417.09449  -1872732.08246  22981575.677    22981574.808    22981588.018
       225.000         174.000
   -223920.20949   -172491.53347  20965121.353    20965119.534    20965128.726
       236.000         202.000
   1462711.52249   1127097.69146  23638860.558    23638858.634    23638871.612
       222.000         166.000
  -2172435.69549  -1668283.06146  23420970.628    23420969.397    23420980.285
       227.000         176.000
    771333.14149    594960.28345  25522141.763    25522139.948    25522152.121
       211.000         147.000
 00  4 27 15 31 30.0010000  0  8G27G 2G26G 4G 7G 8G 9G11
   1727196.88649   1333905.42745  24712901.716    24712899.669    24712916.213
       202.000         142.000
   -138290.56449   -106887.69547  21827255.133    21827253.345    21827263.112
       240.000         203.000
    479372.18649    370944.69546  23481013.541    23481012.346    23481023.487
       229.000         181.000
  -2560974.54549  -1971348.15446  22957492.524    22957491.720    22957504.897
       225.000         174.000
   -232595.04649   -179251.13447  20963470.565    20963468.775    20963477.982
       236.000         202.000
   1540421.62449   1187650.79046  23653648.545    23653646.561    23653659.510
       222.000         165.000
  -2288360.40749  -1758613.93146  23398910.865    23398909.632    23398920.492
       227.000         177.000
    822649.89049    634947.38145  25531907.249    25531905.295    25531917.423
       200.000         148.000
 00  4 27 15 32  0.0010000  0  8G27G 2G26G 4G 7G 8G 9G11
   1812237.32649   1400170.37745  24729084.605    24729082.556    24729099.168
       203.000         141.000
   -144014.91749   -111348.26747  21826165.891    21826164.091    21826173.881
       240.000         203.000
    505804.81149    391541.44246  23486043.632    23486042.386    23486053.565
       230.000         182.000
  -2687364.40849  -2069833.62746  22933441.308    22933440.468    22933453.677
       227.000         175.000
   -240913.90649   -185733.34647  20961887.565    20961885.776    20961894.971
       236.000         202.000
   1618299.55949   1248334.64646  23668468.456    23668466.420    23668479.386
       221.000         164.000
  -2404065.93649  -1848774.01746  23376892.863    23376891.617    23376902.442
       228.000         177.000
    874263.66949    675165.78445  25541728.816    25541727.013    25541739.348
       207.000         146.000
 00  4 27 15 32 30.0010000  0  8G27G 2G26G 4G 7G 8G 9G11
   1897416.87149   1466543.70145  24745293.960    24745291.960    24745308.581
       203.000         142.000
   -149572.03149   -115678.49447  21825108.491    21825106.674    21825116.469
       241.000         203.000
    532562.76549    412391.70446  23491135.618    23491134.345    23491145.545
       230.000         181.000
  -2813585.76049  -2168187.76846  22909422.178    22909421.320    22909434.509
       227.000         173.000
   -248869.52549   -191932.50747  20960373.677    20960371.881    20960381.076
       236.000         202.000
   1696381.02349   1309177.08346  23683327.017    23683324.986    23683337.971
       222.000         163.000
  -2519520.99649  -1938738.91146  23354922.498    23354921.221    23354932.041
       228.000         178.000
    926199.57749    715635.36445  25551612.060    25551610.201    25551622.329
       214.000         141.000
 00  4 27 15 33  0.0010000  0  8G27G 2G26G 4G 7G 8G 9G11
   1982737.69849   1533027.14345  24761530.273    24761528.275    24761544.943
       203.000         141.000
   -154952.04049   -119870.69947  21824084.768    21824082.967    21824092.752
       240.000         203.000
    559652.84349    433500.76146  23496290.736    23496289.493    23496300.732
       229.000         181.000
  -2939627.14049  -2266401.63646  22885437.276    22885436.423    22885449.569
       227.000         174.000
   -256481.71249   -197864.06047  20958925.171    20958923.365    20958932.547
       236.000         202.000
   1774688.37449   1370195.55346  23698228.577    23698226.526    23698239.572
       220.000         163.000
  -2634723.47349  -2028507.00946  23333000.212    23332998.921    23333009.710
       228.000         178.000
    978451.30349    756351.09745  25561555.305    25561553.479    25561565.410
       207.000         147.000
 00  4 27 15 33 30.0010000  0  7G27G 2G26G 4G 7G 8G 9
   2068195.08749   1599616.97845  24777792.622    24777790.615    24777807.299
       204.000         139.000
   -160159.75049   -123928.67347  21823093.851    21823092.023    21823101.817
       241.000         202.000
    587091.79849    454881.66746  23501512.302    23501511.035    23501522.286
       230.000         181.000
  -3065471.79149  -2364462.17346  22861489.823    22861488.948    22861502.048
       228.000         175.000
   -263766.56649   -203540.55847  20957538.965    20957537.148    20957546.308
       237.000         202.000
   1853207.56349   1431379.06845  23713170.454    23713168.399    23713181.517
       221.000         161.000
  -2749677.92549  -2118081.82646  23311125.126    23311123.820    23311134.577
       229.000         179.000
 00  4 27 15 34  0.0010000  0  7G27G 2G26G 4G 7G 8G 9
   2153822.90449   1666339.61345  24794087.335    24794085.238    24794102.017
       205.000         141.000
   -165151.27749   -127818.22647  21822143.989    21822142.202    21822151.990
       240.000         203.000
    614924.54449    476569.42046  23506808.746    23506807.514    23506818.797
       229.000         181.000
  -3191095.34049  -2462350.46046  22837584.356    22837583.518    22837596.572
       227.000         174.000
   -270706.94649   -208948.64247  20956218.268    20956216.457    20956225.607
       237.000         203.000
   1931957.14049   1492742.12745  23728156.166    23728154.117    23728167.303
       219.000         160.000
  -2864360.93449  -2207445.13446  23289301.627    23289300.351    23289311.106
       229.000         179.000
 00  4 27 15 34 30.0010000  0  7G27G 2G26G 4G 7G 8G 9
   2239606.46649   1733183.61845  24810411.725    24810409.590    24810426.436
       203.000         139.000
   -169922.67649   -131536.25847  21821236.048    21821234.272    21821244.066
       240.000         203.000
    643129.39949    498547.12746  23512176.018    23512174.783    23512186.117
       230.000         181.000
  -3316499.03749  -2560067.40846  22813720.671    22813719.900    22813732.924
       227.000         175.000
   -277321.93349   -214103.17147  20954959.488    20954957.671    20954966.838
       237.000         203.000
   2010918.06749   1554269.88145  23743182.131    23743180.088    23743193.312
       219.000         161.000
  -2978799.29949  -2296617.81646  23267524.660    23267523.425    23267534.158
       229.000         180.000
 00  4 27 15 35  0.0010000  0  7G27G 2G26G 4G 7G 8G 9
   2325544.07649   1800147.63345  24826765.396    24826763.200    24826780.086
       202.000         139.000
   -174449.77549   -135063.91847  21820374.616    21820372.855    21820382.646
       241.000         202.000
    671713.62649    520820.45846  23517615.532    23517614.259    23517625.629
       230.000         180.000
  -3441632.74749  -2657573.98046  22789908.355    22789907.652    22789920.617
       229.000         175.000
   -283584.47449   -218983.07447  20953767.776    20953765.972    20953775.129
       237.000         203.000
   2090077.77449   1615952.52245  23758245.902    23758243.893    23758257.104
       219.000         159.000
  -3092982.70349  -2385591.82546  23245796.223    23245794.984    23245805.724
       229.000         180.000
 00  4 27 15 35 30.0010000  0  7G27G 2G26G 4G 7G 8G 9
   2411646.91249   1867240.40845  24843150.506    24843148.314    24843165.204
       203.000         138.000
   -178727.06149   -138396.88247  21819560.748    21819558.973    21819568.772
       241.000         202.000
    700676.93149    543389.16946  23523127.139    23523125.886    23523137.274
       230.000         181.000
  -3566469.89849  -2754849.42446  22766152.497    22766151.837    22766164.773
       227.000         176.000
   -289465.64949   -223565.82647  20952648.619    20952646.833    20952655.984
       237.000         203.000
   2169432.36649   1677787.00545  23773346.837    23773344.757    23773358.048
       219.000         157.000
  -3206887.81949  -2474348.98646  23224120.773    23224119.545    23224130.244
       228.000         179.000
 00  4 27 15 36  0.0010000  0  7G27G 2G26G 4G 7G 8G 9
   2497899.18249   1934449.61745  24859564.024    24859561.845    24859578.925
       201.000         137.000
   -182756.94449   -141537.07947  21818793.969    21818792.169    21818801.976
       240.000         202.000
    729991.20149    566231.36246  23528705.605    23528704.287    23528715.711
       230.000         181.000
  -3691025.71449  -2851905.65046  22742450.142    22742449.558    22742462.440
       228.000         176.000
   -294962.94849   -227849.43747  20951602.561    20951600.767    20951609.886
       237.000         203.000
   2248981.17149   1739772.81045  23788484.728    23788482.635    23788495.916
       219.000         157.000
  -3320517.98049  -2562891.89146  23202497.633    23202496.427    23202507.115
       229.000         180.000
 00  4 27 15 36 30.0010000  0  7G27G 2G26G 4G 7G 8G 9
   2584313.90149   2001785.39145  24876008.451    24876006.320    24876023.451
       202.000         136.000
   -186529.42849   -144476.69247  21818076.163    21818074.355    21818084.164
       241.000         202.000
    759671.23049    589358.55646  23534353.613    23534352.306    23534363.722
       230.000         180.000
  -3815260.98049  -2948712.13346  22718808.798    22718808.265    22718821.066
       229.000         177.000
   -300037.00749   -231803.25447  20950637.058    20950635.242    20950644.349
       237.000         203.000
   2328757.78849   1801936.09645  23803665.979    23803663.847    23803677.179
       218.000         157.000
  -3433834.44749  -2651190.35446  23180934.161    23180932.962    23180943.657
       229.000         180.000
 00  4 27 15 37  0.0010000  0  7G27G 2G26G 4G 7G 8G 9
   2670949.02149   2069292.92845  24892494.821    24892492.758    24892509.956
       204.000         133.000
   -190015.40049   -147193.05747  21817412.862    21817411.052    21817420.874
       240.000         202.000
    789777.14049    612817.60346  23540082.724    23540081.386    23540092.820
       230.000         180.000
  -3939132.54649  -3045235.23146  22695236.717    22695236.186    22695248.936
       230.000         177.000
   -304631.17849   -235383.13447  20949762.818    20949761.029    20949770.123
       237.000         204.000
   2408827.01549   1864327.39145  23818902.876    23818900.708    23818914.061
       217.000         155.000
  -3546758.25749  -2739182.85546  23159445.445    23159444.243    23159454.913
       229.000         180.000
 00  4 27 15 37 30.0010000  0  7G27G 2G26G 4G 7G 8G 9
   2757764.41049   2136940.93545  24909015.500    24909013.560    24909030.622
       202.000         133.000
   -193246.89849   -149711.14947  21816797.990    21816796.171    21816805.988
       240.000         202.000
    820283.78749    636588.91646  23545888.060    23545886.711    23545898.140
       229.000         179.000
  -4062708.02849  -3141527.60846  22671720.974    22671720.462    22671733.132
       230.000         177.000
   -308800.22449   -238631.75747  20948969.503    20948967.715    20948976.792
       237.000         204.000
   2489179.25349   1926939.25945  23834193.620    23834191.474    23834204.838
       216.000         156.000
  -3659310.81949  -2826886.07146  23138027.343    23138026.169    23138036.811
       231.000         181.000
 00  4 27 15 38  0.0010000  0  7G27G 2G26G 4G 7G 8G 9
   2844758.69149   2204728.33344  24925570.245    24925568.216    24925585.454
       199.000         130.000
   -196200.78149   -152012.89647  21816235.937    21816234.111    21816243.941
       240.000         202.000
    851211.31549    660688.19446  23551773.500    23551772.116    23551783.571
       229.000         179.000
  -4185983.06049  -3237585.86146  22648262.386    22648261.894    22648274.499
       230.000         177.000
   -312545.76249   -241550.37947  20948256.769    20948254.971    20948264.064
       237.000         203.000
   2569827.15049   1989781.51245  23849540.627    23849538.442    23849551.885
       215.000         153.000
  -3771485.99849  -2914295.24346  23116681.151    23116679.965    23116690.526
       231.000         180.000
 00  4 27 15 38 30.0010000  0  7G27G 2G26G 4G 7G 8G 9
   2931940.27349   2272661.66144  24942160.659    24942158.632    24942175.835
       199.000         129.000
   -198872.72549   -154094.91147  21815727.494    21815725.711    21815735.541
       240.000         202.000
    882580.56449    685131.67246  23557742.915    23557741.564    23557753.025
       228.000         179.000
  -4308931.75549  -3333389.80046  22624865.883    22624865.410    22624877.967
       229.000         179.000
   -315867.53049   -244138.78347  20947624.720    20947622.898    20947631.978
       237.000         204.000
   2650776.00349   2052858.28745  23864944.892    23864942.637    23864956.238
       215.000         153.000
  -3883264.21449  -3001395.08746  23095410.492    23095409.265    23095419.790
       230.000         181.000
 00  4 27 15 39  0.0010000  0  7G27G 2G26G 4G 7G 8G 9
   3019292.38149   2340727.86244  24958783.514    24958781.505    24958798.709
       195.000         127.000
   -201256.08049   -155952.08347  21815273.950    21815272.204    21815282.010
       241.000         202.000
    914372.10049    709904.19546  23563792.696    23563791.352    23563802.860
       229.000         178.000
  -4431575.33049  -3428955.99946  22601527.416    22601526.974    22601539.489
       231.000         178.000
   -318801.19549   -246424.77447  20947066.530    20947064.684    20947073.748
       238.000         204.000
   2732001.17449   2116150.38145  23880401.727    23880399.492    23880413.124
       213.000         152.000
  -3994666.55949  -3088202.04046  23074211.337    23074210.062    23074220.563
       231.000         181.000
 00  4 27 15 39 30.0010000  0  7G27G 2G26G 4G 7G 8G 9
   3106790.59849   2408907.93244  24975434.248    24975432.195    24975449.321
       197.000         124.000
   -203354.33949   -157587.11847  21814874.669    21814872.945    21814882.728
       241.000         202.000
    946561.19149    734986.50846  23569918.176    23569916.831    23569928.359
       228.000         179.000
  -4553911.85449  -3524282.97146  22578247.405    22578246.969    22578259.420
       230.000         179.000
   -321355.67949   -248415.30547  20946580.479    20946578.618    20946587.674
       238.000         204.000
   2813461.65049   2179625.80345  23895903.289    23895901.095    23895914.846
       211.000         150.000
  -4105727.31449  -3174742.82946  23053077.149    23053075.882    23053086.323
       231.000         182.000
 00  4 27 15 40  0.0010000  0  7G27G 2G26G 4G 7G 8G 9
   3194442.63648   2477207.85344  24992114.167    24992112.240    24992129.370
       194.000         122.000
   -205200.70349   -159025.90047  21814523.329    21814521.625    21814531.397
       241.000         202.000
    979119.09249    760356.20046  23576113.835    23576112.487    23576124.032
       228.000         177.000
  -4675928.92249  -3619360.99446  22555028.209    22555027.764    22555040.138
       230.000         180.000
   -323523.09349   -250104.21947  20946168.077    20946166.226    20946175.254
       238.000         204.000
   2895114.66549   2243251.25045  23911441.510    23911439.354    23911453.164
       209.000         149.000
  -4216457.16949  -3261025.77046  23032005.944    23032004.684    23032015.075
       231.000         182.000
 00  4 27 15 40 30.0010000  0  7G27G 2G26G 4G 7G 8G 9
   3282270.94248   2545645.13644  25008827.503    25008825.462    25008842.974
       186.000         119.000
   -206785.49349   -160260.86647  21814221.842    21814220.097    21814229.855
       241.000         202.000
   1012054.88749    786020.34146  23582381.332    23582380.041    23582391.588
       228.000         178.000
  -4797608.34449  -3714175.95046  22531873.246    22531872.815    22531885.109
       232.000         181.000
   -325282.11149   -251474.91247  20945833.382    20945831.529    20945840.543
       238.000         204.000
   2976975.33149   2307038.46745  23927019.285    23927017.107    23927030.991
       207.000         149.000
  -4326828.51649  -3347029.33846  23011002.937    23011001.690    23011012.055
       231.000         182.000
 00  4 27 15 41  0.0010000  0  7G27G 2G26G 4G 7G 8G 9
   3370271.95548   2614217.00144  25025573.708    25025571.482    25025589.222
       189.000         114.000
   -208103.77249   -161288.16147  21813971.044    21813969.306    21813979.033
       241.000         202.000
   1045360.95449    811973.03746  23588719.375    23588718.082    23588729.638
       227.000         178.000
  -4918953.29649  -3808730.29246  22508781.968    22508781.520    22508793.741
       232.000         181.000
   -326635.65849   -252529.64747  20945575.850    20945573.983    20945582.984
       238.000         204.000
   3059033.33649   2370979.43645  23942634.560    23942632.422    23942646.391
       206.000         148.000
  -4436844.52149  -3432756.01346  22990067.569    22990066.318    22990076.681
       231.000         182.000
 00  4 27 15 41 30.0010000  0  7G27G 2G26G 4G 7G 8G 9
   3458428.87948   2682910.39344  25042349.559    25042347.221    25042365.269
       188.000         111.000
   -209178.42149   -162125.57747  21813766.622    21813764.861    21813774.596
       240.000         203.000
   1079015.53749    838197.28946  23595123.695    23595122.428    23595134.004
       230.000         179.000
  -5039968.21649  -3903027.45846  22485753.497    22485753.041    22485765.173
       230.000         181.000
   -327592.06949   -253274.92447  20945393.908    20945392.030    20945401.018
       238.000         204.000
   3141271.00649   2435060.42845  23958284.053    23958281.872    23958295.946
       206.000         148.000
  -4546511.69049  -3518210.87446  22969198.513    22969197.318    22969207.658
       232.000         182.000
 00  4 27 15 42  0.0010000  0  7G27G 2G26G 4G 7G 8G 9
   3546732.94448   2751718.38844  25059153.441    25059151.455    25059169.457
       190.000         111.000
   -210003.06149   -162768.17347  21813609.755    21813607.993    21813617.724
       240.000         202.000
   1113018.67549    864693.12746  23601594.385    23601593.117    23601604.698
       228.000         179.000
  -5160650.90749  -3997065.75446  22462788.205    22462787.769    22462799.854
       231.000         182.000
   -328174.44049   -253728.74947  20945283.128    20945281.248    20945290.229
       238.000         205.000
   3223697.79949   2499288.77445  23973969.575    23973967.376    23973981.548
       206.000         149.000
  -4655823.27849  -3603388.66146  22948397.185    22948395.971    22948406.308
       231.000         182.000
 00  4 27 15 42 30.0010000  0  7G27G 2G26G 4G 7G 8G 9
                   2820605.74854  25075976.736                    25075992.799
       179.000         109.000
   -210576.19449   -163214.78947  21813500.761    21813498.981    21813508.718
       241.000         202.000
   1147346.97349    891442.35946  23608126.945    23608125.676    23608137.285
       229.000         178.000
  -5281032.06849  -4090869.09546  22439880.303    22439879.870    22439891.922
       232.000         181.000
   -328422.95849   -253922.40947  20945235.865    20945234.002    20945242.968
       239.000         205.000
   3306300.08249   2563653.87345  23989688.543    23989686.244    23989700.580
       207.000         147.000
  -4764808.66949  -3688312.27146  22927657.947    22927656.699    22927667.036
       231.000         183.000
 00  4 27 15 43  0.0010000  0  7G27G 2G26G 4G 7G 8G 9
                   2889569.13444  25092818.738
       182.000         104.000
   -210890.77449   -163459.99047  21813440.947    21813439.177    21813448.897
       241.000         202.000
   1181994.19249    918440.08546  23614720.110    23614718.893    23614730.541
       228.000         177.000
  -5401108.99449  -4184435.38846  22417030.252    22417029.856    22417041.882
       231.000         181.000
   -328334.26549   -253853.32047  20945252.789    20945250.915    20945259.892
       239.000         205.000
   3389078.57249   2628156.21645  24005441.003    24005438.734    24005453.065
       205.000         148.000
  -4873462.52649  -3772977.54746  22906981.710    22906980.519    22906990.845
       232.000         183.000
 00  4 27 15 43 30.0010000  0  7G27G 2G26G 4G 7G 8G 9
                   2958606.85644  25109678.876
       186.000         107.000
   -210948.70249   -163505.19547  21813429.952    21813428.200    21813437.930
       241.000         202.000
   1216950.27249    945678.49946  23621372.153    23621370.905    23621382.590
       227.000         177.000
  -5520884.95649  -4277767.16946  22394237.537    22394237.131    22394249.113
       231.000         182.000
   -327899.19249   -253514.31147  20945335.594    20945333.733    20945342.720
       239.000         205.000
   3472036.73449   2692798.58745  24021227.793    24021225.383    24021239.842
       207.000         150.000
  -4981786.38649  -3857385.68246  22886368.295    22886367.141    22886377.441
       232.000         184.000
 00  4 27 15 44  0.0010000  0  7G27G 2G26G 4G 7G 8G 9
                   3027717.19744  25126556.777
       184.000         105.000
   -210754.59449   -163353.99247  21813466.923    21813465.186    21813474.932
       241.000         202.000
   1252221.67749    973162.60446  23628084.222    23628082.917    23628094.637
       228.000         178.000
  -5640360.43949  -4370864.82046  22371501.989    22371501.584    22371513.532
       231.000         181.000
   -327120.33349   -252907.42747  20945483.839    20945481.966    20945490.961
       239.000         205.000
   3555179.26149   2757584.63045  24037049.584    24037047.179    24037061.639
       208.000         150.000
  -5089778.17349  -3941535.05546  22865818.096    22865816.966    22865827.233
       233.000         184.000
 00  4 27 15 44 30.0010000  0  7G27G 2G26G 4G 7G 8G 9
                   3096898.89344  25143451.906
       182.000          99.000
   -210332.45849   -163025.09247  21813547.294    21813545.555    21813555.309
       240.000         201.000
   1287785.42949   1000874.50746  23634851.846    23634850.566    23634862.307
       229.000         177.000
  -5759556.99649  -4463745.12746  22348819.557    22348819.108    22348831.036
       230.000         182.000
   -326002.74949   -252036.61947  20945696.529    20945694.666    20945703.656
       239.000         205.000
   3638495.05049   2822505.70445  24052904.320    24052901.905    24052916.464
       208.000         150.000
  -5197451.73049  -4025436.46946  22845328.462    22845327.324    22845337.582
       233.000         184.000
 00  4 27 15 45  0.0010000  0  6G 2G26G 4G 7G 8G 9
   -209724.31149   -162551.25747  21813663.103    21813661.342    21813671.101
       240.000         202.000
   1323626.97949   1028802.90646  23641672.394    23641671.083    23641682.837
       225.000         177.000
  -5878476.71449  -4556409.72346  22326189.749    22326189.301    22326201.218
       230.000         181.000
   -324578.60649   -250926.90047  20945967.527    20945965.696    20945974.675
       239.000         205.000
   3721966.93049   2887548.35945  24068788.667    24068786.294    24068800.991
       208.000         150.000
  -5304826.71449  -4109105.22946  22824895.653    22824894.516    22824904.758
       234.000         185.000
 00  4 27 15 45 30.0000000  0  7G 2G26G 4G24G 7G 8G 9
   -208928.89149   -161931.51147  21813814.523    21813812.769    21813822.520
       240.000         201.000
   1359761.15449   1056959.30746  23648548.602    23648547.302    23648559.066
       228.000         177.000
  -5997085.44149  -4648831.99646  22303619.148    22303618.688    22303630.580
       230.000         182.000
   -387372.12359   -281322.81755  24958809.279    24958806.955    24958825.393
       209.000         142.000
   -322849.61849   -249579.65347  20946296.570    20946294.740    20946303.712
       239.000         205.000
   3805593.01349   2952711.15445  24084702.367    24084700.077    24084714.795
       208.000         151.000
  -5411895.72649  -4192535.57846  22804521.043    22804519.937    22804530.159
       233.000         185.000
 00  4 27 15 46  0.0000000  0  7G 2G26G 4G24G 7G 8G 9
   -207921.80449   -161146.80247  21814006.222    21814004.459    21814014.242
       240.000         201.000
   1396219.15349   1085368.03546  23655486.432    23655485.117    23655496.890
       228.000         176.000
  -6115360.05049  -4740993.90946  22281112.177    22281111.678    22281123.537
       231.000         182.000
   -523171.16549   -387139.92345  24932967.381    24932965.797    24932984.483
       209.000         143.000
   -320801.68149   -247983.87747  20946686.314    20946684.477    20946693.433
       240.000         205.000
   3889398.40349   3018013.68745  24100650.233    24100647.945    24100662.751
       209.000         152.000
  -5518638.86549  -4275711.99746  22784208.436    22784207.342    22784217.571
       232.000         185.000
 00  4 27 15 46 30.0000000  0  7G 2G26G 4G24G 7G 8G 9
   -206689.88749   -160186.91747  21814240.721    21814238.952    21814248.733
       239.000         201.000
   1432994.78249   1114024.26246  23662484.759    23662483.381    23662495.161
       224.000         176.000
  -6233298.16249  -4832893.63146  22258669.240    22258668.717    22258680.525
       231.000         183.000
   -659014.77359   -492991.77855  24907117.093    24907114.990    24907134.444
       210.000         143.000
   -318427.81349   -246134.13947  20947138.066    20947136.228    20947145.187
       239.000         205.000
   3973371.43849   3083446.83545  24116630.056    24116627.742    24116642.581
       208.000         152.000
  -5625044.43549  -4358625.39146  22763960.142    22763959.003    22763969.225
       232.000         185.000
 00  4 27 15 47  0.0000000  0  7G 2G26G 4G24G 7G 8G 9
   -205232.80449   -159051.58747  21814518.062    21814516.279    21814526.060
       239.000         200.000
   1470065.81749   1142910.68446  23669539.195    23669537.852    23669549.653
       226.000         175.000
  -6350916.81049  -4924544.41946  22236287.118    22236286.545    22236298.292
       232.000         183.000
   -794901.32549   -598877.10945  24881258.585    24881256.805    24881275.683
       213.000         145.000
   -315733.09349   -244034.37947  20947650.926    20947649.067    20947658.002
       240.000         205.000
   4057488.33949   3148992.07945  24132637.251    24132634.886    24132649.804
       209.000         153.000
  -5731116.58749  -4441278.96246  22743775.215    22743774.091    22743784.315
       232.000         186.000
 00  4 27 15 47 30.0000000  0  7G 2G26G 4G24G 7G 8G 9
   -203536.66049   -157729.95847  21814840.878    21814839.091    21814848.882
       240.000         200.000
   1507416.23549   1172014.78746  23676646.816    23676645.486    23676657.308
       226.000         175.000
  -6468234.90049  -5015961.01546  22213962.156    22213961.582    22213973.271
       233.000         183.000
   -930805.96149   -704776.53145  24855396.647    24855394.970    24855413.602
       212.000         145.000
   -312695.51149   -241667.46647  20948228.997    20948227.142    20948236.059
       239.000         206.000
   4141738.28849   3214641.00045  24148669.745    24148667.428    24148682.351
       211.000         155.000
  -5836849.09149  -4523667.87346  22723655.021    22723653.863    22723664.055
       234.000         186.000
 00  4 27 15 48  0.0000000  0  7G 2G26G 4G24G 7G 8G 9
   -201628.40949   -156243.04847  21815204.053    21815202.269    21815212.079
       239.000         200.000
   1545000.05449   1201300.76846  23683798.869    23683797.539    23683809.367
       225.000         175.000
  -6585302.31749  -5107182.28546  22191684.904    22191684.326    22191695.959
       232.000         184.000
  -1066742.15549   -810700.56245  24829528.707    24829527.218    24829545.723
       211.000         146.000
   -309344.11549   -239056.00847  20948866.800    20948864.932    20948873.848
       240.000         205.000
   4226095.10249   3280373.16345  24164722.743    24164720.320    24164735.298
       212.000         155.000
  -5942269.70749  -4605813.75646  22703594.125    22703592.973    22703603.147
       234.000         186.000
 00  4 27 15 48 30.0000000  0  7G 2G26G 4G24G 7G 8G 9
   -199468.55149   -154560.07947  21815615.106    21815613.326    21815623.156
       239.000         200.000
   1582863.77649   1230804.85246  23691004.206    23691002.866    23691014.699
       226.000         175.000
  -6702068.29249  -5198168.68346  22169465.018    22169464.426    22169476.019
       233.000         184.000
  -1202670.50549   -916618.47245  24803662.223    24803660.744    24803679.334
       212.000         145.000
   -305636.24749   -236166.75647  20949572.398    20949570.540    20949579.490
       240.000         206.000
   4310606.00149   3346225.43345  24180805.042    24180802.563    24180817.553
       212.000         156.000
  -6047328.67849  -4687677.83246  22683602.060    22683600.893    22683611.048
       233.000         187.000
 00  4 27 15 49  0.0000000  0  7G 2G26G 4G24G 7G 8G 9
   -197092.88149   -152708.95847  21816067.234    21816065.456    21816075.296
       239.000         200.000
   1620979.53849   1260505.34946  23698257.525    23698256.150    23698268.013
       226.000         175.000
  -6818527.97449  -5288916.41146  22147303.432    22147302.806    22147314.374
       232.000         185.000
  -1338625.97349  -1022557.54045  24777790.555    24777789.197    24777807.803
       212.000         146.000
   -301601.39149   -233022.71747  20950340.229    20950338.378    20950347.326
       240.000         206.000
   4395248.37349   3412180.14945  24196912.305    24196909.820    24196924.849
       213.000         156.000
  -6152047.61149  -4769276.94546  22663674.685    22663673.519    22663683.658
       234.000         187.000
 00  4 27 15 49 30.0000000  0  7G 2G26G 4G24G 7G 8G 9
   -194524.49049   -150707.67347  21816556.008    21816554.249    21816564.099
       239.000         200.000
   1659352.36249   1290406.12846  23705559.779    23705558.364    23705570.220
       224.000         175.000
  -6934672.00149  -5379418.17046  22125201.889    22125201.272    22125212.799
       233.000         186.000
  -1474623.76049  -1128529.60745  24751910.782    24751909.529    24751928.157
       212.000         146.000
   -297263.36849   -229642.47047  20951165.719    20951163.872    20951172.850
       239.000         205.000
   4480015.73249   3478232.27945  24213043.310    24213040.844    24213055.921
       212.000         156.000
  -6256436.35749  -4850618.76247  22643810.149    22643808.975    22643819.088
       234.000         188.000
 00  4 27 15 50  0.0000000  0  7G 2G26G 4G24G 7G 8G 9
   -191732.58849   -148532.21147  21817087.377    21817085.590    21817095.447
       239.000         200.000
   1698019.84449   1320536.51846  23712918.017    23712916.628    23712928.535
       226.000         175.000
  -7050449.55849  -5469634.38346  22103170.136    22103169.476    22103180.955
       233.000         186.000
  -1610653.35549  -1234526.46045  24726025.014    24726023.861    24726042.442
       211.000         145.000
   -292600.73749   -226009.29447  20952052.996    20952051.174    20952060.153
       239.000         205.000
   4564938.86449   3544405.80045  24229203.963    24229201.482    24229216.599
       213.000         157.000
  -6360457.34949  -4931674.01647  22624015.556    22624014.407    22624024.490
       234.000         189.000
 00  4 27 15 50 30.0000000  0  7G 2G26G 4G24G 7G 8G 9
   -188704.68449   -146172.83447  21817663.628    21817661.844    21817671.701
       239.000         200.000
   1736991.49849   1350903.91046  23720334.175    23720332.781    23720344.716
       227.000         175.000
  -7165834.83049  -5559544.91646  22081213.011    22081212.334    22081223.776
       234.000         187.000
  -1746710.05449  -1340544.44845  24700134.150    24700133.013    24700151.539
       210.000         146.000
   -287605.01649   -222116.54247  20953003.632    20953001.838    20953010.846
       239.000         205.000
   4650024.81749   3610706.23745  24245395.549    24245393.082    24245408.293
       213.000         158.000
  -6464103.53749  -5012437.22547  22604292.365    22604291.180    22604301.223
       235.000         188.000
 00  4 27 15 51  0.0000000  0  7G 2G26G 4G24G 7G 8G 9
   -185427.50249   -143619.22247  21818287.318    21818285.520    21818295.397
       239.000         200.000
   1776244.80449   1381490.78346  23727803.900    23727802.539    23727814.492
       225.000         175.000
  -7280835.48749  -5649155.74046  22059329.054    22059328.394    22059339.787
       234.000         187.000
  -1882781.85649  -1446574.22645  24674240.335    24674239.278    24674257.795
       211.000         145.000
   -282280.17449   -217967.33947  20954016.912    20954015.123    20954024.144
       239.000         205.000
   4735268.47949   3677129.54945  24261617.243    24261614.762    24261630.011
       214.000         157.000
  -6567376.00249  -5092909.21847  22584640.255    22584639.052    22584649.064
       235.000         188.000
 00  4 27 15 51 30.0000000  0  7G 2G26G 4G24G 7G 8G 9
   -181916.43649   -140883.38347  21818955.549    21818953.715    21818963.597
       239.000         200.000
   1815761.51449   1412282.90446  23735323.772    23735322.403    23735334.401
       226.000         175.000
  -7395485.20449  -5738493.07646  22037511.927    22037511.228    22037522.598
       235.000         187.000
  -2018872.71449  -1552618.86645  24648342.858    24648341.921    24648360.394
       209.000         145.000
   -276650.44049   -213580.55547  20955088.281    20955086.452    20955095.471
       239.000         205.000
   4820649.91349   3743660.24645  24277865.092    24277862.595    24277877.916
       215.000         157.000
  -6670296.10449  -5173106.64747  22565055.177    22565053.987    22565063.977
       234.000         189.000
 00  4 27 15 52  0.0000000  0  7G 2G26G 4G24G 7G 8G 9
   -178149.14749   -137947.88247  21819672.506    21819670.661    21819680.552
       239.000         199.000
   1855536.72749   1443276.45246  23742892.795    23742891.479    23742903.479
       227.000         175.000
  -7509775.10949  -5827550.04246  22015763.291    22015762.563    22015773.869
       235.000         187.000
  -2154951.00049  -1658653.71345  24622447.874    24622446.953    24622465.392
       210.000         146.000
   -270706.01849   -208948.55347  20956219.469    20956217.656    20956226.676
       239.000         205.000
   4906175.30349   3810303.13145  24294140.295    24294137.815    24294153.218
       215.000         157.000
  -6772849.13849  -5253018.04147  22545539.953    22545538.770    22545548.743
       235.000         189.000
 00  4 27 15 52 30.0000000  0  7G 2G26G 4G24G 7G 8G 9
   -174149.48049   -134831.31847  21820433.622    21820431.822    21820441.725
       238.000         199.000
   1895540.11949   1474447.79646  23750505.375    23750503.989    23750515.993
       226.000         175.000
  -7623739.77549  -5916353.59347  21994076.499    21994075.753    21994087.030
       234.000         188.000
  -2291019.22549  -1764680.75645  24596554.881    24596553.870    24596572.285
       211.000         146.000
   -264480.65449   -204097.66347  20957404.148    20957402.323    20957411.350
       239.000         204.000
   4991822.13349   3877040.60745  24310438.589    24310436.154    24310451.599
       216.000         157.000
  -6875051.84749  -5332656.46147  22526091.377    22526090.206    22526100.183
       234.000         189.000
 00  4 27 15 53  0.0000000  0  7G 2G26G 4G24G 7G 8G 9
   -169928.41049   -131542.22447  21821236.891    21821235.111    21821245.027
       238.000         199.000
   1935769.24449   1505795.03546  23758160.842    23758159.456    23758171.485
       225.000         175.000
  -7737392.13249  -6004913.77846  21972449.064    21972448.349    21972459.610
       234.000         187.000
  -2427087.22649  -1870707.61145  24570661.898    24570660.905    24570679.257
       212.000         146.000
   -257988.54449   -199038.93547  20958639.568    20958637.766    20958646.781
       240.000         204.000
   5077576.44149   3943861.81045  24326757.399    24326754.909    24326770.433
       216.000         157.000
  -6976895.31649  -5412014.95647  22506711.164    22506710.007    22506719.987
       235.000         190.000
 00  4 27 15 53 30.0000000  0  7G 2G26G 4G24G 7G 8G 9
   -165475.71049   -128072.61747  21822084.261    21822082.476    21822092.399
       238.000         199.000
   1976260.03749   1537346.16846  23765866.103    23765864.713    23765876.761
       227.000         175.000
  -7850704.35149  -6093208.91847  21950886.376    21950885.690    21950896.913
       234.000         188.000
  -2563147.00249  -1976728.05845  24544770.463    24544769.453    24544787.842
       211.000         145.000
   -251213.51549   -193759.76147  20959928.882    20959927.037    20959936.054
       240.000         205.000
   5163459.70549   4010783.49345  24343100.751    24343098.264    24343113.784
       217.000         157.000
  -7078355.98549  -5491075.15647  22487403.806    22487402.661    22487412.635
       234.000         189.000
 00  4 27 15 54  0.0000000  0  7G 2G26G 4G24G 7G 8G 9
   -160774.64849   -124409.49247  21822978.896    21822977.104    21822987.017
       238.000         198.000
   2017019.98549   1569107.04646  23773622.612    23773621.188    23773633.247
       226.000         174.000
  -7963677.05949  -6181239.48647  21929388.316    21929387.617    21929398.831
       235.000         189.000
  -2699206.90449  -2082748.59645  24518879.063    24518878.077    24518896.355
       211.000         146.000
   -244148.68549   -188254.74947  20961273.338    20961271.471    20961280.442
       239.000         204.000
   5249477.40649   4077809.92145  24359469.670    24359467.209    24359482.745
       217.000         158.000
  -7179422.97249  -5569828.59247  22468171.356    22468170.211    22468180.167
       235.000         190.000
 00  4 27 15 54 30.0000000  0  7G 2G26G 4G24G 7G 8G 9
   -155837.30349   -120562.24047  21823918.426    21823916.667    21823926.599
       238.000         198.000
   2058051.57849   1601079.57546  23781430.801    23781429.373    23781441.423
       224.000         173.000
  -8076313.16249  -6269007.76947  21907954.339    21907953.648    21907964.815
       235.000         189.000
  -2835301.28849  -2188796.04445  24492981.081    24492980.062    24492998.302
       212.000         145.000
   -236798.83049   -182527.62247  20962672.018    20962670.145    20962679.113
       240.000         204.000
   5335624.59249   4144937.25145  24375863.213    24375860.732    24375876.351
       216.000         157.000
  -7280108.66849  -5648284.92347  22449011.403    22449010.298    22449020.239
       235.000         190.000
 00  4 27 15 55  0.0000000  0  7G 2G26G 4G24G 7G 8G 9
   -150634.13449   -116507.84047  21824908.617    21824906.853    21824916.775
       238.000         198.000
   2099381.26149   1633284.38646  23789295.628    23789294.239    23789306.325
       223.000         172.000
  -8188571.45649  -6356481.66647  21886592.270    21886591.548    21886602.697
       235.000         190.000
  -2971420.83149  -2294863.06645  24467078.286    24467077.267    24467095.440
       212.000         146.000
   -229136.08549   -176556.68147  20964130.212    20964128.362    20964137.315
       239.000         204.000
   5421916.10849   4212177.02345  24392284.240    24392281.790    24392297.426
       218.000         157.000
  -7380393.73749  -5726429.07547  22429927.760    22429926.657    22429936.572
       235.000         190.000
 00  4 27 15 55 30.0000000  0  7G 2G26G 4G24G 7G 8G 9
   -145160.01449   -112242.32947  21825950.340    21825948.573    21825958.519
       238.000         198.000
   2141009.00649   1665721.43946  23797217.193    23797215.852    23797227.953
       224.000         173.000
  -8300442.29249  -6443653.65447  21865303.894    21865303.172    21865314.294
       235.000         190.000
  -3107556.83749  -2400942.93445  24441172.315    24441171.331    24441189.471
       211.000         146.000
   -221152.53249   -170335.77247  20965649.435    20965647.603    20965656.548
       239.000         205.000
   5508343.28949   4279522.49745  24408731.035    24408728.594    24408744.294
       218.000         158.000
  -7480287.31949  -5804268.18547  22410918.626    22410917.498    22410927.401
       235.000         190.000
 00  4 27 15 56  0.0000000  0  7G 2G26G 4G24G 7G 8G 9
   -139453.85549   -107796.00447  21827036.198    21827034.468    21827044.422
       238.000         197.000
   2182885.15949   1698352.08846  23805186.023    23805184.713    23805196.849
       225.000         171.000
  -8411965.63649  -6530554.86347  21844081.636    21844080.936    21844092.041
       236.000         190.000
  -3243735.85649  -2507056.33245  24415258.223    24415257.224    24415275.310
       212.000         146.000
   -212889.30949   -163896.96747  20967221.920    20967220.073    20967229.027
       239.000         205.000
   5594859.97549   4346937.71245  24425194.879    24425192.461    24425208.240
       217.000         156.000
  -7579830.77249  -5881834.46647  22391976.107    22391974.967    22391984.849
       235.000         190.000
 00  4 27 15 56 30.0000000  0  7G 2G26G 4G24G 7G 8G 9
   -133488.38349   -103147.61647  21828171.420    21828169.693    21828179.655
       237.000         197.000
   2225029.11949   1731191.41246  23813205.866    23813204.536    23813216.706
       222.000         170.000
  -8523091.70349  -6617146.52147  21822934.964    21822934.294    21822945.383
       236.000         190.000
  -3379907.43349  -2613163.92245  24389345.502    24389344.526    24389362.590
       214.000         147.000
   -204312.25349   -157213.60047  20968854.121    20968852.281    20968861.242
       239.000         204.000
   5681498.43649   4414447.81045  24441681.862    24441679.469    24441695.324
       217.000         157.000
  -7678994.38149  -5959104.76347  22373105.786    22373104.704    22373114.560
       235.000         190.000
 00  4 27 15 57  0.0000000  0  7G 2G26G 4G24G 7G 8G 9
   -127277.51049    -98308.00347  21829353.319    21829351.618    21829361.583
       237.000         197.000
   2267418.60049   1764222.01646  23821272.349    23821271.060    23821283.289
       224.000         170.000
  -8633823.17549  -6703430.69047  21801863.365    21801862.721    21801873.805
       236.000         190.000
  -3516050.40449  -2719249.21945  24363438.332    24363437.346    24363455.281
       213.000         146.000
   -195430.90249   -150293.12647  20970544.189    20970542.373    20970551.332
       240.000         205.000
   5768244.35349   4482041.61845  24458189.283    24458186.937    24458202.864
       216.000         156.000
  -7777790.34549  -6036088.59447  22354305.445    22354304.394    22354314.233
       235.000         191.000
 00  4 27 15 57 30.0000000  0  7G 2G26G 4G24G 7G 8G 9
   -120836.91649    -93289.38447  21830578.911    21830577.240    21830587.209
       237.000         196.000
   2310036.41649   1797430.56646  23829382.425    23829381.094    23829393.347
       223.000         170.000
  -8744162.45649  -6789409.28047  21780866.423    21780865.800    21780876.852
       236.000         189.000
  -3652145.64649  -2825297.33145  24337540.200    24337539.161    24337557.087
       214.000         147.000
   -186241.84149   -143132.85847  20972292.878    20972291.034    20972300.008
       240.000         205.000
   5855114.35249   4549732.09445  24474720.414    24474718.062    24474734.069
       216.000         157.000
  -7876224.67849  -6112790.61847  22335573.984    22335572.936    22335582.733
       235.000         191.000
 00  4 27 15 58  0.0000000  0  7G 2G26G 4G24G 7G 8G 9
   -114151.35749    -88079.90247  21831851.176    21831849.482    21831859.468
       237.000         196.000
   2352876.92749   1830812.63646  23837534.812    23837533.468    23837545.776
       222.000         169.000
  -8854082.71649  -6875061.35447  21759949.244    21759948.600    21759959.629
       235.000         189.000
  -3788172.91549  -2931292.50245  24311654.925    24311653.989    24311671.814
       214.000         147.000
   -176731.17249   -135721.97147  20974102.759    20974100.917    20974109.895
       240.000         205.000
   5942130.45549   4617536.44045  24491279.342    24491276.948    24491293.072
       215.000         155.000
  -7974274.88749  -6189193.32247  22316915.654    22316914.567    22316924.364
       235.000         191.000
 00  4 27 15 58 30.0000000  0  7G 2G26G 4G24G 7G 8G 9
   -107253.56249    -82705.04047  21833163.803    21833162.127    21833172.119
       237.000         196.000
   2395911.25549   1864345.73846  23845723.996    23845722.715    23845735.064
       223.000         168.000
  -8963598.59449  -6960398.31847  21739108.957    21739108.362    21739119.348
       236.000         189.000
  -3924149.32049  -3037248.00845  24285779.373    24285778.496    24285796.250
       214.000         147.000
   -166919.74749   -128076.70747  20975969.867    20975968.019    20975977.003
       239.000         205.000
   6029263.26249   4685431.70345  24507860.460    24507858.072    24507874.293
       215.000         155.000
  -8071962.53949  -6265313.51247  22298326.256    22298325.186    22298334.967
       235.000         191.000
 00  4 27 15 59  0.0000000  0  7G 2G26G 4G24G 7G 8G 9
   -100073.21149    -77109.99147  21834530.183    21834528.514    21834538.541
       237.000         196.000
   2439201.22749   1898078.05246  23853961.913    23853960.614    23853973.014
       222.000         168.000
  -9072652.43949  -7045375.26347  21718356.653    21718356.033    21718366.993
       236.000         189.000
  -4060008.23649  -3143111.97745  24259926.289    24259925.339    24259943.073
       212.000         147.000
   -156748.29549   -120150.90947  20977905.470    20977903.610    20977912.614
       240.000         205.000
   6116567.40649   4753460.46545  24524474.124    24524471.764    24524488.157
       215.000         153.000
  -8169208.38749  -6341089.44247  22279820.951    22279819.861    22279829.646
       235.000         190.000
 00  4 27 15 59 30.0000000  0  8G 2G26G 4G24G 5G 7G 8G 9
    -92518.34149    -71223.11147  21835967.826    21835966.181    21835976.214
       236.000         196.000
   2482829.01949   1932073.58646  23862264.167    23862262.794    23862275.194
       223.000         168.000
  -9181175.84049  -7129938.88347  21697705.279    21697704.655    21697715.594
       236.000         190.000
  -4195675.26949  -3248826.43045  24234109.698    24234108.636    24234126.361
       213.000         148.000
  -3191115.13759  -2208974.40155  25245651.178    25245649.190    25245663.156
       198.000         136.000
   -146145.60549   -111889.08247  20979923.082    20979921.240    20979930.257
       239.000         204.000
   6204115.99849   4821679.69845  24541134.374    24541132.001    24541148.520
       214.000         154.000
  -8265899.63049  -6416433.22647  22261421.137    22261420.078    22261429.839
       235.000         191.000
 00  4 27 16  0  0.0000000  0  8G 2G26G 4G24G 5G 7G 8G 9
    -84649.79849    -65091.81947  21837465.199    21837463.551    21837473.601
       236.000         196.000
   2526734.76749   1966285.72546  23870619.244    23870617.919    23870630.322
       223.000         168.000
  -9289250.74049  -7214153.01447  21677139.263    21677138.608    21677149.537
       237.000         191.000
  -4331235.60249  -3354457.72845  24208313.348    24208312.255    24208329.929
       214.000         148.000
  -3301298.44649  -2294831.34645  25224683.886    25224681.942    25224696.088
       214.000         133.000
   -135202.13049   -103361.71747  20982005.510    20982003.712    20982012.739
       240.000         205.000
   6291809.04249   4890011.46345  24557822.135    24557819.743    24557836.356
       215.000         152.000
  -8362096.69849  -6491391.95247  22243115.407    22243114.347    22243124.106
       235.000         192.000
 00  4 27 16  0 30.0000000  0  8G 2G26G 4G24G 5G 7G 8G 9
    -76531.69849    -58766.05647  21839010.066    21839008.414    21839018.465
       237.000         196.000
   2570861.85249   2000670.34446  23879016.506    23879015.141    23879027.557
       223.000         168.000
  -9396958.31249  -7298080.93147  21656643.146    21656642.489    21656653.391
       237.000         191.000
  -4466754.67049  -3460056.86545  24182524.851    24182523.773    24182541.418
       213.000         147.000
  -3411514.67749  -2380714.04445  25203710.449    25203708.647    25203722.755
       217.000         132.000
   -123991.04449    -94625.82247  20984138.881    20984137.117    20984146.151
       239.000         204.000
   6379570.53149   4958396.57645  24574522.927    24574520.511    24574537.241
       214.000         150.000
  -8457860.38549  -6566012.97847  22224892.181    22224891.102    22224900.843
       236.000         192.000
 00  4 27 16  1  0.0000000  0  8G 2G26G 4G24G 5G 7G 8G 9
    -68148.29149    -52233.56947  21840605.398    21840603.747    21840613.806
       237.000         196.000
   2615209.20249   2035226.58446  23887455.690    23887454.295    23887466.718
       225.000         166.000
  -9504294.16749  -7381719.18947  21636217.791    21636217.110    21636227.968
       237.000         192.000
  -4602242.45749  -3565631.61445  24156742.400    24156741.229    24156758.830
       213.000         147.000
  -3521774.16849  -2466630.59045  25182728.798    25182727.020    25182740.907
       217.000         136.000
   -112513.92849    -85682.62947  20986322.922    20986321.146    20986330.186
       240.000         205.000
   6467390.96249   5026827.60645  24591234.935    24591232.534    24591249.325
       213.000         149.000
  -8553179.33349  -6640287.46547  22206753.583    22206752.503    22206762.206
       236.000         192.000
 00  4 27 16  1 30.0000000  0  8G 2G26G 4G24G 5G 7G 8G 9
    -59494.53149    -45490.40647  21842252.201    21842250.540    21842260.598
       237.000         196.000
   2659800.70849   2069973.07646  23895941.366    23895939.900    23895952.350
       225.000         168.000
  -9611221.81449  -7465039.37247  21615870.128    21615869.426    21615880.237
       238.000         192.000
  -4737699.64849  -3671182.51745  24130965.642    24130964.528    24130982.009
       216.000         148.000
  -3632055.74649  -2552564.29045  25161742.708    25161741.175    25161754.787
       201.000         132.000
   -100749.30349    -76515.41047  20988561.695    20988559.914    20988568.942
       240.000         204.000
   6555287.35849   5095317.82345  24607961.408    24607958.993    24607975.864
       213.000         147.000
  -8648046.04549  -6714209.54847  22188701.031    22188699.951    22188709.630
       236.000         193.000
 00  4 27 16  2  0.0000000  0  8G 2G26G 4G24G 5G 7G 8G 9
    -50564.74049    -38532.13947  21843951.507    21843949.859    21843959.915
       236.000         195.000
   2704639.94249   2104912.62346  23904474.098    23904472.642    23904485.103
       224.000         167.000
  -9717714.78949  -7548020.88047  21595605.171    21595604.445    21595615.237
       238.000         192.000
  -4873121.23049  -3776705.65345  24105195.695    24105194.558    24105212.027
       214.000         146.000
  -3742339.91949  -2638499.86245  25140756.331    25140754.827    25140768.560
       210.000         133.000
    -88682.21049    -67112.49847  20990858.001    20990856.227    20990865.269
       240.000         204.000
   6643270.65349   5163875.75845  24624704.339    24624701.981    24624718.922
       212.000         146.000
  -8742485.37949  -6787798.59947  22170729.839    22170728.732    22170738.386
       236.000         193.000
 00  4 27 16  2 30.0000000  0  8G 2G26G 4G24G 5G 7G 8G 9
    -41376.34849    -31372.38347  21845700.051    21845698.398    21845708.452
       237.000         195.000
   2749696.40549   2140021.41146  23913048.099    23913046.703    23913059.158
       224.000         166.000
  -9823777.33449  -7630666.96747  21575422.113    21575421.386    21575432.151
       239.000         193.000
  -5008506.05949  -3882200.12045  24079432.603    24079431.575    24079448.999
       213.000         147.000
  -3852630.58049  -2724440.63345  25119768.808    25119767.191    25119780.876
       219.000         132.000
    -76317.85649    -57477.95247  20993210.868    20993209.115    20993218.156
       239.000         204.000
   6731346.29849   5232505.66245  24641464.859    24641462.482    24641479.582
       209.000         144.000
  -8836510.72849  -6861065.06447  22152837.399    22152836.275    22152845.920
       236.000         193.000
 00  4 27 16  3  0.0000000  0  8G 2G26G 4G24G 5G 7G 8G 9
    -31927.99349    -24010.06047  21847498.075    21847496.404    21847506.465
       237.000         196.000
   2794962.62849   2175293.66846  23921662.143    23921660.690    23921673.162
       223.000         167.000
  -9929394.98449  -7712966.38647  21555323.688    21555322.996    21555333.708
       239.000         193.000
  -5143852.74049  -3987664.86345  24053676.828    24053675.787    24053693.275
       214.000         147.000
  -3962900.23749  -2810364.95645  25098784.911    25098783.433    25098797.341
       203.000         135.000
    -63653.23449    -47609.45247  20995620.828    20995619.113    20995628.149
       239.000         204.000
   6819534.61149   5301223.37145  24658246.928    24658244.538    24658261.707
       209.000         146.000
  -8930127.46049  -6934013.12547  22135022.695    22135021.594    22135031.215
       237.000         193.000
 00  4 27 16  3 30.0000000  0  8G 2G26G 4G24G 5G 7G 8G 9
    -22240.88249    -16461.70247  21849341.497    21849339.843    21849349.905
       237.000         195.000
   2840421.53349   2210716.03846  23930312.707    23930311.334    23930323.851
       224.000         166.000
 -10034592.22049  -7794938.21647  21535305.301    21535304.604    21535315.302
       239.000         193.000
  -5279169.20149  -4093106.03245  24027926.745    24027925.786    24027943.226
       212.000         146.000
  -4073155.91949  -2896278.42745  25077803.633    25077802.385    25077816.370
       215.000         137.000
    -50714.95549    -37527.69447  20998082.934    20998081.214    20998090.245
       239.000         204.000
   6907837.16949   5370030.11345  24675050.587    24675048.360    24675065.563
       209.000         143.000
  -9023360.95949  -7006662.55047  22117280.935    22117279.817    22117289.437
       236.000         194.000
 00  4 27 16  4  0.0000000  0  8G 2G26G 4G24G 5G 7G 8G 9
    -12312.64849     -8725.47047  21851230.812    21851229.164    21851239.215
       237.000         195.000
   2886049.41249   2246270.10046  23938995.495    23938994.121    23939006.677
       225.000         166.000
 -10139400.30049  -7876606.80447  21515360.967    21515360.279    21515370.941
       239.000         193.000
  -5414437.54549  -4198509.69645  24002185.794    24002184.913    24002202.375
       212.000         147.000
  -4183415.93749  -2982195.27045  25056821.578    25056820.424    25056834.547
       210.000         133.000
    -37525.08949    -27249.88147  21000592.926    21000591.192    21000600.231
       240.000         204.000
   6996247.03249   5438920.47445  24691874.901    24691872.547    24691889.827
       208.000         140.000
  -9116218.60249  -7079019.08147  22099610.674    22099609.557    22099619.179
       237.000         194.000
 00  4 27 16  4 30.0000000  0  8G 2G26G 4G24G 5G 7G 8G 9
     -2139.07849      -798.07447  21853166.810    21853165.161    21853175.232
       236.000         195.000
   2931841.72249   2281952.30446  23947709.570    23947708.214    23947720.817
       224.000         165.000
 -10243811.75249  -7957966.32047  21495492.104    21495491.413    21495502.065
       239.000         193.000
  -5549653.75549  -4303872.71645  23976454.742    23976453.953    23976471.455
       213.000         147.000
  -4293680.46149  -3068115.60245  25035838.966    25035837.765    25035851.671
       210.000         136.000
    -24083.14649    -16775.65447  21003150.894    21003149.154    21003158.175
       240.000         204.000
   7084760.56849   5507891.60745  24708718.949    24708716.439    24708733.805
       208.000         140.000
  -9208679.69149  -7151066.60747  22082015.858    22082014.781    22082024.389
       237.000         195.000
 00  4 27 16  5  0.0000000  0  8G 2G26G 4G24G 5G 7G 8G 9
      8284.52349      7324.16747  21855150.384    21855148.739    21855158.831
       236.000         195.000
   2977811.93449   2317773.11546  23956457.468    23956456.157    23956468.789
       224.000         166.000
 -10347811.51149  -8039005.04747  21475701.570    21475700.906    21475711.537
       239.000         193.000
  -5684831.20249  -4409205.54245  23950731.088    23950730.402    23950747.876
       211.000         148.000
  -4403959.47649  -3154047.19045  25014853.703    25014852.289    25014866.368
       212.000         142.000
    -10385.15449     -6101.91747  21005757.577    21005755.838    21005764.853
       240.000         204.000
   7173359.00149   5576928.88145  24725578.998    24725576.429    24725593.981
       208.000         137.000
  -9300743.35649  -7222804.45747  22064496.726    22064495.630    22064505.236
       237.000         195.000
 00  4 27 16  5 30.0000000  0  8G 2G26G 4G24G 5G 7G 8G 9
     18969.56249     15650.11947  21857183.700    21857182.064    21857192.171
       236.000         195.000
   3023971.50949   2353741.46346  23965241.360    23965240.137    23965252.778
       224.000         166.000
 -10451383.70549  -8119710.62047  21455992.420    21455991.732    21456002.363
       239.000         194.000
  -5819945.98549  -4514489.49745  23925019.438    23925018.725    23925036.192
       213.000         149.000
  -4514262.84849  -3239997.84045  24993863.678    24993862.293    24993876.336
       210.000         134.000
      3587.63649      4785.96947  21008416.548    21008414.806    21008423.823
       240.000         204.000
   7262038.23949   5646029.17145  24742454.425    24742451.904    24742469.472
       206.000         138.000
  -9392376.95749  -7294207.20847  22047059.417    22047058.313    22047067.906
       238.000         196.000
 00  4 27 16  6  0.0000000  0  8G 2G26G 4G24G 5G 7G 8G 9
     29914.86249     24178.88247  21859266.546    21859264.915    21859275.034
       236.000         195.000
   3070306.77149   2389846.73446  23974058.806    23974057.565    23974070.207
       224.000         165.000
 -10554510.74749  -8200069.31147  21436367.976    21436367.288    21436377.900
       239.000         194.000
  -5954993.22649  -4619720.82945  23899320.571    23899319.937    23899337.401
       214.000         149.000
  -4624598.53049  -3325973.64145  24972867.467    24972866.037    24972880.172
       211.000         139.000
     17848.61249     15898.40047  21011130.342    21011128.609    21011137.612
       241.000         204.000
   7350787.86049   5715184.26745  24759343.231    24759340.735    24759358.374
       205.000         134.000
  -9483563.08449  -7365261.28147  22029707.225    22029706.136    22029715.732
       238.000         196.000
 00  4 27 16  6 30.0000000  0  8G 2G26G 4G24G 5G 7G 8G 9
     41036.45449     32845.00947  21861382.950    21861381.335    21861391.458
       236.000         195.000
   3116747.57749   2426034.24246  23982896.358    23982895.079    23982907.745
       223.000         165.000
 -10657251.96349  -8280127.36647  21416816.961    21416816.282    21416826.841
       240.000         194.000
  -6090051.32949  -4724960.61545  23873619.625    23873619.071    23873636.521
       215.000         150.000
  -4735042.06349  -3412033.42845  24951850.932    24951849.423    24951863.557
       205.000         141.000
     32331.37049     27183.67147  21013886.347    21013884.620    21013893.622
       241.000         204.000
   7439536.85249   5784338.87645  24776232.035    24776229.535    24776247.242
       204.000         134.000
  -9574361.11349  -7436012.94447  22012428.908    22012427.819    22012437.430
       237.000         196.000
 00  4 27 16  7  0.0000000  0  8G 2G26G 4G24G 5G 7G 8G 9
     52405.95649     41704.29647  21863546.558    21863544.934    21863555.059
       236.000         195.000
   3163369.02349   2462362.50246  23991768.249    23991766.953    23991779.651
       223.000         164.000
 -10759547.90849  -8359838.45847  21397350.683    21397349.993    21397360.495
       240.000         194.000
  -6225029.58649  -4830138.18145  23847933.879    23847933.363    23847950.801
       214.000         149.000
  -4845534.97949  -3498131.73945  24930824.764    24930823.278    24930837.359
       214.000         135.000
     47108.89849     38698.64847  21016698.447    21016696.712    21016705.731
       240.000         204.000
   7528366.54149   5853556.39545  24793136.069    24793133.658    24793151.544
       205.000         132.000
  -9664692.22249  -7506400.76847  21995239.434    21995238.345    21995247.971
       238.000         196.000
 00  4 27 16  7 30.0000000  0  8G 2G26G 4G24G 5G 7G 8G 9
     64018.98749     50753.34447  21865756.516    21865754.874    21865764.985
       236.000         195.000
   3210150.91549   2498815.78146  24000670.639    24000669.374    24000682.095
       223.000         164.000
 -10861423.49349  -8439221.98947  21377964.386    21377963.690    21377974.155
       240.000         194.000
  -6359920.84749  -4935247.96445  23822264.742    23822264.218    23822281.628
       215.000         153.000
  -4956088.15249  -3584277.01145  24909787.333    24909785.711    24909799.692
       214.000         141.000
     62148.00749     50417.44547  21019560.328    21019558.587    21019567.603
       240.000         204.000
   7617265.90449   5922828.18144  24810053.312    24810050.992    24810068.873
       201.000         131.000
  -9754569.57449  -7576435.03247  21978136.297    21978135.222    21978144.845
       238.000         197.000
 00  4 27 16  8  0.0000000  0  8G 2G26G 4G24G 5G 7G 8G 9
     75913.78349     60021.94647  21868020.070    21868018.425    21868028.544
       236.000         195.000
   3257127.22249   2535420.56046  24009610.092    24009608.779    24009621.520
       221.000         164.000
 -10962855.97749  -8518260.23647  21358662.405    21358661.711    21358672.140
       240.000         194.000
  -6494705.47749  -5040274.65745  23796615.884    23796615.406    23796632.714
       216.000         152.000
  -5066668.55349  -3670443.38545  24888744.350    24888742.857    24888756.972
       207.000         135.000
     77454.56749     62344.64347  21022473.056    21022471.352    21022480.367
       241.000         204.000
   7706253.06949   5992168.40844  24826987.341    24826985.090    24827003.019
       203.000         128.000
  -9843988.85149  -7646112.35447  21961120.338    21961119.285    21961128.876
       238.000         197.000
 00  4 27 16  8 30.0000000  0  8G 2G26G 4G24G 5G 7G 8G 9
     88105.07149     69521.56347  21870340.080    21870338.410    21870348.519
       236.000         194.000
   3304314.54049   2572189.76446  24018589.692    24018588.340    24018601.111
       221.000         163.000
 -11063849.47249  -8596956.40947  21339443.932    21339443.256    21339453.665
       240.000         194.000
  -6629381.58449  -5145216.78645  23770987.737    23770987.214    23771004.420
       216.000         155.000
  -5177257.38449  -3756616.51145  24867700.026    24867698.576    24867712.510
       212.000         140.000
     93016.49749     74470.80547  21025434.396    21025432.700    21025441.713
       241.000         204.000
   7795319.28649   6061570.24144  24843936.365    24843934.130    24843952.292
       200.000         127.000
  -9932951.09549  -7715433.54847  21944191.383    21944190.316    21944199.896
       238.000         197.000
 00  4 27 16  9  0.0000000  0  8G 2G26G 4G24G 5G 7G 8G 9
    100602.41049     79259.67747  21872718.320    21872716.641    21872726.746
       236.000         194.000
   3351703.57449   2609116.12946  24027607.618    24027606.283    24027619.114
       221.000         163.000
 -11164395.51149  -8675303.90947  21320310.625    21320309.952    21320320.322
       240.000         194.000
  -6763954.72349  -5250078.68645  23745379.147    23745378.659    23745395.752
       217.000         155.000
  -5287843.30649  -3842787.24645  24846656.209    24846654.729    24846668.610
       210.000         136.000
    108816.33549     86782.37947  21028441.027    21028439.337    21028448.339
       241.000         204.000
   7884439.79349   6131014.38344  24860895.831    24860893.532    24860911.799
       200.000         124.000
 -10021469.60049  -7784408.96547  21927346.878    21927345.796    21927355.340
       238.000         197.000
 00  4 27 16  9 30.0000000  0  8G 2G26G 4G24G 5G 7G 8G 9
    113436.28049     89260.03447  21875160.596    21875158.907    21875169.004
       236.000         195.000
   3399312.48049   2646213.83846  24036667.404    24036666.079    24036678.923
       220.000         163.000
 -11264447.24349  -8753266.23347  21301271.392    21301270.716    21301281.059
       239.000         194.000
  -6898405.59949  -5354845.30845  23719793.873    23719793.351    23719810.342
       218.000         155.000
  -5398374.22249  -3928915.12245  24825622.674    24825621.298    24825635.233
       214.000         136.000
    124885.88849     99304.11147  21031498.963    21031497.291    21031506.281
       241.000         205.000
   7973637.48949   6200518.65744  24877870.008    24877867.589    24877886.020
       198.000         123.000
 -10109513.73549  -7853014.75147  21910592.614    21910591.532    21910601.057
       239.000         197.000
 00  4 27 16 10  0.0000000  0  8G 2G26G 4G24G 5G 7G 8G 9
    126584.64749     99505.44147  21877662.704    21877661.040    21877671.125
       236.000         194.000
   3447130.86249   2683474.75846  24045766.970    24045765.739    24045778.614
       220.000         163.000
 -11363997.58449  -8830837.85247  21282327.590    21282326.891    21282337.187
       240.000         195.000
  -7032737.56349  -5459519.30445  23694231.201    23694230.696    23694247.575
       219.000         157.000
  -5508838.94349  -4014991.50645  24804601.941    24804600.584    24804614.263
       211.000         137.000
    141248.95249    112054.55447  21034612.802    21034611.118    21034620.070
       242.000         204.000
   8062922.37249   6270090.90544  24894860.753    24894858.260    24894876.866
       197.000         122.000
 -10197070.32549  -7921240.63447  21893931.131    21893930.040    21893939.540
       239.000         198.000
 00  4 27 16 10 30.0000000  0  8G 2G26G 4G24G 5G 7G 8G 9
    140001.52649    109960.06647  21880215.910    21880214.252    21880224.348
       236.000         194.000
   3495108.21649   2720859.55845  24054896.805    24054895.617    24054908.578
       220.000         162.000
 -11463064.20449  -8908032.55247  21263475.806    21263475.108    21263485.378
       239.000         195.000
  -7166965.09849  -5564111.92145  23668688.407    23668687.871    23668704.688
       220.000         157.000
  -5619268.81449  -4101040.62445  24783587.915    24783586.444    24783600.242
       216.000         144.000
    157884.01149    125016.93747  21037778.321    21037776.660    21037785.595
       242.000         205.000
   8152275.63448   6339716.43844  24911864.450    24911861.816    24911880.695
       193.000         118.000
 -10284155.76649  -7989099.38647  21877359.313    21877358.222    21877367.687
       239.000         198.000
 00  4 27 16 11  0.0000000  0  8G 2G26G 4G24G 5G 7G 8G 9
    153687.56149    120624.43447  21882820.326    21882818.666    21882828.799
       236.000         194.000
   3543252.15649   2758374.15345  24064058.435    24064057.215    24064070.207
       221.000         162.000
 -11561622.82949  -8984831.41647  21244720.670    21244719.993    21244730.239
       239.000         195.000
  -7301056.24249  -5668598.27845  23643171.558    23643170.987    23643187.729
       219.000         158.000
  -5729661.76449  -4187061.05445  24762580.833    24762579.435    24762593.182
       208.000         134.000
    174827.73749    138219.83747  21041002.597    21041000.944    21041009.857
       241.000         204.000
   8241729.04149   6409420.01044  24928887.137    24928884.487    24928903.448
       196.000         117.000
 -10370760.20649  -8056583.34347  21860879.067    21860877.957    21860887.381
       239.000         197.000
 00  4 27 16 11 30.0000000  0  8G 2G26G 4G24G 5G 7G 8G 9
    167601.88349    131466.67847  21885468.217    21885466.554    21885476.683
       236.000         194.000
   3591542.37849   2796002.74045  24073247.832    24073246.634    24073259.663
       219.000         162.000
 -11659699.77749  -9061254.95647  21226057.193    21226056.535    21226066.757
       239.000         195.000
  -7435024.88349  -5772989.18245  23617678.059    23617677.450    23617694.089
       219.000         158.000
  -5840057.77849  -4273083.81245  24741573.033    24741571.704    24741585.449
       218.000         145.000
    192064.49849    151651.06547  21044282.663    21044281.010    21044289.910
       242.000         205.000
   8331264.39548   6479187.45744  24945925.409    24945922.838    24945941.838
       191.000         114.000
 -10456906.54549  -8123710.33247  21844485.959    21844484.850    21844494.235
       240.000         198.000
 00  4 27 16 12  0.0000000  0  8G 2G26G 4G24G 5G 7G 8G 9
    181746.60649    142488.46847  21888159.961    21888158.276    21888168.420
       236.000         194.000
   3639998.51849   2833760.60645  24082468.759    24082467.608    24082480.682
       218.000         160.000
 -11757291.30949  -9137300.24547  21207486.108    21207485.455    21207495.673
       239.000         194.000
  -7568857.09949  -5877273.78445  23592210.445    23592209.867    23592226.405
       220.000         159.000
  -5950470.98149  -4359120.00545  24720561.995    24720560.704    24720574.582
       205.000         137.000
    209583.17549    165301.96847  21047616.416    21047614.734    21047623.623
       242.000         204.000
   8420878.92648   6549016.60444  24962978.814    24962976.258    24962995.544
       192.000         111.000
 -10542592.53549  -8190478.60347  21828180.418    21828179.317    21828188.695
       239.000         198.000
 00  4 27 16 12 30.0000000  0  8G 2G26G 4G24G 5G 7G 8G 9
    196132.62249    153698.29247  21890897.597    21890895.921    21890906.099
       235.000         194.000
   3688626.32549   2871652.25145  24091722.448    24091721.256    24091734.382
       219.000         160.000
 -11854390.69849  -9212962.04247  21189008.666    21189008.012    21189018.225
       239.000         195.000
  -7702548.91249  -5981448.98445  23566769.530    23566769.002    23566785.446
       220.000         158.000
  -6060912.18749  -4445178.02545  24699545.445    24699544.281    24699558.277
       216.000         133.000
    227363.34649    179156.63347  21050999.927    21050998.238    21051007.082
       242.000         205.000
   8510559.16348   6618896.85644  24980044.595    24980042.260    24980061.730
       190.000         115.000
 -10627825.89449  -8256894.17347  21811960.985    21811959.921    21811969.285
       239.000         198.000
 00  4 27 16 13  0.0000000  0  8G 2G26G 4G24G 5G 7G 8G 9
    210778.39449    165110.52847  21893684.627    21893682.978    21893693.189
       235.000         194.000
   3737445.52749   2909693.01345  24101012.632    24101011.388    24101024.528
       222.000         161.000
 -11950993.92749  -9288237.21047  21170625.621    21170624.992    21170635.181
       239.000         195.000
  -7836110.06949  -6085522.37345  23541353.512    23541353.023    23541369.324
       219.000         159.000
  -6171369.87249  -4531248.90245  24678526.250    24678524.932    24678538.871
       210.000         141.000
    245417.28649    193224.61047  21054435.513    21054433.800    21054442.617
       242.000         204.000
   8600302.07948   6688826.05844  24997122.304    24997119.963    24997139.189
       189.000         111.000
 -10712593.59949  -8322946.89047  21795830.190    21795829.127    21795838.488
       239.000         199.000
 00  4 27 16 13 30.0000000  0  8G 2G26G 4G24G 5G 7G 8G 9
    225668.16749    176712.88847  21896518.128    21896516.462    21896526.702
       236.000         193.000
   3786427.74749   2947860.80645  24110333.802    24110332.513    24110345.654
       218.000         160.000
 -12047130.55849  -9363148.81747  21152331.385    21152330.768    21152340.931
       239.000         194.000
  -7969577.23649  -6189522.51245  23515955.429    23515954.924    23515971.100
       220.000         160.000
  -6281867.22349  -4617350.54045  24657499.019    24657497.798    24657512.030
       212.000         134.000
    263692.19149    207464.75247  21057913.174    21057911.442    21057920.227
       242.000         204.000
   8690070.84748   6758775.36844  25014204.882                    25014202.431
       184.000         106.000
 -10796904.28449  -8388643.50247  21779786.403    21779785.329    21779794.681
       240.000         199.000
 00  4 27 16 14  0.0000000  0  8G 2G26G 4G24G 5G 7G 8G 9
    240861.13749    188551.49847  21899409.301    21899407.657    21899417.901
       235.000         193.000
   3835595.69949   2986173.35245  24119690.273    24119688.991    24119702.131
       222.000         160.000
 -12142764.69149  -9437668.86847  21134132.741    21134132.154    21134142.308
       239.000         195.000
  -8102917.56249  -6293423.82145  23490581.452    23490580.963    23490597.062
       220.000         160.000
  -6392355.85349  -4703445.64945  24636473.763    24636472.502    24636486.407
       203.000         135.000
    282226.02749    221906.66247  21061440.098    21061438.356    21061447.117
       242.000         204.000
                   6828782.17844  25031301.647
       176.000          95.000
 -10880708.01749  -8453945.08447  21763839.073    21763837.990    21763847.350
       239.000         199.000
 00  4 27 16 14 30.0000000  0  8G 2G26G 4G24G 5G 7G 8G 9
    256357.86749    200626.79647  21902358.306    21902356.656    21902366.892
       235.000         193.000
   3884922.82849   3024609.90545  24129077.135    24129075.768    24129088.926
       221.000         161.000
 -12237902.67949  -9511802.31147  21116028.537    21116027.958    21116038.098
       239.000         195.000
  -8236144.99949  -6397237.15945  23465228.925    23465228.437    23465244.486
       219.000         161.000
  -6502832.32749  -4789530.99845  24615450.846    24615449.396    24615463.547
       214.000         145.000
    301021.43149    236552.39647  21065016.781    21065015.034    21065023.779
       242.000         204.000
                   6898836.92953  25048410.190
       167.000          92.000
 -10964018.39049  -8518862.23847  21747985.607    21747984.551    21747993.902
       239.000         199.000
 00  4 27 16 15  0.0000000  0  8G 2G26G 4G24G 5G 7G 8G 9
    272157.67649    212938.24947  21905365.023    21905363.338    21905373.574
       235.000         194.000
   3934397.85349   3063161.70745  24138492.113    24138490.715    24138503.895
       221.000         158.000
 -12332546.18449  -9585550.45047  21098018.450    21098017.861    21098027.990
       239.000         195.000
  -8369265.62849  -6500967.25945  23439896.735    23439896.233    23439912.238
       218.000         161.000
  -6613300.69949  -4875610.27145  24594429.266    24594427.925    24594441.914
       204.000         133.000
    320083.43449    251405.87247  21068644.183    21068642.438    21068651.181
       242.000         204.000
                     25305.44153  25065527.768
       166.000          74.000
 -11046838.74849  -8583397.55747  21732225.415    21732224.336    21732233.693
       240.000         200.000
 00  4 27 16 15 29.9990000  0  7G 2G26G 4G24G 5G 7G 9
    288271.30249    225494.22347  21908431.439    21908429.733    21908439.953
       236.000         194.000
   3984011.88049   3101821.79645  24147933.552    24147932.152    24147945.285
       221.000         160.000
 -12426684.26049  -9658904.75047  21080104.559    21080103.953    21080114.082
       238.000         195.000
  -8502250.65849  -6604591.70445  23414590.400    23414589.875    23414605.836
       219.000         161.000
  -6723760.95549  -4961683.05545  24573409.177    24573407.849    24573421.928
       217.000         144.000
    339400.96649    266458.46047  21072320.184    21072318.465    21072327.213
       242.000         204.000
 -11129160.79049  -8647544.57447  21716560.049    21716558.958    21716568.317
       240.000         199.000
 00  4 27 16 15 59.9990000  0  7G 2G26G 4G24G 5G 7G 9
    304740.03249    238326.92347  21911565.424    21911563.721    21911573.935
       236.000         194.000
   4033799.65549   3140617.30945  24157407.971    24157406.606    24157419.752
       219.000         158.000
 -12520279.21149  -9731835.82047  21062294.014    21062293.395    21062303.506
       239.000         195.000
  -8635066.40049  -6708084.20945  23389316.216    23389315.721    23389331.599
       221.000         162.000
  -6834178.55049  -5047722.66545  24552397.397    24552396.130    24552410.115
       216.000         140.000
    359018.85649    281745.11747  21076053.335    21076051.644    21076060.378
       242.000         204.000
 -11210963.36549  -8711286.79647  21700993.515    21700992.418    21701001.775
       240.000         200.000
 00  4 27 16 16 29.9990000  0  7G 2G26G 4G24G 5G 7G 9
    321510.98649    251395.09947  21914756.934    21914755.213    21914765.433
       235.000         194.000
   4083723.83449   3179519.08945  24166908.289    24166906.998    24166920.153
       216.000         159.000
 -12613369.44949  -9804373.62247  21044579.508    21044578.875    21044588.964
       239.000         195.000
  -8767748.44249  -6811472.55745  23364067.569    23364066.999    23364082.817
       219.000         162.000
  -6944596.59749  -5133762.61545  24531385.410    24531384.140    24531398.075
       212.000         137.000
    378878.68849    297220.29247  21079832.559    21079830.850    21079839.581
       242.000         204.000
 -11292286.53549  -8774655.45647  21685518.209    21685517.114    21685526.470
       240.000         200.000
 00  4 27 16 16 59.9990000  0  7G 2G26G 4G24G 5G 7G 9
    338591.47349    264704.47247  21918007.309    21918005.595    21918015.816
       235.000         194.000
   4133794.48449   3218535.01145  24176436.506    24176435.259    24176448.449
       218.000         159.000
 -12705957.98949  -9876520.47947  21026960.476    21026959.825    21026969.899
       239.000         195.000
  -8900281.45049  -6914744.75345  23338847.201    23338846.630    23338862.405
       218.000         162.000
  -7055022.40549  -5219808.59445  24510372.072    24510370.795    24510384.778
       208.000         143.000
    398960.74049    312868.61147  21083654.097    21083652.379    21083661.107
       242.000         204.000
 -11373106.57649  -8837632.08447  21670138.666    21670137.560    21670146.899
       240.000         200.000
 00  4 27 16 17 29.9990000  0  7G 2G26G 4G24G 5G 7G 9
    356018.89149    278284.20047  21921323.732    21921322.000    21921332.231
       235.000         195.000
   4184041.36649   3257688.25145  24185998.369    24185997.041    24186010.228
       219.000         159.000
 -12798020.54149  -9948257.47847  21009441.513    21009440.865    21009450.904
       239.000         195.000
  -9032626.10049  -7017870.19045  23313662.649    23313662.115    23313677.838
       219.000         162.000
  -7165419.66349  -5305832.36945  24489364.087    24489362.795    24489376.725
       215.000         140.000
    419292.01049    328711.12247  21087523.091    21087521.340    21087530.055
       242.000         204.000
 -11453385.81049  -8900187.30647  21654862.034    21654860.946    21654870.243
       241.000         200.000
 00  4 27 16 17 59.9990000  0  7G 2G26G 4G24G 5G 7G 9
    373759.01449    292107.58547  21924699.678    21924697.930    21924708.156
       236.000         195.000
   4234447.51749   3296965.59145  24195590.520    24195589.160    24195602.369
       217.000         159.000
 -12889567.90649 -10019593.04647  20992020.622    20992019.957    20992029.957
       239.000         195.000
  -9164801.79649  -7120863.97745  23288510.207    23288509.745    23288525.399
       220.000         162.000
  -7275786.77649  -5391832.61845  24468361.898    24468360.680    24468374.444
       211.000         140.000
    439874.89849    344749.68647  21091439.939    21091438.163    21091446.860
       242.000         203.000
 -11533145.10849  -8962337.38747  21639684.337    21639683.249    21639692.517
       240.000         200.000
 00  4 27 16 18 29.9990000  0  7G 2G26G 4G24G 5G 7G 9
    391789.76349    306157.43247  21928130.920    21928129.167    21928139.393
       236.000         195.000
   4284998.09549   3336355.46845  24205210.067    24205208.789    24205222.015
       216.000         158.000
 -12980617.90249 -10090541.05347  20974694.375    20974693.692    20974703.651
       239.000         195.000
  -9296822.99249  -7223737.38346  23263387.224    23263386.754    23263402.358
       220.000         163.000
  -7386136.89749  -5477819.57245  24447362.971    24447361.702    24447375.501
       214.000         143.000
    460692.16749    360970.88647  21095401.393    21095399.607    21095408.280
       242.000         203.000
 -11612398.05149  -9024092.89847  21624602.981    21624601.898    21624611.150
       241.000         200.000
 00  4 27 16 18 59.9990000  0  7G 2G26G 4G24G 5G 7G 9
    410112.96549    320435.15647  21931617.793    21931616.041    21931626.286
       235.000         195.000
   4335689.76849   3375855.30545  24214856.756    24214855.276    24214868.493
       216.000         158.000
 -13071167.66949 -10161099.27247  20957463.300    20957462.619    20957472.534
       239.000         195.000
  -9428675.70949  -7326479.51246  23238296.333    23238295.851    23238311.396
       221.000         163.000
  -7496459.49049  -5563785.15845  24426368.976    24426367.782    24426381.739
       212.000         139.000
    481771.01949    377395.91847  21099412.623    21099410.826    21099419.474
       241.000         203.000
 -11691151.54849  -9085459.23947  21609616.684    21609615.591    21609624.804
       241.000         200.000
 00  4 27 16 19 29.9990000  0  7G 2G26G 4G24G 5G 7G 9
    428724.24849    334937.36847  21935159.455    21935157.733    21935167.993
       235.000         194.000
   4386521.62649   3415464.35945  24224529.837    24224528.382    24224541.682
       213.000         157.000
 -13161185.55849 -10231243.04547  20940333.410    20940332.750    20940342.633
       239.000         196.000
  -9560340.33549  -7429075.09146  23213241.256    23213240.737    23213256.223
       220.000         163.000
  -7606715.11749  -5649698.52345  24405387.879    24405386.703    24405400.717
       214.000         144.000
    503159.91849    394062.54847  21103482.875    21103481.060    21103489.684
       242.000         203.000
 -11769393.01149  -9146426.58747  21594727.798    21594726.729    21594735.892
       241.000         200.000
 00  4 27 16 19 59.9990000  0  7G 2G26G 4G24G 5G 7G 9
    447592.05549    349639.45947  21938749.954    21938748.227    21938758.512
       236.000         194.000
   4437477.11149   3455169.75045  24234226.489    24234225.011    24234238.325
       214.000         156.000
 -13250665.94749 -10300967.98247  20923305.798    20923305.162    20923315.021
       239.000         197.000
  -9691838.05549  -7531540.64146  23188217.954    23188217.391    23188232.790
       220.000         164.000
  -7716922.08449  -5735573.98645  24384416.005    24384414.936    24384428.934
       209.000         140.000
    524827.40249    410946.24147  21107606.101    21107604.291    21107612.904
       242.000         203.000
 -11847132.59249  -9207002.86847  21579934.476    21579933.389    21579942.483
       242.000         201.000
 00  4 27 16 20 29.9990000  0  7G 2G26G 4G24G 5G 7G 9
    466727.48449    364550.07747  21942391.333    21942389.649    21942399.958
       235.000         194.000
   4488571.46549   3494983.35445  24243949.543    24243948.100    24243961.420
       214.000         156.000
 -13339605.07449 -10370271.16647  20906381.242    20906380.586    20906390.412
       239.000         197.000
  -9823160.53449  -7633869.64046  23163227.936    23163227.353    23163242.682
       220.000         164.000
  -7827097.21749  -5821424.63945  24363450.410    24363449.257    24363463.181
       216.000         144.000
    546764.10049    428039.71147  21111780.575    21111778.773    21111787.369
       242.000         203.000
 -11924348.56149  -9267171.13847  21565240.765    21565239.670    21565248.732
       243.000         201.000
 00  4 27 16 20 59.9990000  0  7G 2G26G 4G24G 5G 7G 9
    486116.22349    379658.08447  21946080.961    21946079.275    21946089.621
       235.000         194.000
   4539786.36449   3534890.87945  24253695.589    24253694.107    24253707.490
       213.000         154.000
 -13427997.76249 -10439148.55447  20889560.665    20889560.013    20889569.798
       240.000         197.000
  -9954317.49949  -7736069.67546  23138269.378    23138268.845    23138284.097
       220.000         163.000
  -7937263.10049  -5907268.09445  24342486.665    24342485.392    24342499.273
       215.000         141.000
    568957.78149    445333.43847  21116003.940    21116002.158    21116010.736
       242.000         203.000
 -12001040.77649  -9326931.29447  21550646.727    21550645.622    21550654.659
       243.000         201.000
 00  4 27 16 21 29.9990000  0  7G 2G26G 4G24G 5G 7G 9
    505789.17649    394987.56347  21949824.682    21949822.988    21949833.353
       235.000         194.000
   4591142.34449   3574908.32745  24263468.359    24263466.976    24263480.402
       213.000         156.000
 -13515799.09549 -10507565.13447  20872852.617    20872851.964    20872861.723
       240.000         198.000
 -10085296.83149  -7838131.30946  23113344.667    23113344.127    23113359.320
       220.000         164.000
  -8047401.63649  -5993090.25945  24321527.979    24321526.682    24321540.354
       219.000         143.000
    591418.00249    462834.87147  21120277.996    21120276.217    21120284.803
       241.000         203.000
 -12077172.59749  -9386254.77947  21536159.286    21536158.193    21536167.218
       242.000         201.000
 00  4 27 16 21 59.9990000  0  7G 2G26G 4G24G 5G 7G 9
    525873.54749    410637.63547  21953646.699    21953645.003    21953655.389
       235.000         194.000
   4642751.05249   3615122.70345  24273289.406    24273287.982    24273301.361
       215.000         156.000
 -13602913.32449 -10575446.31247  20856275.302    20856274.655    20856284.385
       240.000         198.000
 -10216003.38749  -7939980.39646  23088471.857    23088471.327    23088486.439
       221.000         164.000
  -8157426.19749  -6078823.53445  24300590.984    24300589.636    24300603.371
       215.000         144.000
    614226.21549    480607.47447  21124618.258    21124616.496    21124625.121
       242.000         203.000
 -12152650.84849  -9445068.97847  21521796.258    21521795.166    21521804.154
       243.000         201.000
 00  4 27 16 22 29.9990000  0  7G 2G26G 4G24G 5G 7G 9
    546247.74949    426513.54247  21957523.861    21957522.173    21957532.574
       234.000         193.000
   4694448.72449   3655406.39345  24283127.272    24283125.860    24283139.315
       213.000         156.000
 -13689515.31449 -10642928.33447  20839795.464    20839794.821    20839804.524
       240.000         198.000
 -10346568.39149  -8041719.19446  23063626.070    23063625.460    23063640.502
       222.000         165.000
  -8267468.19249  -6164570.48545  24279650.667    24279649.323    24279662.829
       216.000         145.000
    637249.53449    498547.67847  21128999.450    21128997.716    21129006.351
       242.000         203.000
 -12227626.46749  -9503491.52547  21507528.867    21507527.777    21507536.744
       243.000         201.000
 00  4 27 16 22 59.9990000  0  7G 2G26G 4G24G 5G 7G 9
    566917.75149    442619.92847  21961457.287    21961455.608    21961466.030
       234.000         193.000
   4746208.01649   3695738.06645  24292976.868    24292975.461    24292988.968
       216.000         156.000
 -13775610.10649 -10710015.15147  20823412.155    20823411.502    20823421.215
       240.000         199.000
 -10476990.95649  -8143347.01546  23038807.319    23038806.741    23038821.689
       223.000         165.000
  -8377510.21249  -6250317.37645  24258710.105    24258708.890    24258722.361
       216.000         146.000
    660488.42949    516655.87147  21133421.702    21133419.978    21133428.612
       241.000         202.000
 -12302113.99549  -9561533.74847  21493354.372    21493353.278    21493362.230
       243.000         202.000
 00  4 27 16 23 29.9990000  0  7G 2G26G 4G24G 5G 7G 9
    587942.17149    459002.49947  21965458.176    21965456.501    21965466.949
       234.000         193.000
   4798074.41149   3736153.19745  24302846.927    24302845.407    24302858.991
       217.000         157.000
 -13861170.90649 -10776685.86647  20807130.472    20807129.803    20807139.489
       240.000         199.000
 -10607209.37249  -8244815.76446  23014027.449    23014026.849    23014041.715
       223.000         166.000
  -8487488.73849  -6336014.81245  24237781.909    24237780.636    24237794.009
       219.000         145.000
    683981.31949    534961.97647  21137892.315    21137890.574    21137899.207
       241.000         202.000
 -12376075.46549  -9619166.04347  21479279.927    21479278.868    21479287.795
       243.000         201.000
 00  4 27 16 23 59.9990000  0  7G 2G26G 4G24G 5G 7G 9
    609276.09049    475626.23547  21969517.941    21969516.281    21969526.760
       234.000         193.000
   4850016.80849   3776627.55145  24312731.408    24312729.874    24312743.512
       215.000         157.000
 -13946246.17049 -10842978.23647  20790941.140    20790940.490    20790950.189
       241.000         199.000
 -10737231.43349  -8346131.51946  22989284.991    22989284.330    22989299.104
       224.000         165.000
  -8597430.71749  -6421683.76345  24216860.372    24216859.230    24216872.664
       216.000         147.000
    707690.15149    553436.35547  21142403.986    21142402.265    21142410.902
       241.000         202.000
 -12449542.20449  -9676412.83947  21465299.603    21465298.584    21465307.511
       242.000         202.000
 00  4 27 16 24 29.9990000  0  7G 2G26G 4G24G 5G 7G 9
    630911.21149    492484.66747  21973635.020    21973633.373    21973643.883
       234.000         193.000
   4902035.45049   3817161.30445  24322630.303    24322628.852    24322642.495
       215.000         157.000
 -14030813.92749 -10908875.14847  20774848.403    20774847.764    20774857.445
       240.000         199.000
 -10867042.67449  -8447283.01646  22964582.676    22964581.957    22964596.624
       224.000         166.000
  -8707339.69949  -6507327.02745  24195945.355    24195944.229    24195957.650
       216.000         146.000
    731623.12949    572085.38247  21146958.337    21146956.601    21146965.260
       241.000         203.000
 -12522491.24249  -9733256.24447  21451417.830    21451416.824    21451425.763
       242.000         202.000
 00  4 27 16 24 59.9990000  0  7G 2G26G 4G24G 5G 7G 9
    652833.38349    509566.77347  21977806.772    21977805.105    21977815.641
       234.000         192.000
   4954139.32449   3857761.45645  24332545.342    24332543.993    24332557.699
       218.000         157.000
 -14114846.32749 -10974354.89947  20758857.539    20758856.897    20758866.578
       240.000         199.000
 -10996656.00649  -8548280.28146  22939917.976    22939917.236    22939931.825
       224.000         165.000
  -8817232.48749  -6592957.62745  24175033.320    24175032.188    24175045.577
       217.000         148.000
    755778.28449    590907.54647  21151554.972    21151553.238    21151561.905
       241.000         203.000
 -12594926.55549  -9789699.35447  21437633.861    21437632.847    21437641.793
       242.000         202.000
 00  4 27 16 25 29.9990000  0  7G 2G26G 4G24G 5G 7G 9
    675025.24349    526859.02947  21982029.849    21982028.168    21982038.711
       234.000         193.000
   5006316.81549   3898418.97245  24342474.521    24342473.205    24342486.981
       216.000         158.000
 -14198338.93049 -11039414.03247  20742969.409    20742968.765    20742978.423
       241.000         200.000
 -11126074.76049  -8649125.94546  22915290.294    22915289.566    22915304.050
       225.000         166.000
  -8927137.71549  -6678597.92345  24154119.084    24154117.855    24154131.234
       213.000         146.000
    780133.50849    609885.60447  21156189.656    21156187.930    21156196.612
       241.000         203.000
 -12666847.35649  -9845741.54047  21423947.798    21423946.768    21423955.736
       243.000         202.000
 00  4 27 16 25 59.9990000  0  7G 2G26G 4G24G 5G 7G 9
    697516.22049    544384.36347  21986309.878    21986308.166    21986318.697
       235.000         192.000
   5058598.20449   3939157.45245  24352423.511    24352422.171    24352435.993
       218.000         158.000
 -14281240.10649 -11104012.31747  20727193.812    20727193.179    20727202.809
       240.000         200.000
 -11255279.74349  -8749805.04846  22890703.274    22890702.573    22890716.999
       224.000         166.000
  -9037038.57349  -6764234.83745  24133205.607    24133204.376    24133217.605
       216.000         147.000
    804732.48149    629053.59247  21160870.673    21160868.977    21160877.700
       241.000         202.000
 -12738203.85249  -9901344.01647  21410369.144    21410368.100    21410377.050
       243.000         203.000
 00  4 27 16 26 29.9990000  0  7G 2G26G 4G24G 5G 7G 9
    720297.53949    562135.92947  21990645.087    21990643.380    21990653.926
       234.000         191.000
   5110955.43049   3979955.00945  24362386.884    24362385.557    24362399.486
       218.000         159.000
 -14363558.08749 -11168156.16447  20711529.218    20711528.568    20711538.188
       241.000         200.000
 -11384307.44949  -8850345.99646  22866149.980    22866149.294    22866163.700
       225.000         167.000
  -9146959.38149  -6849887.28045  24112288.378    24112287.108    24112300.302
       215.000         149.000
    829562.49149    648401.59347  21165595.668    21165593.993    21165602.735
       241.000         202.000
 -12809021.06949  -9956526.28347  21396893.117    21396892.048    21396900.996
       243.000         202.000
 00  4 27 16 26 59.9990000  0  7G 2G26G 4G24G 5G 7G 9
    743378.90649    580121.30947  21995037.385    21995035.697    21995046.259
       234.000         192.000
   5163395.57749   4020817.18145  24372366.178    24372364.780    24372378.764
       221.000         159.000
 -14445289.98249 -11231843.31847  20695976.130    20695975.494    20695985.084
       241.000         200.000
 -11513134.34149  -8950730.44946  22841634.901    22841634.217    22841648.600
       226.000         168.000
  -9256875.38449  -6935535.98345  24091371.960    24091370.709    24091383.833
       218.000         148.000
    854633.04549    667937.03647  21170366.455    21170364.787    21170373.564
       241.000         202.000
 -12879298.62849 -10011288.01947  21383519.745    21383518.676    21383527.624
       243.000         202.000
 00  4 27 16 27 29.9990000  0  7G 2G26G 4G24G 5G 7G 9
    766724.31749    598312.43547  21999479.919    21999478.238    21999488.838
       233.000         191.000
   5215884.09949   4061717.04745  24382354.734    24382353.245    24382367.210
       218.000         157.000
 -14526475.25949 -11295104.54647  20680527.111    20680526.449    20680536.015
       241.000         201.000
 -11641780.16149  -9050973.82246  22817154.358    22817153.615    22817167.959
       225.000         168.000
  -9366815.98449  -7021203.85445  24070450.860    24070449.612    24070462.703
       218.000         152.000
    879906.12049    687630.29747  21175175.801    21175174.132    21175182.919
       240.000         202.000
 -12949072.71249 -10065657.43847  21370242.204    21370241.116    21370250.048
       243.000         202.000
 00  4 27 16 27 59.9990000  0  7G 2G26G 4G24G 5G 7G 9
    790359.23749    616729.14247  22003977.598    22003975.906    22003986.518
       234.000         191.000
   5268460.80549   4102685.63745  24392359.891    24392358.430    24392372.461
       216.000         157.000
 -14607095.13149 -11357925.19547  20665185.650    20665185.000    20665194.535
       241.000         201.000
 -11770222.41349  -9151058.55646  22792712.517    22792711.791    22792726.047
       226.000         170.000
  -9476740.59249  -7106859.29245  24049532.896    24049531.648    24049544.664
       219.000         150.000
    905414.00349    707506.51747  21180029.821    21180028.144    21180036.943
       241.000         202.000
 -13018336.42149 -10119629.16447  21357061.787    21357060.696    21357069.616
       243.000         202.000
 00  4 27 16 28 29.9990000  0  7G 2G26G 4G24G 5G 7G 9
    814252.51449    635347.17447  22008524.433    22008522.741    22008533.370
       233.000         190.000
   5321085.85149   4143691.87645  24402374.395    24402372.877    24402386.973
       217.000         156.000
 -14687187.22349 -11420334.57647  20649944.623    20649943.988    20649953.490
       241.000         201.000
 -11898474.69549  -9250995.27246  22768306.797    22768306.089    22768320.311
       225.000         169.000
  -9586673.53249  -7192521.20845  24028613.273    24028612.075    24028625.004
       217.000         152.000
    931105.20849    727525.57947  21184918.762    21184917.066    21184925.856
       240.000         202.000
 -13087137.73249 -10173240.58147  21343969.346    21343968.253    21343977.161
       244.000         202.000
 00  4 27 16 28 59.9990000  0  7G 2G26G 4G24G 5G 7G 9
    838400.71649    654163.83347  22013119.793    22013118.094    22013128.726
       233.000         191.000
   5373757.14049   4184734.15145  24412397.561    24412396.113    24412410.216
       218.000         154.000
 -14766758.57249 -11482338.18847  20634802.706    20634802.038    20634811.536
       241.000         201.000
 -12026512.89549  -9350765.14546  22743941.816    22743941.142    22743955.274
       225.000         171.000
  -9696605.94749  -7278182.68845  24007693.518    24007692.459    24007705.463
       216.000         150.000
    956968.68449    747678.90947  21189840.467    21189838.759    21189847.565
       241.000         202.000
 -13155461.20949 -10226479.66247  21330967.785    21330966.733    21330975.618
       243.000         202.000
 00  4 27 16 29 29.9990000  0  7G 2G26G 4G24G 5G 7G 9
    862802.55949    673178.14347  22017763.408    22017761.712    22017772.350
       233.000         190.000
   5426467.01049   4225806.50245  24422428.076    24422426.634    24422440.821
       220.000         156.000
 -14845820.81049 -11543945.09447  20619757.618    20619756.971    20619766.463
       240.000         201.000
 -12154369.19249  -9450393.26446  22719611.422    22719610.769    22719624.873
       225.000         170.000
  -9806549.49749  -7363852.84945  23986771.738    23986770.773    23986783.792
       215.000         151.000
    982986.46949    767952.46747  21194791.505    21194789.813    21194798.643
       240.000         202.000
 -13223300.58449 -10279341.52347  21318058.415    21318057.354    21318066.220
       244.000         203.000
 00  4 27 16 29 59.9990000  0  7G 2G26G 4G24G 5G 7G 9
    887474.12849    692402.62347  22022458.325    22022456.638    22022467.325
       233.000         190.000
   5479221.43349   4266913.57045  24432467.140    24432465.648    24432479.888
       219.000         154.000
 -14924366.64849 -11605149.61347  20604810.863    20604810.204    20604819.668
       241.000         201.000
 -12282030.40949  -9549869.38546  22695318.169    22695317.513    22695331.606
       224.000         170.000
  -9916480.69249  -7449513.37645  23965852.382    23965851.422    23965864.478
       219.000         153.000
   1009171.28949    788356.17047  21199774.328    21199772.655    21199781.502
       240.000         202.000
 -13290616.08449 -10331795.17847  21305248.701    21305247.642    21305256.484
       244.000         203.000
 00  4 27 16 30 29.9990000  0  7G 2G26G 4G24G 5G 7G 9
    912436.78249    711853.93247  22027208.619    22027206.947    22027217.665
       233.000         190.000
   5532025.25649   4308059.11945  24442515.687    24442514.111    24442528.378
       218.000         152.000
 -15002369.06149 -11665930.67647  20589967.483    20589966.826    20589976.282
       241.000         200.000
 -12409472.83649  -9649175.01446  22671066.572    22671065.915    22671079.983
       224.000         170.000
 -10026372.13149  -7535142.96245  23944940.775    23944939.704    23944952.701
       215.000         154.000
   1035556.76049    808916.23847  21204795.339    21204793.674    21204802.550
       240.000         202.000
 -13357358.00949 -10383801.88847  21292548.196    21292547.115    21292555.937
       244.000         203.000
 00  4 27 16 30 59.9990000  0  7G 2G26G 4G24G 5G 7G 9
    937673.28149    731518.62247  22032011.083    22032009.392    22032020.128
       232.000         189.000
   5584873.29649   4349239.10745  24452572.540    24452570.946    24452585.291
       218.000         152.000
 -15079833.70649 -11726292.68947  20575226.432    20575225.774    20575235.218
       241.000         200.000
 -12536728.28749  -9748334.92546  22646850.611    22646849.937    22646863.954
       224.000         170.000
 -10136228.72749  -7620745.37045  23924035.644    23924034.634    23924047.591
       214.000         153.000
   1062146.13149    829635.19047  21209855.158    21209853.493    21209862.387
       240.000         202.000
 -13423531.65749 -10435365.77747  21279955.809    21279954.723    21279963.535
       244.000         203.000
 00  4 27 16 31 29.9990000  0  7G 2G26G 4G24G 5G 7G 9
    963197.66649    751407.63747  22036868.313    22036866.615    22036877.363
       233.000         190.000
   5637777.96249   4390463.21845  24462640.160    24462638.549    24462652.991
       217.000         151.000
 -15156740.82949 -11786220.27647  20560591.481    20560590.829    20560600.230
       241.000         200.000
 -12663801.10249  -9847352.51946  22622669.399    22622668.682    22622682.653
       224.000         170.000
 -10246043.67449  -7706315.33845  23903138.549    23903137.419    23903150.388
       217.000         152.000
   1088947.16749    850519.05947  21214955.289    21214953.602    21214962.515
       240.000         202.000
 -13489144.70149 -10486492.84547  21267470.111    21267469.006    21267477.801
       244.000         203.000
 00  4 27 16 31 59.9990000  0  7G 2G26G 4G24G 5G 7G 9
    988998.06049    771511.71147  22041778.079    22041776.376    22041787.144
       232.000         190.000
   5690717.00649   4431714.13945  24472714.420    24472712.730    24472727.234
       217.000         151.000
 -15233079.15949 -11845704.64847  20546064.773    20546064.122    20546073.470
       241.000         201.000
 -12790670.32749  -9946211.46846  22598526.852    22598526.144    22598540.105
       224.000         171.000
 -10355832.73249  -7791865.12845  23882246.505    23882245.260    23882258.104
       216.000         153.000
   1115958.74549    871567.00247  21220095.454    21220093.770    21220102.713
       240.000         202.000
 -13554211.67549 -10537194.40847  21255088.297    21255087.180    21255095.955
       243.000         203.000
 00  4 27 16 32 29.9990000  0  7G 2G26G 4G24G 5G 7G 9
   1015083.76449    791838.11547  22046742.116    22046740.420    22046751.207
       232.000         189.000
   5743692.44049   4472993.36345  24482795.418    24482793.829    24482808.384
       218.000         151.000
 -15308834.88349 -11904735.05447  20531648.908    20531648.258    20531657.576
       241.000         200.000
 -12917330.83349 -10044907.78646  22574424.093    22574423.351    22574437.283
       225.000         171.000
 -10465602.15249  -7877399.63845  23861357.983    23861356.780    23861369.591
       216.000         154.000
   1143176.16149    892775.33547  21225274.799    21225273.129    21225282.075
       240.000         202.000
 -13618743.18249 -10587478.72747  21242808.330    21242807.260    21242816.016
       243.000         203.000
 00  4 27 16 32 59.9990000  0  7G 2G26G 4G24G 5G 7G 9
   1041442.17849    812377.00947  22051758.095    22051756.369    22051767.177
       232.000         189.000
   5796682.47349   4514284.00545  24492879.306    24492877.733    24492892.376
       213.000         151.000
 -15384038.22149 -11963335.02747  20517338.178    20517337.519    20517346.828
       241.000         200.000
 -13043801.11049 -10143455.86246  22550357.483    22550356.742    22550370.626
       224.000         171.000
 -10575391.67049  -7962949.80045  23840465.625    23840464.457    23840477.237
       214.000         152.000
   1170547.35049    914103.49747  21230483.434    21230481.742    21230490.690
       240.000         202.000
 -13682778.70149 -10637376.56147  21230622.785    21230621.716    21230630.454
       243.000         202.000
 00  4 27 16 33 29.9990000  0  7G 2G26G 4G24G 5G 7G 9
   1068078.33349    833132.31147  22056826.922    22056825.179    22056836.008
       232.000         190.000
   5849678.86449   4555579.57745  24502964.448    24502962.850    24502977.524
       218.000         151.000
 -15458694.37649 -12021508.62847  20503131.557    20503130.930    20503140.207
       241.000         200.000
 -13170060.98049 -10241840.00046  22526330.905    22526330.153    22526344.030
       224.000         171.000
 -10685215.48849  -8048526.67845  23819566.707    23819565.598    23819578.360
       215.000         153.000
   1198061.95949    935543.40247  21235719.359    21235717.647    21235726.590
       240.000         202.000
 -13746303.76949 -10686876.64247  21218534.417    21218533.324    21218542.038
       243.000         202.000
 00  4 27 16 33 59.9990000  0  7G 2G26G 4G24G 5G 7G 9
   1094980.73949    854095.09147  22061946.390    22061944.657    22061955.487
       232.000         189.000
   5902669.12849   4596870.38245  24513048.387    24513046.867    24513061.549
       220.000         152.000
 -15532820.96749 -12079269.57347  20489025.735    20489025.094    20489034.375
       240.000         200.000
 -13296111.16549 -10340060.71646  22502344.231    22502343.481    22502357.295
       226.000         173.000
 -10795085.88949  -8134139.84845  23798658.934    23798657.837    23798670.650
       215.000         153.000
   1225719.51149    957094.68547  21240982.461    21240980.747    21240989.704
       240.000         202.000
 -13809309.62449 -10735972.13947  21206544.853    21206543.737    21206552.452
       243.000         202.000
 00  4 27 16 34 29.9990000  0  7G 2G26G 4G24G 5G 7G 9
   1122145.21949    875262.08147  22067115.739    22067113.986    22067124.820
       233.000         189.000
   5955667.86649   4638167.77045  24523134.111    24523132.445    24523147.184
       218.000         152.000
 -15606430.16349 -12136627.35247  20475018.344    20475017.713    20475026.993
       240.000         200.000
 -13421956.27649 -10438121.66046  22478396.555    22478395.850    22478409.614
       225.000         174.000
 -10904982.88249  -8219773.75045  23777746.284    23777745.097    23777757.852
       215.000         153.000
   1253526.98149    978762.78447  21246274.112    21246272.389    21246281.338
       240.000         202.000
 -13871800.59249 -10784666.42247  21194653.234    21194652.124    21194660.840
       244.000         202.000
 00  4 27 16 34 59.9990000  0  7G 2G26G 4G24G 5G 7G 9
   1149597.36449    896653.22847  22072339.773    22072338.056    22072348.906
       232.000         188.000
   6008706.24449   4679496.05345  24533227.130    24533225.533    24533240.456
       216.000         150.000
 -15679480.64349 -12193549.76947  20461117.239    20461116.624    20461125.948
       240.000         200.000
 -13547555.82149 -10535991.26546  22454495.630    22454494.926    22454508.627
       226.000         174.000
 -11014870.87749  -8305400.63645  23756835.231    23756834.025    23756846.755
       215.000         154.000
   1281527.94049   1000581.66047  21251602.537    21251600.832    21251609.789
       240.000         202.000
 -13933744.27049 -10832934.23747  21182865.739    21182864.648    21182873.387
       243.000         202.000
 00  4 27 16 35 29.9990000  0  7G 2G26G 4G24G 5G 7G 9
   1177307.83649    918245.66947  22077612.975    22077611.270    22077622.142
       231.000         188.000
   6061758.05849   4720834.80145  24543322.703    24543321.166    24543336.177
       219.000         150.000
 -15751972.39249 -12250036.82347  20447322.482    20447321.872    20447331.217
       240.000         200.000
 -13672914.67649 -10633673.30546  22430640.523    22430639.814    22430653.465
       227.000         176.000
 -11124763.43649  -8391031.05745  23735923.349    23735922.047    23735934.816
       215.000         155.000
   1309724.36449   1022552.84447  21256968.110    21256966.455    21256975.436
       240.000         202.000
 -13995151.22049 -10880783.83247  21171180.339    21171179.278    21171188.036
       243.000         202.000
 00  4 27 16 35 59.9990000  0  7G 2G26G 4G24G 5G 7G 9
   1205270.70049    940034.78947  22082934.198    22082932.526    22082943.425
       232.000         188.000
   6114813.84749   4762176.64545  24553419.225    24553417.648    24553432.678
       217.000         151.000
 -15823900.27249 -12306084.49247  20433635.007    20433634.409    20433643.774
       240.000         200.000
 -13798033.56149 -10731168.36746  22406831.092    22406830.362    22406843.976
       227.000         176.000
 -11234654.61649  -8476660.43045  23715011.522    23715010.378    23715023.137
       214.000         153.000
   1338120.63949   1044679.75847  21262371.759    21262370.107    21262379.112
       240.000         202.000
 -14056045.16949 -10928233.68047  21159592.604    21159591.535    21159600.306
       243.000         202.000
 00  4 27 16 36 29.9990000  0  7G 2G26G 4G24G 5G 7G 9
   1233482.43349    962017.81646  22088302.824    22088301.152    22088312.069
       232.000         187.000
   6167858.28949   4803509.66545  24563513.465    24563511.917    24563527.021
       213.000         147.000
 -15895261.11249 -12361690.31847  20420055.439    20420054.863    20420064.234
       240.000         201.000
 -13922921.19149 -10828483.24546  22383065.616    22383064.930    22383078.473
       226.000         177.000
 -11344540.39349  -8562285.58045  23694100.792    23694099.703    23694112.459
       214.000         154.000
   1366703.26149   1066951.86747  21267810.910    21267809.238    21267818.266
       240.000         202.000
 -14116441.75049 -10975295.96747  21148099.499    21148098.459    21148107.209
       243.000         202.000
 00  4 27 16 36 59.9990000  0  7G 2G26G 4G24G 5G 7G 9
   1261960.47749    984208.36146  22093722.100    22093720.445    22093731.387
       232.000         187.000
   6220883.98149   4844828.03645  24573604.129    24573602.666    24573617.757
       213.000         146.000
 -15966040.21449 -12416842.84647  20406586.613    20406586.030    20406595.396
       241.000         201.000
 -14047572.51049 -10925613.95646  22359345.167    22359344.454    22359357.959
       228.000         177.000
 -11454423.62849  -8647908.76345  23673190.657    23673189.551    23673202.299
       213.000         154.000
   1395465.63049   1089364.04647  21273284.239    21273282.587    21273291.628
       240.000         202.000
 -14176313.27549 -11021949.12247  21136706.373    21136705.318    21136714.063
       243.000         202.000
 00  4 27 16 37 29.9990000  0  7G 2G26G 4G24G 5G 7G 9
   1290705.03049   1006606.57647  22099192.110    22099190.449    22099201.427
       232.000         188.000
   6273878.11949   4886121.83045  24583688.674    24583687.248    24583702.502
       215.000         147.000
 -16036258.57449 -12471558.43047  20393224.476    20393223.904    20393233.277
       241.000         202.000
 -14172004.03749 -11022573.42446  22335666.473    22335665.801    22335679.279
       227.000         177.000
 -11564306.94049  -8733532.01645  23652280.380    23652279.356    23652292.103
       216.000         155.000
   1424389.61149   1111902.15247  21278788.362    21278786.682    21278795.741
       240.000         202.000
 -14235653.03649 -11068187.91447  21125414.456    21125413.364    21125422.104
       243.000         202.000
 00  4 27 16 37 59.9990000  0  7G 2G26G 4G24G 5G 7G 9
   1319733.37349   1029225.91347  22104716.143    22104714.463    22104725.475
       232.000         189.000
   6326859.48649   4927405.66745  24593770.959    24593769.500    24593784.756
       211.000         144.000
 -16105927.85649 -12525846.15347  20379966.845    20379966.247    20379975.637
       240.000         201.000
 -14296233.08949 -11119375.14646  22312026.355    22312025.690    22312039.113
       227.000         176.000
 -11674160.44249  -8819132.04545  23631375.942    23631374.847    23631387.585
       216.000         155.000
   1453472.81149   1134564.32547  21284322.774    21284321.087    21284330.155
       240.000         203.000
 -14294448.23049 -11114002.37947  21114226.153    21114225.043    21114233.775
       244.000         202.000
 00  4 27 16 38 29.9990000  0  7G 2G26G 4G24G 5G 7G 9
   1349020.82749   1052047.15346  22110289.465    22110287.780    22110298.839
       232.000         187.000
   6379801.50849   4968658.84145  24603845.724    24603844.253    24603859.640
       212.000         147.000
 -16175080.23649 -12579731.10147  20366807.551    20366806.970    20366816.364
       240.000         201.000
 -14420287.81449 -11216041.01546  22288419.415    22288418.735    22288432.139
       229.000         178.000
 -11784008.70049  -8904728.00545  23610472.392    23610471.346    23610484.017
       217.000         156.000
   1482675.30549   1157319.45247  21289879.843    21289878.179    21289887.240
       240.000         202.000
 -14352717.29649 -11159406.87647  21103137.935    21103136.851    21103145.562
       243.000         202.000
 00  4 27 16 38 59.9990000  0  7G 2G26G 4G24G 5G 7G 9
   1378593.13349   1075090.35746  22115916.983    22115915.315    22115926.389
       232.000         186.000
   6432728.75149   5009900.50345  24613917.546    24613916.160    24613931.740
       213.000         145.000
 -16243689.01949 -12633192.46747  20353751.734    20353751.135    20353760.521
       241.000         201.000
 -14544139.45449 -11312548.63846  22264851.100    22264850.425    22264863.816
       227.000         177.000
 -11893833.17549  -8990305.41545  23589573.329    23589572.304    23589585.006
       216.000         155.000
   1512020.67449   1180185.91747  21295464.150    21295462.476    21295471.531
       240.000         202.000
 -14410428.39049 -11204376.58347  21092155.905    21092154.809    21092163.537
       244.000         202.000
 00  4 27 16 39 29.9990000  0  7G 2G26G 4G24G 5G 7G 9
   1408437.62849   1098345.66146  22121596.305    22121594.624    22121605.740
       232.000         185.000
   6485630.98649   5051122.67345  24623984.769    24623983.367    24623999.089
       213.000         146.000
 -16311775.32249 -12686246.70647  20340795.344    20340794.739    20340804.110
       241.000         202.000
 -14667790.93949 -11408900.31146  22241320.858    22241320.199    22241333.580
       228.000         176.000
 -12003643.29449  -9075871.66545  23568677.060    23568676.016    23568688.680
       217.000         155.000
   1541494.87949   1203152.77447  21301072.954    21301071.291    21301080.336
       241.000         201.000
 -14467622.17049 -11248943.18847  21081272.295    21081271.229    21081279.955
       244.000         202.000
 00  4 27 16 39 59.9990000  0  7G 2G26G 4G24G 5G 7G 9
   1438566.46149   1121822.52846  22127329.707    22127328.058    22127339.206
       231.000         185.000
   6538530.87849   5092343.03545  24634051.560    24634050.125    24634065.924
       213.000         145.000
 -16379310.27749 -12738871.31747  20327943.882    20327943.256    20327952.612
       241.000         202.000
 -14791205.82649 -11505067.62146  22217835.655    22217835.012    22217848.339
       228.000         177.000
 -12113423.27249  -9161414.42245  23547786.628    23547785.521    23547798.112
       216.000         156.000
   1571112.43849   1226231.32647  21306709.052    21306707.385    21306716.421
       240.000         201.000
 -14524292.31949 -11293101.76347  21070488.340    21070487.278    21070496.014
       244.000         203.000
 00  4 27 16 40 29.9990000  0  7G 2G26G 4G24G 5G 7G 9
   1468946.51149   1145495.13346  22133110.942    22133109.277    22133120.468
       231.000         183.000
   6591381.62449   5133525.08145  24644108.994    24644107.578    24644123.427
       209.000         146.000
 -16446294.16149 -12791066.53347  20315197.253    20315196.651    20315205.976
       241.000         202.000
 -14914379.13749 -11601046.68246  22194396.463    22194395.807    22194409.079
       228.000         178.000
 -12223222.59449  -9246972.26545  23526892.385    23526891.329    23526903.887
       216.000         155.000
   1600844.14549   1249398.81847  21312366.856    21312365.202    21312374.215
       241.000         201.000
 -14580465.02649 -11336872.72247  21059799.019    21059797.979    21059806.721
       244.000         202.000
 00  4 27 16 40 59.9990000  0  7G 2G26G 4G24G 5G 7G 9
   1499592.91649   1169375.29846  22138942.888    22138941.204    22138952.430
       231.000         183.000
   6644199.04049   5174681.18445  24654160.189    24654158.703    24654174.544
       209.000         143.000
 -16512702.58149 -12842813.33547  20302560.170    20302559.558    20302568.834
       241.000         202.000
 -15037287.95049 -11696819.61246  22171007.582    22171006.906    22171020.133
       230.000         178.000
 -12333024.78649  -9332532.32745  23505997.646    23505996.569    23506009.096
       219.000         157.000
   1630712.31849   1272672.65447  21318050.653    21318048.975    21318057.982
       240.000         201.000
 -14636113.88849 -11380235.48947  21049209.435    21049208.385    21049217.108
       244.000         203.000
 00  4 27 16 41 29.9990000  0  7G 2G26G 4G24G 5G 7G 9
   1530517.34649   1193472.10346  22144827.709    22144826.038    22144837.296
       231.000         184.000
   6696996.94449   5215822.04745  24664207.689    24664206.121    24664222.028
       211.000         147.000
 -16578519.49649 -12894099.21747  20290035.611    20290035.019    20290044.258
       241.000         202.000
 -15159908.43349 -11792367.83646  22147673.596    22147672.912    22147686.096
       230.000         178.000
 -12442819.25049  -9418086.38645  23485104.387    23485103.281    23485115.765
       218.000         159.000
   1660726.80249   1296060.48747  21323762.262    21323760.595    21323769.614
       241.000         201.000
 -14691217.53849 -11423173.41647  21038723.614    21038722.542    21038731.256
       244.000         203.000
 00  4 27 16 41 59.9990000  0  8G16G 2G26G 4G24G 5G 7G 9
   -135882.77654                  24716549.342
       206.000         108.000
   1561717.10649   1217783.43746  22150764.910    22150763.260    22150774.581
       230.000         183.000
   6749763.06149   5256938.11645  24674248.911    24674247.404    24674263.542
       214.000         143.000
 -16643736.93749 -12944917.99047  20277625.164    20277624.553    20277633.771
       241.000         202.000
 -15282252.64449 -11887700.82946  22124392.154    22124391.491    22124404.608
       230.000         179.000
 -12552608.82149  -9503636.62545  23464212.044    23464210.909    23464223.428
       218.000         158.000
   1690894.51349   1319567.72247  21329503.002    21329501.361    21329510.388
       240.000         201.000
 -14745759.11249 -11465673.37147  21028344.698    21028343.640    21028352.343
       244.000         203.000
 00  4 27 16 42 29.9990000  0  8G16G 2G26G 4G24G 5G 7G 9
    -11587.15643                  24701957.965
       209.000          74.000
   1593203.81749   1242318.36846  22156756.723    22156755.082    22156766.464
       231.000         184.000
   6802495.90449   5298028.31745  24684283.929    24684282.401    24684298.542
       209.000         147.000
 -16708345.32149 -12995262.17147  20265330.610    20265329.999    20265339.190
       241.000         202.000
 -15404325.93849 -11982822.76446  22101162.294    22101161.597    22101174.672
       230.000         179.000
 -12662378.27049  -9589171.18945  23443323.464    23443322.394    23443334.882
       217.000         158.000
   1721237.77449   1343211.77647  21335277.180    21335275.529    21335284.592
       241.000         201.000
 -14799726.04949 -11507725.55747  21018075.153    21018074.099    21018082.794
       244.000         203.000
 00  4 27 16 42 59.9990000  0  8G16G 2G26G 4G24G 5G 7G 9
    -71106.68245                  24687422.600
       204.000         133.000
   1624992.94249   1267088.93746  22162806.113    22162804.457    22162815.881
       230.000         184.000
   6855225.03149   5339115.58145  24694318.308    24694316.661    24694332.890
       210.000         145.000
 -16772335.07249 -13045124.31347  20253153.781    20253153.163    20253162.331
       241.000         202.000
 -15526127.10149 -12077732.65946  22077984.189    22077983.495    22077996.508
       230.000         180.000
 -12772106.97349  -9674674.00445  23422442.807    23422441.700    23422454.119
       218.000         157.000
   1751769.61149   1367002.75347  21341087.253    21341085.604    21341094.663
       241.000         201.000
 -14853111.91749 -11549324.95947  21007916.202    21007915.132    21007923.835
       244.000         203.000
 00  4 27 16 43 29.9990000  0  8G16G 2G26G 4G24G 5G 7G 9
   -130414.66745                  24672938.910
       208.000         142.000
   1657056.99249   1292073.74646  22168907.802    22168906.157    22168917.625
       230.000         185.000
   6907917.89049   5380174.55845  24704345.580    24704344.079    24704360.450
       209.000         145.000
 -16835740.82449 -13094531.38747  20241088.068    20241087.447    20241096.614
       241.000         202.000
 -15647687.62649 -12172455.02946  22054851.859    22054851.196    22054864.166
       229.000         180.000
 -12881822.27349  -9760166.36545  23401564.624    23401563.521    23401575.910
       217.000         156.000
   1782459.76449   1390917.08547  21346927.447    21346925.794    21346934.862
       240.000         201.000
 -14905951.05549 -11590498.34147  20997861.262    20997860.206    20997868.917
       244.000         203.000
 00  4 27 16 43 59.9990000  0  8G16G 2G26G 4G24G 5G 7G 9
   -499968.50849   -189499.52745  24658509.693    24658507.456    24658527.203
       210.000         143.000
   1689399.10149   1317275.19746  22175062.440    22175060.776    22175072.270
       231.000         184.000
   6960580.39649   5421209.93145  24714367.416    24714365.713    24714382.243
       210.000         144.000
 -16898546.85149 -13143471.14647  20229136.487    20229135.848    20229144.980
       242.000         203.000
 -15768993.64049 -12266979.09046  22031767.990    22031767.345    22031780.242
       230.000         180.000
 -12991501.30149  -9845630.46145  23380693.427    23380692.217    23380704.561
       216.000         157.000
   1813314.47049   1414959.64147  21352798.975    21352797.296    21352806.388
       240.000         201.000
 -14958241.60649 -11631244.25347  20987910.715    20987909.673    20987918.353
       244.000         203.000
 00  4 27 16 44 29.9990000  0  8G16G 2G26G 4G24G 5G 7G 9
   -575519.38349   -248370.18955  24644132.769    24644130.909    24644149.974
       211.000         145.000
   1721982.20649   1342664.45246  22181262.944    22181261.260    22181272.813
       230.000         185.000
   7013201.20749   5462212.79245  24724381.029    24724379.339    24724396.024
       212.000         142.000
 -16960765.59549 -13191953.27447  20217296.649    20217296.015    20217305.135
       242.000         203.000
 -15890047.57149 -12361306.71046  22008732.115    22008731.459    22008744.315
       230.000         179.000
 -13101159.42149  -9931078.27445  23359826.062    23359824.891    23359837.261
       217.000         156.000
   1844297.35749   1439102.07647  21358694.876    21358693.201    21358702.311
       241.000         201.000
 -15010006.70349 -11671580.71447  20978060.163    20978059.122    20978067.805
       243.000         203.000
 00  4 27 16 44 59.9990000  0  8G16G 2G26G 4G24G 5G 7G 9
   -650790.63159   -307022.98345  24629809.036    24629807.590    24629826.098
       212.000         145.000
   1754792.68849   1368230.88446  22187506.710    22187505.022    22187516.600
       231.000         185.000
   7065758.34349   5503166.06545  24734382.549    24734380.778    24734397.626
       204.000         141.000
 -17022420.88049 -13239996.34547  20205564.047    20205563.401    20205572.519
       242.000         203.000
 -16010845.72049 -12455435.01046  21985744.886    21985744.240    21985757.071
       230.000         181.000
 -13210816.70849 -10016525.42545  23338958.854    23338957.716    23338970.091
       213.000         155.000
   1875380.74949   1463322.81947  21364609.937    21364608.258    21364617.375
       241.000         201.000
 -15061258.71549 -11711517.37847  20968307.276    20968306.212    20968314.884
       245.000         203.000
 00  4 27 16 45 29.9990000  0  8G16G 2G26G 4G24G 5G 7G 9
   -725743.72349   -365427.91545  24615545.849    24615544.057    24615563.253
       211.000         148.000
   1787859.21649   1393996.83246  22193799.236    22193797.513    22193809.117
       231.000         184.000
   7118260.26049   5544076.29045  24744373.412    24744371.794    24744388.699
       208.000         140.000
 -17083499.82549 -13287590.31647  20193941.105    20193940.470    20193949.548
       242.000         203.000
 -16131355.06649 -12549338.27646  21962812.657    21962811.983    21962824.784
       230.000         181.000
 -13320439.43549 -10101945.65345  23318098.218    23318097.125    23318109.498
       212.000         155.000
   1906591.31849   1487642.65947  21370549.206    21370547.507    21370556.628
       241.000         201.000
 -15111955.60049 -11751021.47047  20958660.014    20958658.944    20958667.607
       244.000         203.000
 00  4 27 16 45 59.9990000  0  8G16G 2G26G 4G24G 5G 7G 9
   -800363.91649   -423573.40745  24601346.006    24601344.181    24601363.437
       211.000         149.000
   1821188.51049   1419967.52446  22200141.793    22200140.023    22200151.625
       231.000         184.000
   7170706.10849   5584942.84545  24754354.027    24754352.250    24754369.243
       208.000         141.000
 -17143980.20049 -13334717.86447  20182432.079    20182431.434    20182440.507
       241.000         203.000
 -16251574.82149 -12643015.89346  21939935.491    21939934.831    21939947.603
       229.000         181.000
 -13430030.70049 -10187341.36045  23297243.568    23297242.502    23297254.911
       215.000         154.000
   1937931.81149   1512063.74947  21376513.188    21376511.472    21376520.609
       241.000         201.000
 -15162088.18649 -11790085.84247  20949120.104    20949119.040    20949127.716
       244.000         203.000
 00  4 27 16 46 29.9990000  0  8G16G 2G26G 4G24G 5G 7G 9
   -874648.41049   -481457.27245  24587210.072    24587208.369    24587227.535
       214.000         151.000
   1854783.64149   1446145.38046  22206534.889    22206533.111    22206544.740
       231.000         184.000
   7223076.70049   5625750.79045  24764320.155    24764318.348    24764335.347
       207.000         140.000
 -17203884.00649 -13381396.13947  20171032.733    20171032.122    20171041.186
       241.000         202.000
 -16371531.36349 -12736488.39146  21917108.343    21917107.733    21917120.498
       230.000         182.000
 -13539619.66649 -10272735.28245  23276389.403    23276388.282    23276400.735
       217.000         154.000
   1969401.64949   1536585.64347  21382501.742    21382500.035    21382509.191
       241.000         201.000
 -15211660.80349 -11828713.87647  20939686.731    20939685.692    20939694.356
       244.000         203.000
 00  4 27 16 46 59.9990000  0  8G16G 2G26G 4G24G 5G 7G 9
   -948598.42749   -539080.53845  24573137.806    24573136.136    24573155.279
       215.000         150.000
   1888660.65949   1472542.87346  22212981.606    22212979.834    22212991.479
       230.000         185.000
   7275359.76849   5666490.48045  24774269.254    24774267.620    24774284.830
       206.000         138.000
 -17263224.77449 -13427635.68347  20159740.526    20159739.930    20159748.997
       241.000         202.000
 -16491240.06149 -12829767.78246  21894328.397    21894327.812    21894340.547
       230.000         182.000
 -13649221.60149 -10358139.30045  23255532.765    23255531.647    23255544.100
       214.000         156.000
   2001009.02349   1561214.68547  21388516.470    21388514.776    21388523.952
       240.000         200.000
 -15260659.06649 -11866894.36447  20930362.659    20930361.617    20930370.300
       244.000         204.000
 00  4 27 16 47 29.9980000  0  8G16G 2G26G 4G24G 5G 7G 9
  -1022219.63649   -596447.59145  24559128.065    24559126.403    24559145.509
       217.000         151.000
   1922817.61449   1499158.48746  22219481.617    22219479.808    22219491.513
       231.000         184.000
   7327573.40549   5707176.08945  24784205.584    24784203.917    24784221.026
       209.000         139.000
 -17321975.81549 -13473415.71247  20148560.542    20148559.968    20148569.036
       241.000         202.000
 -16610696.03849 -12922850.25146  21871596.569    21871595.999    21871608.717
       230.000         183.000
 -13758819.73949 -10443540.36345  23234676.822    23234675.717    23234688.225
       215.000         156.000
   2032768.38549   1585962.14347  21394560.134    21394558.446    21394567.636
       240.000         200.000
 -15309066.71949 -11904614.64147  20921151.029    20921149.985    20921158.666
       244.000         204.000
 00  4 27 16 47 59.9980000  0  8G16G 2G26G 4G24G 5G 7G 9
  -1095515.15149   -653560.91145  24545180.267    24545178.699    24545197.721
       217.000         156.000
   1957254.07549   1525991.91246  22226034.796    22226032.979    22226044.717
       230.000         184.000
   7379723.24749   5747811.96545  24794129.823    24794127.960    24794145.142
       206.000         139.000
 -17380129.44349 -13518730.21347  20137494.243    20137493.684    20137502.753
       240.000         203.000
 -16729900.84349 -13015736.99946  21848912.556    21848911.969    21848924.664
       230.000         184.000
 -13868423.96149 -10528946.16845  23213819.740    23213818.669    23213831.171
       215.000         156.000
   2064686.02549   1610832.94947  21400633.933    21400632.242    21400641.431
       240.000         200.000
 -15356900.46249 -11941887.70747  20912048.615    20912047.563    20912056.256
       244.000         205.000
 00  4 27 16 48 29.9980000  0  8G16G 2G26G 4G24G 5G 7G 9
  -1168502.29449   -710433.91245  24531291.172    24531289.655    24531308.696
       216.000         154.000
   1991964.38049   1553038.70446  22232640.077    22232638.280    22232650.038
       230.000         184.000
   7431801.44549   5788392.04545  24804040.195    24804038.369    24804055.610
       201.000         138.000
 -17437709.84849 -13563598.05647  20126537.061    20126536.492    20126545.560
       241.000         203.000
 -16848840.17649 -13108416.89346  21826279.094    21826278.476    21826291.145
       230.000         184.000
 -13978021.32249 -10614346.63145  23192963.921    23192962.908    23192975.406
       217.000         157.000
   2096756.32549   1635822.69947  21406736.788    21406735.086    21406744.288
       241.000         201.000
 -15404173.90149 -11978724.17647  20903052.827    20903051.765    20903060.462
       244.000         205.000
 00  4 27 16 48 59.9980000  0  8G16G 2G26G 4G24G 5G 7G 9
  -1241196.08449   -767078.33245  24517457.914    24517456.465    24517475.427
       219.000         157.000
   2026932.82049   1580286.64046  22239294.508    22239292.710    22239304.495
       230.000         183.000
   7483803.56549   5828912.81845  24813935.973    24813934.193    24813951.649
       209.000         140.000
 -17494720.61449 -13608022.01847  20115688.263    20115687.695    20115696.784
       241.000         203.000
 -16967497.16349 -13200876.77846  21803699.342    21803698.697    21803711.349
       231.000         185.000
 -14087597.07149 -10699730.25645  23172112.240    23172111.251    23172123.747
       215.000         158.000
   2128960.03249   1660916.40847  21412864.955    21412863.301    21412872.516
       240.000         200.000
 -15450897.87949 -12015132.50147  20894161.574    20894160.521    20894169.231
       245.000         206.000
 00  4 27 16 49 29.9980000  0  8G16G 2G26G 4G24G 5G 7G 9
  -1313587.17449   -823486.87445  24503682.296    24503680.887    24503699.834
       217.000         157.000
   2062169.47249   1607743.58446  22245999.950    22245998.162    22246009.982
       230.000         183.000
   7535729.51849   5869374.26645  24823817.486    24823815.699    24823833.174
       204.000         138.000
 -17551145.33949 -13651989.32647  20104950.984    20104950.418    20104959.525
       240.000         203.000
 -17085847.99149 -13293098.08846  21781177.849    21781177.202    21781189.838
       231.000         185.000
 -14197124.45349 -10785076.19645  23151269.854    23151268.825    23151281.269
       217.000         158.000
   2161284.89849   1686104.52347  21419016.249    21419014.578    21419023.834
       240.000         200.000
 -15497092.35849 -12051128.23647  20885371.081    20885370.027    20885378.754
       244.000         205.000
 00  4 27 16 49 59.9980000  0  8G16G 2G26G 4G24G 5G 7G 9
  -1385676.42249   -879660.21545  24489964.157    24489962.770    24489981.644
       219.000         158.000
   2097670.46049   1635406.52146  22252755.718    22252753.927    22252765.764
       229.000         182.000
   7587544.76249   5909749.42745  24833677.928    24833676.031    24833693.627
       206.000         139.000
 -17607008.63049 -13695519.15247  20094320.521    20094319.980    20094329.074
       240.000         202.000
 -17203896.38249 -13385083.73146  21758713.853    21758713.236    21758725.862
       231.000         187.000
 -14306629.51449 -10870404.72245  23130431.655    23130430.652    23130443.098
       217.000         160.000
   2193701.15749   1711363.85747  21425184.912    21425183.251    21425192.522
       240.000         201.000
 -15542780.33449 -12086729.28947  20876676.989    20876675.923    20876684.671
       244.000         205.000
 00  4 27 16 50 29.9980000  0  8G16G 2G26G 4G24G 5G 7G 9
  -1457442.41249   -935581.69945  24476307.487    24476306.118    24476324.936
       218.000         158.000
   2133453.01749   1663288.86346  22259565.047    22259563.235    22259575.140
       229.000         181.000
   7639273.75149   5950057.40745  24843521.950    24843520.072    24843537.723
       204.000         140.000
 -17662295.24849 -13738599.62547  20083799.813    20083799.264    20083808.376
       241.000         202.000
 -17321620.60449 -13476816.77046  21736311.629    21736310.972    21736323.588
       233.000         187.000
 -14416102.58249 -10955708.33145  23109599.556    23109598.567    23109610.991
       218.000         160.000
   2226212.58249   1736697.35147  21431371.734    21431370.049    21431379.351
       240.000         201.000
 -15587932.39449 -12121912.74847  20868084.863    20868083.792    20868092.551
       244.000         205.000
 00  4 27 16 50 59.9980000  0  8G16G 2G26G 4G24G 5G 7G 9
  -1528855.38649   -991228.05945  24462718.043    24462716.628    24462735.454
       218.000         160.000
   2169513.86949   1691388.04546  22266427.333    22266425.542    22266437.484
       229.000         181.000
   7690920.93049   5990301.62545  24853350.305    24853348.514    24853366.113
       205.000         139.000
 -17716982.22149 -13781212.85047  20073393.219    20073392.673    20073401.785
       241.000         202.000
 -17439008.22949 -13568287.53247  21713973.419    21713972.760    21713985.365
       233.000         188.000
 -14525547.77249 -11040990.22945  23088772.806    23088771.812    23088784.170
       218.000         161.000
   2258818.93449   1762104.81247  21437576.597    21437574.917    21437584.229
       241.000         200.000
 -15632520.73249 -12156656.93947  20859600.034    20859598.959    20859607.705
       245.000         205.000
 00  4 27 16 51 29.9980000  0  8G16G 2G26G 4G24G 5G 7G 9
  -1599893.41749  -1046582.26745  24449199.922    24449198.521    24449217.322
       219.000         160.000
   2205862.04549   1719711.11146  22273344.268    22273342.506    22273354.475
       228.000         179.000
   7742490.00849   6030484.99945  24863163.858    24863162.110    24863179.811
       207.000         139.000
 -17771051.22349 -13823344.53647  20063104.198    20063103.665    20063112.768
       241.000         202.000
 -17556053.32249 -13659491.38947  21691700.424    21691699.735    21691712.323
       233.000         189.000
 -14634967.30149 -11126252.13745  23067951.004    23067949.957    23067962.273
       218.000         162.000
   2291543.36349   1787604.28447  21443803.948    21443802.243    21443811.559
       240.000         200.000
 -15676530.05749 -12190949.95247  20851225.334    20851224.273    20851233.038
       244.000         205.000
 00  4 27 16 51 59.9980000  0  8G16G 2G26G 4G24G 5G 7G 9
  -1670554.66349  -1101642.82745  24435753.437    24435752.074    24435770.873
       219.000         160.000
   2242478.11749   1748242.93346  22280312.244    22280310.450    22280322.467
       227.000         180.000
   7793981.65649   6070608.05945  24872962.694    24872960.956    24872978.731
       204.000         140.000
 -17824518.63049 -13865007.44847  20052929.701    20052929.148    20052938.271
       241.000         202.000
 -17672773.28849 -13750441.87447  21669489.294    21669488.593    21669501.160
       234.000         190.000
 -14744381.18649 -11211509.62345  23047130.145    23047129.119    23047141.421
       219.000         162.000
   2324401.38049   1813207.83747  21450056.674    21450054.978    21450064.317
       240.000         200.000
 -15719947.07549 -12224781.43347  20842963.376    20842962.324    20842971.079
       244.000         205.000
 00  4 27 16 52 29.9980000  0  8G16G 2G26G 4G24G 5G 7G 9
  -1740837.58749  -1156408.60145  24422378.943    24422377.616    24422396.420
       218.000         162.000
   2279352.20649   1776975.79346  22287329.298    22287327.510    22287339.549
       228.000         179.000
   7845404.63949   6110677.59245  24882748.256    24882746.549    24882764.401
       203.000         140.000
 -17877381.73649 -13906199.47247  20042870.170    20042869.632    20042878.726
       241.000         202.000
 -17789178.96049 -13841147.48347  21647337.984    21647337.265    21647349.788
       235.000         190.000
 -14853771.66049 -11296748.86146  23026313.751    23026312.740    23026325.064
       220.000         163.000
   2357400.33149   1838921.20847  21456336.186    21456334.518    21456343.872
       240.000         200.000
 -15762768.94849 -12258149.16547  20834814.686    20834813.629    20834822.390
       244.000         205.000
 00  4 27 16 52 59.9980000  0  8G16G 2G26G 4G24G 5G 7G 9
  -1810773.50049  -1210903.98346  24409070.515    24409069.226    24409087.968
       221.000         163.000
   2316451.13149   1805883.84846  22294389.115    22294387.362    22294399.445
       228.000         179.000
   7896706.11149   6150652.49445  24892510.784    24892509.067    24892527.137
       206.000         140.000
 -17929683.80749 -13946954.33047  20032917.443    20032916.874    20032925.969
       241.000         202.000
 -17905317.12349 -13931644.64647  21625237.581    21625236.840    21625249.335
       235.000         190.000
 -14963163.33049 -11381989.04046  23005497.165    23005496.144    23005508.452
       220.000         163.000
   2390512.21749   1864722.57047  21462637.222    21462635.560    21462644.930
       240.000         199.000
 -15805043.28949 -12291090.25047  20826770.155    20826769.121    20826777.893
       244.000         205.000
 00  4 27 16 53 29.9980000  0  8G16G 2G26G 4G24G 5G 7G 9
  -1880391.89549  -1265151.90046  24395822.495    24395821.205    24395839.969
       220.000         164.000
   2353777.45849   1834969.10246  22301492.199    22301490.476    22301502.595
       228.000         180.000
   7947877.81749   6190526.27545  24902248.556    24902246.950    24902265.178
       203.000         136.000
 -17981446.31449 -13987288.75347  20023067.384    20023066.810    20023075.885
       241.000         202.000
 -18021215.31849 -14021954.82947  21603182.802    21603182.071    21603194.529
       236.000         191.000
 -15072557.12249 -11467230.88546  22984680.194    22984679.146    22984691.416
       221.000         163.000
   2423719.35649   1890598.16847  21468956.398    21468954.737    21468964.124
       240.000         199.000
 -15846811.81949 -12323637.19447  20818821.892    20818820.855    20818829.641
       244.000         205.000
 00  4 27 16 53 59.9980000  0  8G16G 2G26G 4G24G 5G 7G 9
  -1949666.09749  -1319131.64146  24382639.992    24382638.680    24382657.438
       221.000         163.000
   2391370.86749   1864262.47946  22308646.132    22308644.382    22308656.569
       228.000         179.000
   7998950.46549   6230322.85545  24911967.627    24911965.918    24911984.321
       209.000         144.000
 -18032642.96549 -14027182.24547  20013324.950    20013324.388    20013333.471
       241.000         202.000
 -18136840.74349 -14112052.46847  21581179.929    21581179.207    21581191.620
       237.000         191.000
 -15181914.84049 -11552444.59446  22963870.047    22963869.019    22963881.238
       222.000         163.000
   2457038.69349   1916561.19347  21475296.917    21475295.264    21475304.674
       240.000         199.000
 -15888055.26349 -12355774.98847  20810973.539    20810972.514    20810981.323
       244.000         205.000
 00  4 27 16 54 29.9980000  0  8G16G 2G26G 4G24G 5G 7G 9
  -2018584.43449  -1372834.07246  24369525.115    24369523.894    24369542.592
       220.000         165.000
   2429254.75349   1893782.17646  22315855.335    22315853.581    22315865.818
       228.000         180.000
   8049923.45449   6270041.77745  24921667.592    24921665.957    24921684.415
       204.000         140.000
 -18083246.53149 -14066613.59447  20003695.373    20003694.833    20003703.926
       241.000         202.000
 -18252164.44349 -14201914.99847  21559234.452    21559233.758    21559246.152
       236.000         191.000
 -15291214.41049 -11637613.00946  22943071.010    22943069.958    22943082.150
       223.000         163.000
   2490472.41349   1942613.35147  21481659.168    21481657.544    21481666.999
       240.000         199.000
 -15928775.28749 -12387504.92347  20803224.763    20803223.753    20803232.605
       244.000         205.000
 00  4 27 16 54 59.9980000  0  8G16G 2G26G 4G24G 5G 7G 9
  -2087141.78149  -1426255.20545  24356478.963    24356477.777    24356496.441
       219.000         161.000
   2467452.80449   1923546.68046  22323124.349    22323122.578    22323134.866
       229.000         180.000
   8100809.62349   6309693.10845  24931351.074    24931349.387    24931367.966
       213.000         143.000
 -18133235.57449 -14105566.09547  19994182.753    19994182.223    19994191.298
       241.000         202.000
 -18367162.19349 -14291523.56947  21537351.015    21537350.332    21537362.718
       236.000         191.000
 -15400458.39249 -11722738.11746  22922282.563    22922281.477    22922293.597
       222.000         164.000
   2524035.57149   1968766.36347  21488046.104    21488044.464    21488053.978
       240.000         199.000
 -15968961.97949 -12418819.27247  20795577.495    20795576.501    20795585.362
       244.000         205.000
 00  4 27 16 55 29.9980000  0  8G16G 2G26G 4G24G 5G 7G 9
  -2155352.91749  -1479406.50846  24343498.674    24343497.517    24343516.155
       219.000         165.000
   2505953.50649   1953547.00846  22330450.992    22330449.182    22330461.502
       228.000         180.000
   8151605.50749   6349274.05245  24941017.483    24941015.761    24941034.553
       210.000         145.000
 -18182599.73549 -14144031.67947  19984789.055    19984788.522    19984797.621
       241.000         202.000
 -18481819.86449 -14380867.15147  21515532.323    21515531.626    21515543.984
       237.000         191.000
 -15509649.74549 -11807822.20546  22901504.079    22901503.002    22901515.086
       223.000         165.000
   2557726.18549   1995018.70847  21494457.299    21494455.632    21494465.197
       239.000         199.000
 -16008608.51549 -12449712.71547  20788033.031    20788032.042    20788040.919
       244.000         205.000
 00  4 27 16 55 59.9980000  0  8G16G 2G26G 4G24G 5G 7G 9
  -2223234.41149  -1532300.97446  24330581.135    24330579.986    24330598.580
       220.000         164.000
   2544712.87049   1983748.89546  22337826.824    22337825.013    22337837.397
       228.000         180.000
   8202264.94749   6388748.72145  24950657.748    24950656.219    24950674.954
       214.000         143.000
 -18231356.58649 -14182024.04047  19975510.893    19975510.382    19975519.470
       241.000         202.000
 -18596154.68949 -14469959.17947  21493775.094    21493774.370    21493786.692
       237.000         191.000
 -15618820.77449 -11892890.44946  22880729.488    22880728.413    22880740.445
       223.000         165.000
   2591529.37949   2021358.77047  21500889.863    21500888.226    21500897.818
       240.000         199.000
 -16047711.66649 -12480182.73847  20780591.981    20780591.008    20780599.891
       245.000         206.000
 00  4 27 16 56 29.9980000  0  8G16G 2G26G 4G24G 5G 7G 9
  -2290786.42549  -1584938.68946  24317726.208    24317725.116    24317743.708
       220.000         165.000
   2583723.49049   2014146.58546  22345250.433    22345248.627    22345261.091
       228.000         180.000
   8252796.27849   6428123.52945  24960273.831    24960272.245    24960291.019
       214.000         142.000
 -18279503.85249 -14219541.39147  19966348.720    19966348.227    19966357.327
       240.000         202.000
 -18710162.24749 -14558796.21847  21472080.126    21472079.373    21472091.682
       237.000         192.000
 -15727970.27949 -11977941.92146  22859958.989    22859957.881    22859969.887
       223.000         165.000
   2625455.92349   2047794.94047  21507345.903    21507344.300    21507353.908
       239.000         199.000
 -16086240.72549 -12510205.41447  20773260.156    20773259.192    20773268.093
       245.000         206.000
 00  4 27 16 56 59.9980000  0  8G16G 2G26G 4G24G 5G 7G 9
  -2357991.45149  -1637306.05046  24304937.324    24304936.294    24304954.889
       218.000         163.000
   2622995.27749   2044747.76146  22352723.719    22352721.944    22352734.467
       228.000         180.000
   8303222.52849   6467416.47945  24969869.807    24969868.286    24969886.998
       210.000         142.000
 -18327039.83149 -14256582.41847  19957302.908    19957302.433    19957311.530
       241.000         202.000
 -18823831.00749 -14647369.23447  21450449.607    21450448.875    21450461.166
       238.000         192.000
 -15837075.04749 -12062958.52346  22839196.967    22839195.859    22839207.860
       224.000         166.000
   2659519.60649   2074337.96747  21513828.023    21513826.446    21513836.091
       240.000         198.000
 -16124157.13749 -12539750.70547  20766044.936    20766043.961    20766052.903
       245.000         206.000
 00  4 27 16 57 29.9980000  0  8G16G 2G26G 4G24G 5G 7G 9
  -2424845.56049  -1689399.98746  24292215.164    24292214.221    24292232.784
       221.000         164.000
   2662507.45649   2075536.25646  22360242.772    22360241.006    22360253.601
       228.000         180.000
   8353511.84149   6506602.73645  24979439.635    24979438.120    24979456.941
       211.000         142.000
 -18373990.09049 -14293167.04447  19948368.595    19948368.101    19948377.202
       241.000         202.000
 -18937182.45049 -14735694.98847  21428879.474    21428878.753    21428891.037
       237.000         192.000
 -15946133.30349 -12147938.90146  22818443.799    22818442.697    22818454.656
       222.000         164.000
   2693694.03649   2100967.28647  21520331.235    21520329.676    21520339.347
       240.000         198.000
 -16161461.00749 -12568818.69147  20758946.230    20758945.288    20758954.239
       245.000         206.000
 00  4 27 16 57 59.9980000  0  8G16G 2G26G 4G24G 5G 7G 9
  -2491318.33649  -1741196.79246  24279565.592    24279564.700    24279583.256
       216.000         163.000
   2702276.77049   2106525.11246  22367810.758    22367809.015    22367821.653
       228.000         180.000
   8403678.28349   6545693.23645  24988986.210    24988984.648    24989003.548
       211.000         144.000
 -18420344.98449 -14329287.75847  19939547.591    19939547.084    19939556.171
       240.000         203.000
 -19050214.14249 -14823771.57747  21407370.221    21407369.486    21407381.758
       238.000         192.000
 -16055145.66049 -12232883.50046  22797699.418    22797698.270    22797710.208
       224.000         165.000
   2727980.66549   2127684.02647  21526855.825    21526854.275    21526863.956
       239.000         198.000
 -16198144.24449 -12597403.06347  20751965.629    20751964.709    20751973.680
       245.000         207.000
 00  4 27 16 58 29.9980000  0  8G16G 2G26G 4G24G 5G 7G 9
  -2557423.50149  -1792707.11646  24266986.040    24266985.183    24267003.759
       218.000         164.000
   2742292.15749   2137705.69146  22375425.596    22375423.838    22375436.548
       227.000         180.000
   8453706.78349   6584676.24445  24998506.702    24998505.023    24998523.989
       205.000         142.000
 -18466127.45449 -14364962.42247  19930835.503    19930834.989    19930844.067
       241.000         202.000
 -19162938.57149 -14911608.74747  21385919.429    21385918.701    21385930.961
       237.000         192.000
 -16164133.63049 -12317809.08646  22776959.585    22776958.483    22776970.407
       221.000         164.000
   2762353.32249   2154467.78847  21533396.775    21533395.251    21533404.942
       239.000         198.000
 -16234245.25349 -12625533.75447  20745095.899    20745094.958    20745103.938
       245.000         206.000
 00  4 27 16 58 59.9980000  0  7G16G 2G 4G24G 5G 7G 9
  -2623123.32649  -1843901.61646  24254483.668    24254482.785    24254501.305
       218.000         163.000
   2782592.13249   2169108.04146  22383094.584    22383092.834    22383105.590
       226.000         179.000
 -18511290.95749 -14400154.76647  19922241.214    19922240.666    19922249.731
       241.000         203.000
 -19275331.24749 -14999187.41847  21364531.733    21364531.029    21364543.287
       237.000         191.000
 -16273060.29449 -12402686.94746  22756231.413    22756230.398    22756242.241
       222.000         164.000
   2796833.58649   2181335.41347  21539958.239    21539956.684    21539966.406
       239.000         197.000
 -16269756.19249 -12653204.65147  20738338.464    20738337.493    20738346.476
       245.000         206.000
 00  4 27 16 59 29.9980000  0  7G16G 2G 4G24G 5G 7G 9
  -2688433.66149  -1894792.57446  24242055.392    24242054.525    24242073.017
       219.000         164.000
   2823160.73049   2200719.71346  22390814.662    22390812.938    22390825.747
       226.000         179.000
 -18555829.47449 -14434860.11847  19913765.841    19913765.292    19913774.344
       241.000         203.000
 -19387408.91649 -15086520.61747  21343203.979    21343203.305    21343215.560
       237.000         191.000
 -16381953.26849 -12487538.54046  22735509.625    22735508.688    22735520.460
       222.000         164.000
   2831397.70749   2208268.37347  21546535.610    21546534.074    21546543.805
       239.000         197.000
 -16304710.82249 -12680442.06847  20731686.818    20731685.869    20731694.869
       245.000         207.000
 00  4 27 16 59 59.9980000  0  7G16G 2G 4G24G 5G 7G 9
  -2753351.24249  -1945377.55846  24229701.835    24229700.985    24229719.382
       219.000         164.000
   2863999.96749   2232542.27446  22398586.271    22398584.533    22398597.412
       224.000         177.000
 -18599721.22049 -14469061.48847  19905413.518    19905412.982    19905422.021
       241.000         203.000
 -19499141.63749 -15173585.00747  21321941.905    21321941.214    21321953.459
       237.000         191.000
 -16490807.26149 -12572359.73946  22714795.374    22714794.429    22714806.132
       222.000         165.000
   2866053.83449   2235273.02747  21553130.552    21553128.968    21553138.728
       238.000         196.000
 -16339109.52449 -12707246.28847  20725141.005    20725140.050    20725149.067
       244.000         207.000
 00  4 27 17  0 29.9980000  0  7G16G 2G 4G24G 5G 7G 9
  -2817894.42649  -1995670.77446  24217419.534    24217418.671    24217437.081
       218.000         164.000
   2905104.09649   2264571.25746  22406408.299    22406406.567    22406419.492
       224.000         177.000
 -18642981.78749 -14502771.03147  19897181.330    19897180.794    19897189.806
       241.000         203.000
 -19610534.35049 -15260384.46547  21300744.556    21300743.847    21300756.073
       237.000         191.000
 -16599609.52449 -12657140.68346  22694090.944    22694089.971    22694101.614
       223.000         164.000
   2900787.79949   2262338.33547  21559740.235    21559738.676    21559748.459
       238.000         196.000
 -16372957.70549 -12733621.52947  20718699.905    20718698.969    20718708.024
       245.000         206.000
 00  4 27 17  0 59.9980000  0  7G16G 2G 4G24G 5G 7G 9
  -2882040.31949  -2045654.38746  24205212.802    24205211.955    24205230.355
       219.000         166.000
   2946483.63449   2296814.83246  22414282.697    22414280.961    22414293.957
       224.000         177.000
 -18685600.78349 -14535980.64947  19889071.222    19889070.684    19889079.697
       241.000         203.000
 -19721575.15949 -15346909.73347  21279614.159    21279613.449    21279625.631
       237.000         191.000
 -16708328.26549 -12741856.51946  22673402.373    22673401.403    22673413.014
       223.000         165.000
   2935609.96449   2289472.36447  21566366.750    21566365.172    21566374.980
       238.000         196.000
 -16406231.34549 -12759549.07447  20712368.175    20712367.236    20712376.296
       244.000         207.000
 00  4 27 17  1 29.9980000  0  7G16G 2G 4G24G 5G 7G 9
  -2945808.41149  -2095343.67145  24193077.960    24193077.176    24193095.543
       217.000         162.000
   2988107.23049   2329248.59246  22422203.509    22422201.801    22422214.865
       223.000         176.000
 -18727627.51649 -14568728.75947  19881073.831    19881073.275    19881082.281
       241.000         203.000
 -19832268.89749 -15433164.56147  21258549.770    21258549.074    21258561.234
       237.000         191.000
 -16816994.85949 -12826531.72746  22652723.739    22652722.771    22652734.340
       223.000         164.000
   2970500.39649   2316659.59847  21573006.296    21573004.713    21573014.524
       238.000         196.000
 -16438953.14449 -12785046.62447  20706141.465    20706140.525    20706149.595
       244.000         206.000
 00  4 27 17  1 59.9980000  0  7G16G 2G 4G24G 5G 7G 9
  -3009194.09949  -2144734.93946  24181015.961    24181015.155    24181033.483
       219.000         165.000
   3029983.85049   2361879.49746  22430172.498    22430170.824    22430183.937
       223.000         175.000
 -18769083.72949 -14601032.31147  19873184.971    19873184.432    19873193.431
       241.000         203.000
 -19942613.80949 -15519147.58047  21237551.814    21237551.092    21237563.231
       237.000         192.000
 -16925606.41849 -12911164.03546  22632055.618    22632054.620    22632066.144
       223.000         164.000
   3005479.13449   2343915.64047  21579662.621    21579661.026    21579670.872
       238.000         195.000
 -16471114.89849 -12810107.77347  20700021.342    20700020.380    20700029.467
       245.000         207.000
 00  4 27 17  2 29.9980000  0  7G16G 2G 4G24G 5G 7G 9
  -3072181.06849  -2193815.58446  24169029.762    24169029.010    24169047.267
       218.000         164.000
   3072145.51349   2394732.52146  22438195.754    22438194.037    22438207.246
       223.000         176.000
 -18809964.34549 -14632887.34147  19865405.613    19865405.105    19865414.114
       241.000         203.000
 -20052606.42549 -15604856.08247  21216620.852    21216620.148    21216632.258
       236.000         192.000
 -17034151.01249 -12995744.17646  22611400.198    22611399.213    22611410.691
       222.000         165.000
   3040585.90249   2371271.45147  21586343.266    21586341.706    21586351.559
       238.000         195.000
 -16502709.15149 -12834726.71547  20694009.166    20694008.218    20694017.332
       244.000         206.000
 00  4 27 17  2 59.9980000  0  7G16G 2G 4G24G 5G 7G 9
  -3134775.13149  -2242590.05146  24157118.390    24157117.635    24157135.880
       217.000         163.000
   3114586.51549   2427803.20646  22446272.144    22446270.439    22446283.724
       222.000         176.000
 -18850269.95949 -14664294.32447  19857735.693    19857735.195    19857744.226
       240.000         203.000
 -20162244.70249 -15690288.46747  21195757.327    21195756.631    21195768.733
       237.000         192.000
 -17142662.41049 -13080298.43346  22590751.057    22590750.114    22590761.583
       221.000         165.000
   3075818.80749   2398725.56247  21593047.956    21593046.392    21593056.258
       237.000         195.000
 -16533747.49449 -12858912.47647  20688102.779    20688101.853    20688110.969
       244.000         206.000
 00  4 27 17  3 29.9980000  0  7G16G 2G 4G24G 5G 7G 9
  -3196974.39849  -2291056.87645  24145282.167    24145281.368    24145299.588
       216.000         162.000
   3157325.18549   2461105.82646  22454405.202    22454403.497    22454416.880
       223.000         176.000
 -18889986.18349 -14695242.04447  19850177.933    19850177.457    19850186.474
       241.000         203.000
 -20271512.58849 -15775432.24647  21174964.299    21174963.588    21174975.675
       237.000         192.000
 -17251149.08449 -13164833.42946  22570106.680    22570105.738    22570117.174
       223.000         167.000
   3111180.98549   2426280.39347  21599777.241    21599775.662    21599785.541
       237.000         195.000
 -16564227.20949 -12882662.94547  20682302.703    20682301.777    20682310.899
       245.000         206.000
 00  4 27 17  3 59.9980000  0  7G16G 2G 4G24G 5G 7G 9
  -3258791.36349  -2339225.78846  24133518.650    24133517.862    24133536.051
       217.000         163.000
   3200348.82649   2494630.49946  22462592.498    22462590.784    22462604.245
       223.000         175.000
 -18929107.01449 -14725725.81747  19842733.533    19842733.030    19842742.043
       241.000         203.000
 -20380428.04049 -15860301.38547  21154238.370    21154237.630    21154249.726
       237.000         192.000
 -17359606.97149 -13249345.99846  22549467.795    22549466.823    22549478.247
       223.000         166.000
   3146655.39249   2453922.67947  21606527.951    21606526.309    21606536.215
       237.000         195.000
 -16594158.81449 -12905986.31247  20676606.961    20676606.011    20676615.151
       245.000         207.000
 00  4 27 17  4 29.9980000  0  7G16G 2G 4G24G 5G 7G 9
  -3320222.14949  -2387093.86145  24121828.693    24121827.837    24121845.966
       216.000         162.000
   3243635.96349   2528360.50446  22470829.949    22470828.234    22470841.772
       222.000         176.000
 -18967626.66349 -14755741.13947  19835403.541    19835403.016    19835412.028
       241.000         203.000
 -20488986.87449 -15944892.66447  21133580.283    21133579.546    21133591.627
       237.000         192.000
 -17468033.35849 -13333834.02046  22528834.867    22528833.881    22528845.306
       223.000         167.000
   3182210.74449   2481628.05047  21613294.074    21613292.374    21613302.291
       236.000         194.000
 -16623551.60949 -12928889.82547  20671013.764    20671012.805    20671021.945
       245.000         207.000
 00  4 27 17  4 59.9980000  0  7G16G 2G 4G24G 5G 7G 9
  -3381265.87549  -2434660.29346  24110212.489    24110211.520    24110229.596
       216.000         163.000
   3287173.43249   2562285.56146  22479115.038    22479113.318    22479126.895
       224.000         177.000
 -19005540.77849 -14785284.61547  19828188.774    19828188.223    19828197.235
       241.000         203.000
 -20597186.48549 -16029204.04447  21112990.554    21112989.805    21113001.886
       237.000         193.000
 -17576423.97749 -13418294.18246  22508208.781    22508207.755    22508219.179
       223.000         167.000
   3217813.90849   2509370.66547  21620069.239    21620067.540    21620077.461
       237.000         195.000
 -16652397.04149 -12951366.82447  20665524.702    20665523.737    20665532.890
       245.000         207.000
 00  4 27 17  5 29.9980000  0  7G16G 2G 4G24G 5G 7G 9
  -3441900.56849  -2481908.07445  24098673.997    24098673.058    24098691.031
       216.000         162.000
   3330955.99249   2596401.60046  22487446.796    22487445.047    22487458.677
       224.000         177.000
 -19042844.26649 -14814352.28347  19821090.159    19821089.619    19821098.618
       241.000         203.000
 -20705021.02049 -16113230.96647  21092470.326    21092469.548    21092481.625
       237.000         193.000
 -17684740.92849 -13502696.93746  22487596.691    22487595.660    22487607.106
       223.000         167.000
   3253472.81949   2537156.71147  21626855.010    21626853.305    21626863.242
       236.000         194.000
 -16680680.94849 -12973406.27447  20660142.480    20660141.520    20660150.687
       244.000         207.000
 00  4 27 17  5 59.9980000  0  7G16G 2G 4G24G 5G 7G 9
  -3502114.57149  -2528828.02546  24087215.613    24087214.638    24087232.573
       214.000         164.000
   3374979.03649   2630705.03146  22495824.296    22495822.555    22495836.207
       224.000         176.000
 -19079523.42049 -14842933.45247  19814110.385    19814109.832    19814118.802
       240.000         202.000
 -20812480.39949 -16196965.55047  21072021.512    21072020.717    21072032.745
       238.000         194.000
 -17792964.62949 -13587027.04046  22467002.361    22467001.318    22467012.736
       224.000         167.000
   3289209.86649   2565003.63147  21633655.640    21633653.939    21633663.883
       236.000         194.000
 -16708381.06649 -12994990.81847  20654871.367    20654870.404    20654879.583
       244.000         207.000
 00  4 27 17  6 29.9980000  0  7G16G 2G 4G24G 5G 7G 9
  -3561888.16149  -2575404.82046  24075841.013    24075839.991    24075857.927
       214.000         163.000
   3419270.69949   2665217.77846  22504252.913    22504251.136    22504264.873
       222.000         174.000
 -19115564.98949 -14871017.81047  19807251.903    19807251.357    19807260.332
       240.000         202.000
 -20919544.06549 -16280391.77747  21051647.982    21051647.165    21051659.186
       238.000         194.000
 -17901088.12549 -13671279.05846  22446427.055    22446426.055    22446437.446
       225.000         168.000
   3325055.97449   2592935.54247  21640477.000    21640475.313    21640485.272
       236.000         194.000
 -16735463.43949 -13016094.00547  20649717.802    20649716.853    20649726.034
       244.000         206.000
 00  4 27 17  6 59.9980000  0  7G16G 2G 4G24G 5G 7G 9
  -3621270.71449  -2621676.89045  24064540.846    24064539.798    24064557.655
       215.000         162.000
   3463801.88049   2699917.16846  22512727.055    22512725.305    22512739.096
       223.000         174.000
 -19151010.15349 -14898637.42347  19800506.904    19800506.385    19800515.328
       240.000         202.000
 -21026253.24949 -16363541.78847  21031341.896    21031341.068    21031353.080
       238.000         194.000
 -18009144.03849 -13755478.40446  22425864.627    22425863.643    22425875.015
       224.000         169.000
   3360983.77449   2620931.10847  21647313.918    21647312.247    21647322.225
       236.000         193.000
 -16761965.29749 -13036744.83847  20644674.706    20644673.751    20644682.944
       244.000         206.000
 00  4 27 17  7 29.9980000  0  7G16G 2G 4G24G 5G 7G 9
  -3680230.92049  -2667619.86046  24053321.081    24053320.005    24053337.834
       216.000         163.000
   3508600.15049   2734824.67346  22521252.047    22521250.287    22521264.141
       223.000         174.000
 -19185835.25849 -14925773.88247  19793879.912    19793879.386    19793888.316
       241.000         202.000
 -21132572.80749 -16446388.19547  21011109.992    21011109.149    21011121.119
       238.000         194.000
 -18117108.48949 -13839606.49446  22405319.705    22405318.673    22405329.980
       224.000         170.000
   3397042.31149   2649028.55547  21654175.763    21654174.049    21654184.060
       236.000         193.000
 -16787862.39449 -13056924.43447  20639746.742    20639745.748    20639754.929
       245.000         206.000
 00  4 27 17  7 59.9980000  0  7G16G 2G 4G24G 5G 7G 9
  -3738784.57749  -2713246.09945  24042178.611    24042177.511    24042195.250
       214.000         161.000
   3553668.27049   2769942.45746  22529828.423    22529826.635    22529840.552
       222.000         173.000
 -19220056.95249 -14952440.14447  19787367.722    19787367.231    19787376.137
       239.000         202.000
 -21238514.58249 -16528940.20447  20990949.960    20990949.103    20990961.038
       239.000         195.000
 -18225009.98449 -13923685.53346  22384786.712    22384785.645    22384796.954
       224.000         170.000
   3433224.05249   2677222.02447  21661060.988    21661059.286    21661069.334
       235.000         192.000
 -16813172.85149 -13076646.90447  20634930.374    20634929.381    20634938.544
       244.000         206.000
 00  4 27 17  8 29.9980000  0  7G16G 2G 4G24G 5G 7G 9
  -3796928.08049  -2758552.68846  24031114.267    24031113.180    24031130.885
       217.000         165.000
   3599007.76849   2805271.69346  22538456.420    22538454.614    22538468.602
       221.000         174.000
 -19253696.16549 -14978652.53047  19780966.375    19780965.897    19780974.803
       239.000         202.000
 -21344090.00449 -16611206.74047  20970859.618    20970858.777    20970870.689
       238.000         196.000
 -18332861.96849 -14007725.97546  22364263.171    22364262.050    22364273.364
       225.000         170.000
   3469501.04949   2705489.72447  21667964.305    21667962.633    21667972.724
       236.000         192.000
 -16837912.40249 -13095924.51947  20630222.632    20630221.628    20630230.798
       244.000         206.000
 00  4 27 17  8 59.9980000  0  7G16G 2G 4G24G 5G 7G 9
  -3854632.60349  -2803517.21345  24020133.512    24020132.384    24020150.029
       216.000         162.000
   3644621.57649   2840814.68946  22547136.622    22547134.825    22547148.841
       222.000         172.000
 -19286738.85049 -15004400.08247  19774678.553    19774678.081    19774686.983
       239.000         202.000
 -21449278.78949 -16693172.00247  20950842.861    20950842.012    20950853.919
       239.000         197.000
 -18440656.26149 -14091721.46246  22343750.640    22343749.474    22343760.739
       226.000         172.000
   3505865.30049   2733825.41747  21674884.247    21674882.594    21674892.722
       235.000         192.000
 -16862083.29949 -13114759.01947  20625623.064    20625622.103    20625631.265
       244.000         206.000
 00  4 27 17  9 29.9980000  0  7G16G 2G 4G24G 5G 7G 9
  -3911913.27149  -2848151.47945  24009233.297    24009232.155    24009249.773
       213.000         161.000
   3690476.20249   2876545.30846  22555862.651    22555860.852    22555874.912
       222.000         172.000
 -19319207.29949 -15029700.17947  19768500.014    19768499.529    19768508.444
       238.000         202.000
 -21554105.37049 -16774855.04947  20930895.017    20930894.175    20930906.095
       239.000         197.000
 -18548436.47049 -14175705.96246  22323240.690    22323239.569    22323250.787
       227.000         173.000
   3542285.22049   2762204.47947  21681814.801    21681813.156    21681823.313
       235.000         193.000
 -16885706.86949 -13133167.04247  20621127.636    20621126.702    20621135.869
       243.000         206.000
 00  4 27 17  9 59.9980000  0  7G16G 2G 4G24G 5G 7G 9
  -3968736.06049  -2892428.87445  23998420.257    23998419.103    23998436.772
       215.000         161.000
   3736602.45249   2912487.58946  22564640.385    22564638.580    22564652.690
       220.000         173.000
 -19351053.75049 -15054515.60647  19762439.853    19762439.365    19762448.267
       238.000         202.000
 -21658530.99849 -16856225.68247  20911023.494    20911022.647    20911034.546
       239.000         198.000
 -18656152.13049 -14259640.18446  22302743.052    22302741.939    22302753.132
       226.000         173.000
   3578779.98949   2790641.86347  21688759.638    21688757.971    21688768.153
       235.000         192.000
 -16908740.99049 -13151115.75247  20616744.421    20616743.468    20616752.676
       243.000         206.000
 00  4 27 17 10 29.9980000  0  7G16G 2G 4G24G 5G 7G 9
  -4025111.06049  -2936357.38345  23987692.401    23987691.260    23987708.916
       211.000         158.000
   3782980.66649   2948626.20746  22573466.059    22573464.260    22573478.383
       220.000         172.000
 -19382261.92249 -15078833.67147  19756501.151    19756500.661    19756509.571
       239.000         202.000
 -21762553.74449 -16937282.37947  20891228.630    20891227.786    20891239.675
       240.000         197.000
 -18763792.79749 -14343515.95646  22282259.670    22282258.574    22282269.729
       226.000         173.000
   3615337.97449   2819128.49747  21695716.439    21695714.777    21695725.021
       235.000         192.000
 -16931197.33349 -13168614.25047  20612471.150    20612470.204    20612479.420
       243.000         206.000
 00  4 27 17 10 59.9980000  0  7G16G 2G 4G24G 5G 7G 9
  -4081074.30649  -2979965.01245  23977042.883    23977041.730    23977059.380
       216.000         159.000
   3829590.22349   2984945.10146  22582335.759    22582333.957    22582348.155
       219.000         174.000
 -19412839.27449 -15102660.19247  19750682.462    19750681.979    19750690.895
       238.000         202.000
 -21866182.37849 -17018031.97247  20871508.726    20871507.890    20871519.781
       240.000         198.000
 -18871369.15249 -14427341.62546  22261788.588    22261787.450    22261798.570
       228.000         172.000
   3651947.24649   2847655.10347  21702683.016    21702681.383    21702691.657
       235.000         192.000
 -16953099.34049 -13185680.80047  20608303.315    20608302.391    20608311.643
       244.000         206.000
 00  4 27 17 11 29.9980000  0  7G16G 2G 4G24G 5G 7G 9
  -4136636.31749  -3023259.96545  23966469.741    23966468.625    23966486.209
       216.000         159.000
   3876441.35549   3021452.21946  22591251.385    22591249.624    22591263.885
       221.000         173.000
 -19442784.61549 -15125994.23047  19744984.079    19744983.579    19744992.501
       238.000         202.000
 -21969415.68649 -17098473.51147  20851864.082    20851863.252    20851875.141
       240.000         198.000
 -18978850.02149 -14511092.90446  22241335.662    22241334.508    22241345.565
       227.000         174.000
   3688622.58549   2876233.18247  21709662.239    21709660.556    21709670.865
       235.000         192.000
 -16974446.30349 -13202314.84447  20604241.160    20604240.242    20604249.504
       244.000         206.000
 00  4 27 17 11 59.9980000  0  7G16G 2G 4G24G 5G 7G 9
  -4191793.41249  -3066239.35745  23955973.656    23955972.466    23955990.145
       215.000         159.000
   3923543.09649   3058154.63346  22600214.652    22600212.946    22600227.260
       219.000         173.000
 -19472105.87649 -15148841.97647  19739404.437    19739403.953    19739412.870
       238.000         202.000
 -22072250.96449 -17178604.89447  20832295.171    20832294.347    20832306.213
       240.000         199.000
 -19086223.19149 -14594760.27046  22220903.144    22220902.047    22220913.074
       226.000         174.000
   3725363.72549   2904862.54847  21716653.933    21716652.257    21716662.595
       235.000         192.000
 -16995246.53549 -13218522.86447  20600283.030    20600282.117    20600291.400
       244.000         206.000
 00  4 27 17 12 29.9980000  0  7G16G 2G 4G24G 5G 7G 9
  -4246539.65149  -3108898.64245  23945555.651    23945554.544    23945572.177
       214.000         156.000
   3970908.65349   3095062.60446  22609228.175    22609226.479    22609240.852
       219.000         173.000
 -19500830.15449 -15171224.53847  19733938.359    19733937.896    19733946.830
       238.000         202.000
 -22174699.27549 -17258434.73347  20812799.893    20812799.075    20812810.960
       240.000         199.000
 -19193507.76649 -14678358.58646  22200487.496    22200486.430    22200497.452
       227.000         174.000
   3762172.02349   2933544.23947  21723658.368    21723656.744    21723667.111
       235.000         191.000
 -17015510.28249 -13234312.84847  20596427.028    20596426.103    20596435.387
       244.000         206.000
 00  4 27 17 12 59.9980000  0  7G16G 2G 4G24G 5G 7G 9
  -4300834.05149  -3151205.84245  23935223.714    23935222.598    23935240.175
       212.000         156.000
   4018567.25349   3132198.91646  22618297.456    22618295.783    22618310.239
       219.000         172.000
 -19528961.52549 -15193145.09347  19728585.170    19728584.685    19728593.633
       238.000         202.000
 -22276735.92249 -17337943.78747  20793382.953    20793382.161    20793394.021
       240.000         199.000
 -19300692.88249 -14761879.38546  22180090.784    22180089.733    22180100.716
       227.000         174.000
   3799081.91949   2962305.10547  21730682.188    21730680.553    21730690.947
       234.000         191.000
 -17035202.69649 -13249657.63747  20592679.704    20592678.784    20592688.070
       244.000         207.000
 00  4 27 17 13 29.9980000  0  7G16G 2G 4G24G 5G 7G 9
  -4354659.99449  -3193147.95645  23924980.824    23924979.741    23924997.432
       211.000         156.000
   4066509.95749   3169556.60846  22627420.838    22627419.152    22627433.668
       219.000         171.000
 -19556506.12349 -15214608.42347  19723343.617    19723343.133    19723352.100
       238.000         202.000
 -22378368.58649 -17417138.01647  20774042.913    20774042.104    20774053.992
       241.000         199.000
 -19407785.87849 -14845328.39146  22159711.597    22159710.572    22159721.534
       228.000         175.000
   3836101.21349   2991151.22047  21737726.831    21737725.171    21737735.585
       235.000         190.000
 -17054325.21749 -13264558.35547  20589040.861    20589039.938    20589049.226
       244.000         207.000
 00  4 27 17 13 59.9980000  0  7G16G 2G 4G24G 5G 7G 9
  -4408033.20549  -3234737.33145  23914824.175    23914823.100    23914840.720
       213.000         155.000
   4114713.15949   3207117.28646  22636593.772    22636592.073    22636606.635
       219.000         171.000
 -19583480.55549 -15235627.46747  19718210.528    19718210.084    19718219.057
       237.000         202.000
 -22479613.27549 -17496029.91547  20754776.624    20754775.855    20754787.753
       241.000         199.000
 -19514827.45049 -14928737.36546  22139342.174    22139341.213    22139352.127
       227.000         175.000
   3873209.66549   3020066.83247  21744788.356    21744786.733    21744797.173
       233.000         190.000
 -17072893.51249 -13279027.20647  20585507.469    20585506.546    20585515.844
       244.000         206.000
 00  4 27 17 14 29.9980000  0  7G16G 2G 4G24G 5G 7G 9
  -4460966.00149  -3275983.49645  23904751.229    23904750.203    23904767.811
       213.000         156.000
   4163168.15149   3244874.14646  22645814.690    22645812.970    22645827.538
       219.000         171.000
 -19609883.29249 -15256201.03547  19713186.292    19713185.835    19713194.799
       238.000         202.000
 -22580471.74249 -17574620.88247  20735583.872    20735583.121    20735595.000
       241.000         200.000
 -19621816.61249 -15012105.47846  22118982.791    22118981.800    22118992.702
       227.000         173.000
   3910398.24249   3049044.86547  21751865.147    21751863.552    21751874.019
       234.000         189.000
 -17090912.48749 -13293068.02047  20582078.601    20582077.675    20582086.988
       244.000         206.000
 00  4 27 17 14 59.9980000  0  7G16G 2G 4G24G 5G 7G 9
  -4513440.49349  -3316872.50745  23894765.565    23894764.577    23894782.173
       214.000         157.000
   4211887.74749   3282837.20046  22655086.040    22655084.233    22655098.799
       221.000         171.000
 -19635662.28749 -15276288.56647  19708280.720    19708280.252    19708289.209
       238.000         202.000
 -22680910.46149 -17652884.74347  20716471.022    20716470.252    20716482.133
       241.000         200.000
 -19728714.88549 -15095402.74946  22098640.664    22098639.685    22098650.587
       228.000         175.000
   3947687.33649   3078101.20247  21758961.161    21758959.533    21758970.013
       234.000         189.000
 -17108351.45049 -13306656.87347  20578760.165    20578759.213    20578768.515
       244.000         206.000
 00  4 27 17 15 29.9980000  0  7G16G 2G 4G24G 5G 7G 9
  -4565478.47149  -3357421.40645  23884862.970    23884861.995    23884879.506
       211.000         155.000
   4260883.34249   3321015.31646  22664409.866    22664408.026    22664422.590
       222.000         172.000
 -19660800.59949 -15295876.86847  19703497.092    19703496.604    19703505.553
       237.000         202.000
 -22780929.37749 -17730821.55247  20697438.020    20697437.252    20697449.116
       241.000         200.000
 -19835513.67249 -15178622.52246  22078317.501    22078316.524    22078327.427
       228.000         175.000
   3985055.41949   3107219.07447  21766072.160    21766070.543    21766081.021
       233.000         189.000
 -17125216.31849 -13319798.38647  20575550.950    20575549.987    20575559.285
       244.000         206.000
 00  4 27 17 15 59.9980000  0  7G16G 2G 4G24G 5G 7G 9
  -4617096.62549  -3397643.13845  23875040.187    23875039.248    23875056.735
       213.000         156.000
   4310158.91249   3359411.59546  22673786.959    22673785.110    22673799.696
       222.000         171.000
 -19685305.81949 -15314971.84647  19698833.908    19698833.422    19698842.364
       237.000         202.000
 -22880533.47149 -17808435.14547  20678483.991    20678483.233    20678495.053
       241.000         200.000
 -19942207.76649 -15261760.73246  22058014.240    22058013.273    22058024.148
       227.000         175.000
   4022486.13649   3136385.75847  21773195.104    21773193.469    21773203.942
       233.000         189.000
 -17141500.03149 -13332487.04847  20572452.308    20572451.349    20572460.639
       244.000         206.000
 00  4 27 17 16 29.9980000  0  7G16G 2G 4G24G 5G 7G 9
  -4668303.67049  -3437544.54645  23865295.650    23865294.754    23865312.298
       212.000         155.000
   4359693.19549   3398009.46346  22683213.253    22683211.390    22683226.009
       221.000         171.000
 -19709205.95049 -15333595.32447  19694285.925    19694285.409    19694294.331
       238.000         202.000
 -22979749.25449 -17885746.10847  20659603.883    20659603.103    20659614.897
       241.000         201.000
 -20048808.31749 -15344826.05246  22037728.869    22037727.849    22037738.709
       228.000         176.000
   4059965.85549   3165590.61747  21780327.389    21780325.709    21780336.219
       233.000         189.000
 -17157212.53149 -13344730.60947  20569462.391    20569461.415    20569470.698
       245.000         206.000
 00  4 27 17 16 59.9980000  0  7G16G 2G 4G24G 5G 7G 9
  -4719066.60349  -3477099.90545  23855635.636    23855634.758    23855652.257
       215.000         155.000
   4409502.09749   3436821.32246  22692691.797    22692689.904    22692704.568
       222.000         172.000
 -19732488.33949 -15351737.44347  19689855.452    19689854.927    19689863.823
       237.000         202.000
 -23078557.46049 -17962739.42147  20640801.316    20640800.511    20640812.294
       242.000         200.000
 -20155303.73749 -15427809.44746  22017463.493    22017462.460    22017473.253
       228.000         176.000
   4097526.79449   3194858.76047  21787475.069    21787473.410    21787483.941
       233.000         188.000
 -17172329.53649 -13356510.14447  20566585.796    20566584.804    20566594.082
       243.000         206.000
 00  4 27 17 17 29.9980000  0  7G16G 2G 4G24G 5G 7G 9
  -4769358.47249  -3516288.21645  23846065.348    23846064.489    23846081.858
       212.000         156.000
   4459595.99849   3475855.25846  22702224.512    22702222.652    22702237.377
       223.000         171.000
 -19755170.90549 -15369412.17347  19685539.101    19685538.600    19685547.469
       237.000         202.000
 -23176950.36549 -18039409.12947  20622077.759    20622076.951    20622088.722
       241.000         200.000
 -20261684.80949 -15510703.73746  21997219.824    21997218.793    21997229.548
       228.000         177.000
   4135188.03549   3224205.06947  21794641.853    21794640.181    21794650.746
       232.000         188.000
 -17186843.63649 -13367819.89147  20563823.902    20563822.913    20563832.212
       243.000         206.000
 00  4 27 17 17 59.9980000  0  7G16G 2G 4G24G 5G 7G 9
  -4819185.52349  -3555114.30945  23836583.450    23836582.623    23836600.006
       212.000         156.000
   4509916.08649   3515065.43546  22711800.343    22711798.472    22711813.244
       223.000         171.000
 -19777301.39549 -15386656.71247  19681327.839    19681327.325    19681336.187
       237.000         202.000
 -23274959.57649 -18115779.87847  20603427.211    20603426.400    20603438.162
       242.000         201.000
 -20367987.51049 -15593536.96846  21976991.106    21976990.039    21977000.755
       229.000         176.000
   4172919.34849   3253605.98147  21801822.012    21801820.304    21801830.879
       232.000         188.000
 -17200790.86049 -13378687.91047  20561169.871    20561168.894    20561178.199
       244.000         206.000
 00  4 27 17 18 29.9980000  0  7G16G 2G 4G24G 5G 7G 9
  -4868517.10549  -3593554.35645  23827195.773    23827194.987    23827212.331
       211.000         153.000
   4560470.24649   3554457.99346  22721420.720    22721418.830    22721433.651
       224.000         171.000
 -19798855.74349 -15403452.31347  19677226.177    19677225.659    19677234.539
       237.000         202.000
 -23372547.98349 -18191822.73247  20584856.712    20584855.924    20584867.671
       242.000         201.000
 -20474209.06649 -15676306.98246  21956777.789    21956776.698    21956787.380
       228.000         177.000
   4210733.02949   3283071.08846  21809017.744    21809016.077    21809026.706
       232.000         187.000
 -17214168.84149 -13389112.36047  20558624.172    20558623.188    20558632.511
       244.000         206.000
 00  4 27 17 18 59.9980000  0  7G16G 2G 4G24G 5G 7G 9
  -4917367.00649  -3631619.04245  23817899.877    23817899.043    23817916.417
       215.000         155.000
   4611256.15249   3594031.14646  22731085.229    22731083.322    22731098.159
       224.000         170.000
 -19819824.74549 -15419791.80047  19673235.909    19673235.410    19673244.297
       238.000         202.000
 -23469693.26549 -18267520.32447  20566370.554    20566369.784    20566381.495
       242.000         201.000
 -20580348.78049 -15759013.21546  21936579.991    21936578.947    21936589.621
       228.000         177.000
   4248608.15849   3312584.08146  21816225.151    21816223.550    21816234.184
       232.000         187.000
 -17226982.10549 -13399096.77247  20556185.889    20556184.939    20556194.268
       244.000         206.000
 00  4 27 17 19 29.9970000  0  7G16G 2G 4G24G 5G 7G 9
  -4965725.48449  -3669300.85845  23808697.368    23808696.597    23808713.924
       209.000         152.000
   4662288.68149   3633796.49346  22740796.630    22740794.701    22740809.577
       224.000         170.000
 -19840185.56149 -15435657.38147  19669361.391    19669360.897    19669369.781
       237.000         202.000
 -23566372.22049 -18342854.51947  20547973.177    20547972.374    20547984.068
       242.000         201.000
 -20686384.32849 -15841638.28546  21916402.022    21916401.028    21916411.687
       229.000         178.000
   4286538.90849   3342140.39346  21823443.204    21823441.609    21823452.274
       232.000         187.000
 -17239216.90449 -13408630.43347  20553857.731    20553856.777    20553866.113
       244.000         206.000
 00  4 27 17 19 59.9970000  0  7G16G 2G 4G24G 5G 7G 9
  -5013608.29449  -3706611.98045  23799585.468    23799584.638    23799601.996
       207.000         151.000
   4713561.61349   3673749.15146  22750553.804    22750551.847    22750566.750
       223.000         169.000
 -19859918.31049 -15451033.56147  19665606.403    19665605.881    19665614.769
       237.000         202.000
 -23662589.93349 -18417829.30647  20529663.551    20529662.736    20529674.415
       242.000         201.000
 -20792328.98749 -15924192.53546  21896241.406    21896240.384    21896251.065
       228.000         177.000
   4324517.29649   3371733.83446  21830670.336    21830668.741    21830679.420
       232.000         187.000
 -17250881.02849 -13417719.41747  20551638.185    20551637.214    20551646.569
       244.000         207.000
 00  4 27 17 20 29.9970000  0  7G16G 2G 4G24G 5G 7G 9
  -5061046.73649  -3743576.91345  23790558.070    23790557.225    23790574.549
       206.000         149.000
   4765072.09049   3713886.89646  22760356.110    22760354.200    22760369.142
       223.000         168.000
 -19879030.99049 -15465926.56747  19661969.346    19661968.845    19661977.729
       237.000         202.000
 -23758363.05149 -18492457.65647  20511438.501    20511437.682    20511449.346
       242.000         201.000
 -20898194.51349 -16006685.13446  21876095.801    21876094.797    21876105.479
       229.000         177.000
   4362534.52549   3401357.53846  21837904.815    21837903.246    21837913.940
       232.000         187.000
 -17261985.56349 -13426372.34847  20549525.101    20549524.133    20549533.489
       245.000         207.000
 00  4 27 17 20 59.9970000  0  7G16G 2G 4G24G 5G 7G 9
  -5108029.70849  -3780186.90145  23781617.316    23781616.585    23781633.877
       207.000         150.000
   4816837.09549   3754222.95246  22770206.850    22770204.982    22770219.983
       222.000         166.000
 -19897520.80749 -15480334.23147  19658450.843    19658450.348    19658459.227
       237.000         201.000
 -23853704.47449 -18566749.58947  20493295.575    20493294.768    20493306.414
       242.000         201.000
 -21003950.96049 -16089092.72846  21855970.969    21855969.990    21855980.640
       229.000         179.000
   4400610.89049   3431027.33846  21845150.632    21845149.036    21845159.739
       232.000         187.000
 -17272524.37149 -13434584.45647  20547519.636    20547518.695    20547528.055
       244.000         207.000
 00  4 27 17 21 29.9970000  0  7G16G 2G 4G24G 5G 7G 9
  -5154544.86749  -3816432.36545  23772765.741    23772764.858    23772782.166
       208.000         147.000
   4868854.81849   3794755.92946  22780105.684    22780103.844    22780118.916
       221.000         166.000
 -19915395.65649 -15494262.70247  19655049.364    19655048.882    19655057.772
       236.000         201.000
 -23948642.36849 -18640727.09947  20475229.431    20475228.650    20475240.290
       242.000         201.000
 -21109610.24749 -16171424.63046  21835864.638    21835863.659    21835874.326
       230.000         179.000
   4438758.82549   3460752.88446  21852410.040    21852408.435    21852419.158
       232.000         187.000
 -17282514.14749 -13442368.74747  20545618.695    20545617.741    20545627.114
       244.000         207.000
 00  4 27 17 21 59.9970000  0  7G16G 2G 4G24G 5G 7G 9
  -5200574.60749  -3852299.62545  23764006.568    23764005.630    23764022.837
       205.000         146.000
   4921146.48049   3835502.38246  22790056.627    22790054.825    22790069.955
       222.000         164.000
 -19932640.02749 -15507699.88547  19651767.864    19651767.387    19651776.298
       237.000         201.000
 -24043152.58249 -18714371.38247  20457244.666    20457243.922    20457255.542
       242.000         201.000
 -21215152.09649 -16253665.00846  21815780.677    21815779.674    21815790.353
       229.000         179.000
   4477008.92549   3490558.02846  21859688.879    21859687.274    21859698.013
       232.000         187.000
 -17291934.46649 -13449709.30047  20543826.113    20543825.159    20543834.546
       244.000         207.000
 00  4 27 17 22 29.9970000  0  7G16G 2G 4G24G 5G 7G 9
  -5246137.23649  -3887802.87545  23755336.294    23755335.276    23755352.345
       211.000         147.000
   4973702.44449   3876454.78846  22800057.879    22800056.101    22800071.309
       221.000         163.000
 -19949305.30549 -15520685.83347  19648596.601    19648596.106    19648605.023
       237.000         201.000
 -24137249.69249 -18787693.76147  20439338.531    20439337.802    20439349.402
       242.000         201.000
 -21320598.81349 -16335831.27746  21795714.853    21795713.812    21795724.469
       232.000         180.000
   4515332.99849   3520420.81146  21866981.803    21866980.193    21866990.955
       231.000         186.000
 -17300803.96749 -13456620.64547  20542138.363    20542137.407    20542146.800
       244.000         207.000
 00  4 27 17 22 59.9970000  0  7G16G 2G 4G24G 5G 7G 9
  -5291210.69549  -3922924.98245  23746759.037    23746758.052    23746775.057
       206.000         146.000
   5026531.22349   3917619.75945  22810111.095    22810109.311    22810124.594
       221.000         162.000
 -19965384.37849 -15533214.99947  19645536.894    19645536.373    19645545.282
       237.000         201.000
 -24230911.44049 -18860676.89447  20421515.277    20421514.527    20421526.122
       242.000         201.000
 -21425942.16249 -16417917.00146  21775668.695    21775667.627    21775678.259
       231.000         181.000
   4553731.55649   3550341.64146  21874288.906    21874287.282    21874298.086
       232.000         186.000
 -17309118.81849 -13463099.80347  20540556.138    20540555.193    20540564.591
       244.000         207.000
 00  4 27 17 23 29.9970000  0  7G16G 2G 4G24G 5G 7G 9
  -5335775.77549  -3957650.96945  23738278.438    23738277.494    23738294.479
       205.000         145.000
   5079645.28249   3959007.00945  22820218.590    22820216.770    22820232.126
       221.000         161.000
 -19980858.06049 -15545272.43547  19642592.365    19642591.862    19642600.747
       237.000         202.000
 -24324096.76949 -18933288.77547  20403782.655    20403781.914    20403793.501
       242.000         201.000
 -21531166.58849 -16499910.07946  21755645.136    21755644.066    21755654.691
       231.000         181.000
   4592211.54549   3580325.92246  21881611.561    21881609.890    21881620.721
       231.000         186.000
 -17316859.51749 -13469131.56547  20539083.139    20539082.216    20539091.633
       244.000         207.000
 00  4 27 17 23 59.9970000  0  7G16G 2G 4G24G 5G 7G 9
  -5379844.15649  -3991989.92645  23729892.423    23729891.473    23729908.375
       210.000         147.000
   5133031.34949   4000606.21145  22830377.821    22830376.027    22830391.434
       222.000         161.000
 -19995751.19749 -15556877.50047  19639758.307    19639757.803    19639766.660
       237.000         201.000
 -24416795.12349 -19005521.15747  20386142.681    20386141.958    20386153.546
       241.000         201.000
 -21636269.93949 -16581808.78046  21735644.660    21735643.565    21735654.200
       232.000         182.000
   4630749.28249   3610355.20946  21888945.110    21888943.478    21888954.327
       232.000         186.000
 -17324033.74149 -13474721.92047  20537717.904    20537717.020    20537726.447
       244.000         207.000
 00  4 27 17 24 29.9970000  0  7G16G 2G 4G24G 5G 7G 9
  -5423421.03849  -4025945.90145  23721600.177    23721599.082    23721615.840
       207.000         147.000
   5186672.97949   4042404.57245  22840585.707    22840583.880    22840599.404
       222.000         160.000
 -20010081.57849 -15568044.05247  19637031.363    19637030.833    19637039.708
       237.000         201.000
 -24509025.74749 -19077389.08747  20368591.691    20368591.009    20368602.585
       242.000         201.000
 -21741257.74249 -16663617.44446  21715666.133    21715665.052    21715675.652
       230.000         182.000
   4669322.82449   3640412.41246  21896285.492    21896283.874    21896294.759
       231.000         185.000
 -17330670.80849 -13479893.70747  20536454.888    20536454.025    20536463.476
       244.000         207.000
 00  4 27 17 24 59.9970000  0  7G16G 2G 4G24G 5G 7G 9
  -5466513.67649  -4059524.57345  23713399.942    23713398.780    23713415.419
       211.000         149.000
   5240557.34449   4084392.04845  22850839.800    22850838.006    22850853.556
       219.000         162.000
 -20023823.19749 -15578751.83447  19634416.436    19634415.929    19634424.781
       237.000         202.000
 -24600801.22449 -19148902.38447  20351127.353    20351126.663    20351138.230
       242.000         201.000
 -21846115.10549 -16745324.47146  21695712.382    21695711.349    21695721.965
       231.000         181.000
   4707941.75849   3670505.00146  21903634.530    21903632.906    21903643.837
       232.000         186.000
 -17336781.73749 -13484655.51847  20535292.042    20535291.186    20535300.652
       244.000         207.000
 00  4 27 17 25 29.9970000  0  7G16G 2G 4G24G 5G 7G 9
  -5509130.56249  -4092732.53045  23705290.162    23705289.047    23705305.577
       211.000         145.000
   5294683.42449   4126567.87345  22861139.905    22861138.078    22861153.719
       220.000         160.000
 -20036971.36949 -15588997.19047  19631914.461    19631913.953    19631922.789
       237.000         201.000
 -24692119.81849 -19220059.68847  20333749.953    20333749.267    20333760.808
       242.000         202.000
 -21950823.62049 -16826915.51846  21675786.996    21675785.967    21675796.606
       230.000         182.000
   4746619.46949   3700643.36846  21910994.728    21910993.130    21911004.059
       231.000         185.000
 -17342346.60649 -13488991.83647  20534233.149    20534232.277    20534241.732
       244.000         207.000
 00  4 27 17 25 59.9970000  0  7G16G 2G 4G24G 5G 7G 9
  -5551271.23549  -4125569.41645  23697271.092    23697269.930    23697286.441
       207.000         147.000
   5349062.04449   4168940.48345  22871488.100    22871486.238    22871501.936
       219.000         160.000
 -20049521.92949 -15598776.86947  19629526.207    19629525.679    19629534.519
       237.000         201.000
 -24782987.43349 -19290865.56947  20316458.389    20316457.717    20316469.219
       242.000         202.000
 -22055377.92549 -16908386.37646  21655890.969    21655889.926    21655900.585
       232.000         183.000
   4785365.15149   3730834.71346  21918367.905    21918366.267    21918377.220
       231.000         185.000
 -17347342.20849 -13492884.56447  20533282.585    20533281.690    20533291.140
       244.000         206.000
 00  4 27 17 26 29.9970000  0  7G16G 2G 4G24G 5G 7G 9
  -5592941.50349  -4158039.78345  23689341.493    23689340.252    23689356.801
       209.000         145.000
   5403680.47649   4211499.95845  22881881.954    22881880.019    22881895.785
       219.000         161.000
 -20061454.47449 -15608074.98647  19627255.564    19627255.041    19627263.862
       237.000         202.000
 -24873422.52149 -19361334.41847  20299249.134    20299248.442    20299259.916
       242.000         202.000
 -22159779.41049 -16989738.15746  21636024.012    21636022.964    21636033.628
       231.000         183.000
   4824183.41449   3761082.60546  21925754.820    21925753.197    21925764.168
       231.000         184.000
 -17351770.71249 -13496335.39447  20532439.897    20532439.016    20532448.454
       244.000         206.000
 00  4 27 17 26 59.9970000  0  7G16G 2G 4G24G 5G 7G 9
  -5634145.72949  -4190146.98445  23681500.461    23681499.251    23681515.802
       207.000         146.000
   5458527.13849   4254237.26345  22892319.248    22892317.282    22892333.053
       216.000         161.000
 -20072771.54949 -15616893.51647  19625102.060    19625101.512    19625110.316
       237.000         202.000
 -24963430.10549 -19431470.15347  20282121.277    20282120.549    20282131.969
       242.000         202.000
 -22264036.01949 -17070977.04546  21616184.620    21616183.583    21616194.249
       231.000         183.000
   4863080.74149   3791392.09946  21933156.857    21933155.203    21933166.198
       230.000         184.000
 -17355618.76949 -13499333.93747  20531707.699    20531706.786    20531716.221
       244.000         206.000
 00  4 27 17 27 29.9970000  0  7G16G 2G 4G24G 5G 7G 9
  -5674842.18049  -4221858.50045  23673756.031    23673754.916    23673771.425
       204.000         146.000
   5513626.82049   4297171.72445  22902804.643    22902802.671    22902818.515
       217.000         161.000
 -20083471.89349 -15625231.47747  19623065.892    19623065.339    19623074.149
       238.000         202.000
 -25052978.92649 -19501248.41547  20265080.626    20265079.930    20265091.318
       243.000         202.000
 -22368144.29149 -17152100.34446  21596373.487    21596372.435    21596383.088
       232.000         182.000
   4902064.37949   3821768.83946  21940575.235    21940573.619    21940584.651
       230.000         184.000
 -17358855.95349 -13501856.47047  20531091.691    20531090.806    20531100.229
       244.000         206.000
 00  4 27 17 27 59.9970000  0  7G16G 2G 4G24G 5G 7G 9
  -5715039.06549  -4253180.77345  23666106.681    23666105.632    23666122.140
       210.000         146.000
   5568950.71749   4340280.90145  22913332.694    22913330.720    22913346.599
       218.000         160.000
 -20093576.60049 -15633105.30647  19621143.056    19621142.512    19621151.313
       238.000         202.000
 -25142097.85449 -19570691.70847  20248121.833    20248121.138    20248132.505
       243.000         203.000
 -22472134.94049 -17233131.98446  21576584.720    21576583.646    21576594.296
       233.000         182.000
   4941103.60749   3852188.89546  21948004.202    21948002.596    21948013.690
       228.000         184.000
 -17361529.86249 -13503940.09347  20530582.941    20530582.022    20530591.448
       245.000         206.000
 00  4 27 17 28 29.9970000  0  7G16G 2G 4G24G 5G 7G 9
  -5754740.85849  -4284117.20445  23658551.565    23658550.564    23658567.146
       205.000         145.000
   5624483.83149   4383553.08845  22923900.568    22923898.574    22923914.545
       215.000         161.000
 -20103098.59649 -15640525.07547  19619331.099    19619330.559    19619339.350
       238.000         202.000
 -25230786.56949 -19639799.75347  20231244.905    20231244.196    20231255.554
       243.000         203.000
 -22576013.61949 -17314076.39446  21556817.257    21556816.190    21556826.807
       232.000         184.000
   4980194.07549   3882648.86546  21955442.881    21955441.326    21955452.480
       229.000         184.000
 -17363663.85449 -13505602.99947  20530176.940    20530175.995    20530185.416
       245.000         206.000
 00  4 27 17 28 59.9970000  0  7G16G 2G 4G24G 5G 7G 9
  -5793950.11849  -4314669.83645  23651090.047    23651089.131    23651105.895
       205.000         144.000
   5680241.67449   4427000.38645  22934511.173    22934509.182    22934525.265
       215.000         160.000
 -20112059.88649 -15647507.92247  19617625.808    19617625.299    19617634.083
       237.000         202.000
 -25319022.50849 -19708554.98647  20214454.108    20214453.420    20214464.773
       242.000         203.000
 -22679785.72149 -17394937.74746  21537070.090    21537069.023    21537079.606
       233.000         184.000
   5019325.50349   3913140.75346  21962889.388    21962887.852    21962899.068
       228.000         184.000
 -17365256.40549 -13506844.00247  20529873.983    20529873.010    20529882.424
       245.000         207.000
 00  4 27 17 29 29.9970000  0  7G16G 2G 4G24G 5G 7G 9
  -5832645.17849  -4344821.82445  23643726.595    23643725.677    23643742.488
       209.000         145.000
   5736253.35049   4470645.46745  22945170.046    22945168.074    22945184.289
       216.000         160.000
 -20120428.50549 -15654028.95547  19616033.308    19616032.815    19616041.609
       237.000         201.000
 -25406770.27049 -19776929.83247  20197756.254    20197755.559    20197766.885
       243.000         203.000
 -22783424.80849 -17475695.44946  21517348.246    21517347.160    21517357.707
       233.000         183.000
   5058514.34549   3943677.40546  21970346.880    21970345.325    21970356.604
       228.000         184.000
 -17366296.27949 -13507654.34947  20529676.161    20529675.193    20529684.610
       244.000         207.000
 00  4 27 17 29 59.9970000  0  7G16G 2G 4G24G 5G 7G 9
  -5870841.33049  -4374585.00345  23636458.044    23636457.136    23636473.889
       208.000         144.000
   5792514.64049   4514485.04845  22955876.527    22955874.488    22955890.821
       214.000         159.000
 -20128200.88649 -15660085.38347  19614554.276    19614553.795    19614562.588
       237.000         201.000
 -25494028.56649 -19844923.29047  20181151.528    20181150.819    20181162.133
       243.000         203.000
 -22886918.99849 -17556340.23046  21497653.967    21497652.865    21497663.391
       232.000         184.000
   5097768.05849   3974264.59846  21977816.716    21977815.143    21977826.484
       228.000         183.000
 -17366795.03649 -13508043.04547  20529581.291    20529580.334    20529589.753
       245.000         207.000
 00  4 27 17 30 29.9970000  0  7G16G 2G 4G24G 5G 7G 9
  -5908556.54849  -4403973.45045  23629281.142    23629280.158    23629296.900
       209.000         146.000
   5849013.49649   4558509.74045  22966628.176    22966626.117    22966642.518
       214.000         159.000
 -20135410.01749 -15665702.91547  19613182.447    19613181.968    19613190.761
       237.000         202.000
 -25580806.70849 -19912542.60347  20164638.160    20164637.465    20164648.762
       243.000         203.000
 -22990292.32549 -17636890.84046  21477982.639    21477981.569    21477992.048
       233.000         183.000
   5137065.89649   4004886.16646  21985294.939    21985293.371    21985304.738
       228.000         183.000
 -17366767.47249 -13508021.62747  20529586.584    20529585.629    20529595.060
       245.000         207.000
 00  4 27 17 30 59.9970000  0  7G16G 2G 4G24G 5G 7G 9
  -5945785.90049  -4432983.28045  23622196.796    23622195.661    23622212.313
       211.000         145.000
   5905754.96849   4602723.49245  22977425.993    22977423.947    22977440.379
       214.000         159.000
 -20142045.97249 -15670873.81547  19611919.698    19611919.203    19611927.999
       237.000         202.000
 -25667105.90649 -19979788.71347  20148215.944    20148215.246    20148226.529
       242.000         203.000
 -23093547.32149 -17717349.23646  21458333.818    21458332.765    21458343.229
       233.000         184.000
   5176412.52649   4035545.75746  21992782.471    21992780.876    21992792.284
       228.000         182.000
 -17366209.44949 -13507586.86147  20529692.841    20529691.872    20529701.309
       245.000         207.000
 00  4 27 17 31 29.9970000  0  7G16G 2G 4G24G 5G 7G 9
  -5982500.77549  -4461592.26845  23615210.302    23615209.092    23615225.607
       209.000         146.000
   5962745.00949   4647130.91345  22988271.095    22988269.055    22988285.601
       215.000         158.000
 -20148080.25149 -15675575.87147  19610771.466    19610770.961    19610779.753
       238.000         201.000
 -25752916.32349 -20046653.94047  20131886.737    20131886.034    20131897.300
       242.000         202.000
 -23196671.90749 -17797706.02846  21438709.900    21438708.806    21438719.249
       234.000         184.000
   5215834.76949   4066264.27346  22000284.400    22000282.797    22000294.217
       228.000         182.000
 -17365107.29149 -13506728.08947  20529902.645    20529901.661    20529911.110
       245.000         207.000
 00  4 27 17 31 59.9970000  0  7G16G 2G 4G24G 5G 7G 9
  -6018715.35349  -4489811.34445  23608319.132    23608317.790    23608334.218
       210.000         148.000
   6019962.09049   4691715.26845  22999159.428    22999157.395    22999174.052
       215.000         158.000
 -20153537.58749 -15679828.36147  19609733.011    19609732.505    19609741.282
       238.000         202.000
 -25838260.71449 -20113156.02847  20115646.232    20115645.531    20115656.772
       242.000         203.000
 -23299684.22649 -17877975.34046  21419107.233    21419106.209    21419116.607
       233.000         184.000
   5255319.93449   4097031.78946  22007798.302    22007796.700    22007808.126
       229.000         182.000
 -17363467.85149 -13505450.65847  20530214.658    20530213.692    20530223.145
       244.000         207.000
 00  4 27 17 32 29.9970000  0  7G16G 2G 4G24G 5G 7G 9
  -6054412.38849  -4517627.15745  23601526.232    23601524.881    23601541.326
       207.000         145.000
   6077423.03449   4736489.62945  23010094.216    23010092.146    23010108.889
       216.000         159.000
 -20158398.06749 -15683615.77247  19608808.117    19608807.617    19608816.383
       238.000         202.000
 -25923127.48549 -20179285.93547  20099496.592    20099495.889    20099507.130
       242.000         203.000
 -23402568.60149 -17958144.95746  21399528.988    21399527.943    21399538.323
       233.000         184.000
   5294881.25249   4127858.65146  22015326.687    22015325.053    22015336.494
       228.000         182.000
 -17361273.61849 -13503740.92147  20530632.231    20530631.283    20530640.756
       244.000         207.000
 00  4 27 17 32 59.9970000  0  7G16G 2G 4G24G 5G 7G 9
  -6089583.88949  -4545033.40045  23594833.192    23594831.918    23594848.341
       208.000         146.000
   6135138.15449   4781462.05545  23021077.306    23021075.258    23021092.088
       217.000         159.000
 -20162636.28749 -15686918.30247  19608001.616    19608001.104    19608009.897
       237.000         202.000
 -26007507.45449 -20245036.51147  20083439.585    20083438.881    20083450.117
       244.000         203.000
 -23505304.02449 -18038198.50246  21379979.084    21379978.029    21379988.382
       233.000         184.000
   5334522.41749   4158747.74246  22022870.316    22022868.622    22022880.088
       228.000         182.000
 -17358510.10949 -13501587.59447  20531158.142    20531157.200    20531166.698
       244.000         207.000
 00  4 27 17 33 29.9970000  0  7G16G 2G 4G24G 5G 7G 9
  -6124274.84149  -4572065.22645  23588231.621    23588230.410    23588246.814
       208.000         146.000
   6193052.59049   4826589.78245  23032098.280    23032096.290    23032113.202
       216.000         158.000
 -20166322.87249 -15689790.99147  19607300.077    19607299.586    19607308.384
       237.000         202.000
 -26091461.02049 -20310454.82847  20067463.696    20067463.011    20067474.249
       244.000         203.000
 -23607923.57049 -18118161.74446  21360451.256    21360450.162    21360460.508
       234.000         185.000
   5374177.79849   4189647.90646  22030416.567    22030414.902    22030426.377
       228.000         182.000
 -17355241.34949 -13499040.56247  20531780.169    20531779.267    20531788.788
       244.000         207.000
 00  4 27 17 33 59.9970000  0  7G16G 2G 4G24G 5G 7G 9
  -6158427.79449  -4598677.75745  23581732.537    23581731.263    23581747.655
       212.000         148.000
   6251236.59249   4871927.55145  23043170.628    23043168.591    23043185.605
       218.000         159.000
 -20169412.52449 -15692198.53447  19606712.153    19606711.683    19606720.466
       238.000         202.000
 -26174935.64349 -20375499.93647  20051578.958    20051578.279    20051589.525
       243.000         203.000
 -23710345.83749 -18197971.24246  21340960.929    21340959.845    21340970.167
       233.000         185.000
   5413897.87749   4220598.50046  22037975.122    22037973.473    22037984.975
       228.000         181.000
 -17351403.87349 -13496050.37347  20532510.440    20532509.535    20532519.096
       244.000         207.000
 00  4 27 17 34 29.9970000  0  7G16G 2G 4G24G 5G 7G 9
  -6192053.07149  -4624879.12245  23575334.107    23575332.682    23575348.923
       210.000         146.000
   6309682.06449   4917469.06545  23054292.731    23054290.696    23054307.785
       218.000         158.000
 -20171933.30949 -15694162.80447  19606232.467    19606232.019    19606240.777
       238.000         202.000
 -26257938.26049 -20440177.25047  20035784.014    20035783.360    20035794.610
       243.000         204.000
 -23812586.44249 -18277639.20046  21321505.133    21321504.080    21321514.398
       234.000         185.000
   5453654.22149   4251577.35746  22045540.569    22045538.954    22045550.482
       227.000         182.000
 -17347024.19549 -13492637.69847  20533343.833    20533342.966    20533352.564
       244.000         207.000
 00  4 27 17 34 59.9970000  0  7G16G 2G 4G24G 5G 7G 9
  -6225173.46249  -4650687.07045  23569031.516    23569030.052    23569046.178
       210.000         148.000
   6368362.43149   4963193.60245  23065459.547    23065457.502    23065474.642
       217.000         158.000
 -20173919.87249 -15695710.80847  19605854.502    19605854.015    19605862.783
       238.000         202.000
 -26340489.44749 -20504502.80147  20020075.020    20020074.357    20020085.612
       243.000         204.000
 -23914672.46349 -18357186.71446  21302078.766    21302077.727    21302088.044
       233.000         185.000
   5493415.41249   4282559.96646  22053106.969    22053105.353    22053116.907
       226.000         181.000
 -17342131.14049 -13488824.99247  20534274.978    20534274.114    20534283.726
       245.000         207.000
 00  4 27 17 35 29.9970000  0  7G16G 2G 4G24G 5G 7G 9
  -6257790.87649  -4676103.08145  23562824.513    23562823.162    23562839.271
       211.000         147.000
   6427293.06249   5009113.16845  23076674.011    23076671.929    23076689.159
       216.000         156.000
 -20175367.91749 -15696839.18547  19605578.980    19605578.496    19605587.254
       238.000         202.000
 -26422565.99349 -20568458.50047  20004456.356    20004455.691    20004466.944
       244.000         204.000
 -24016594.78049 -18436606.68246  21282683.569    21282682.532    21282692.831
       233.000         185.000
   5533201.61449   4313562.07546  22060678.070    22060676.514    22060688.086
       226.000         181.000
 -17336708.73649 -13484599.80147  20535306.877    20535305.998    20535315.620
       245.000         207.000
 00  4 27 17 35 59.9970000  0  7G16G 2G 4G24G 5G 7G 9
  -6289928.59249  -4701145.26945  23556708.888    23556707.513    23556723.509
       209.000         147.000
   6486468.46949   5055223.45045  23087934.990    23087932.920    23087950.249
       214.000         156.000
 -20176268.93649 -15697541.30647  19605407.550    19605407.056    19605415.804
       239.000         202.000
 -26504152.80649 -20632032.58547  19988930.924    19988930.222    19988941.479
       244.000         204.000
 -24118383.24749 -18515922.35846  21263313.833    21263312.817    21263323.073
       234.000         185.000
   5573020.41549   4344589.57846  22068255.402    22068253.858    22068265.474
       227.000         181.000
 -17330755.55649 -13479961.02347  20536439.822    20536438.913    20536448.538
       245.000         207.000
 00  4 27 17 36 29.9970000  0  7G16G 2G 4G24G 5G 7G 9
  -6321576.71749  -4725805.98745  23550686.399    23550685.035    23550700.980
       207.000         146.000
   6545890.73449   5101526.09945  23099243.031    23099240.918    23099258.352
       213.000         154.000
 -20176597.64449 -15697797.47447  19605345.065    19605344.549    19605353.273
       239.000         202.000
 -26585225.94149 -20695206.40847  19973503.207    19973502.496    19973513.740
       243.000         204.000
 -24220028.32249 -18595126.31146  21243971.397    21243970.379    21243980.611
       233.000         186.000
   5612889.80649   4375656.52646  22075842.477    22075840.847    22075852.497
       229.000         181.000
 -17324265.68549 -13474904.04147  20537674.888    20537673.970    20537683.584
       245.000         207.000
 00  4 27 17 36 59.9970000  0  7G16G 2G 4G24G 5G 7G 9
  -6352745.53249  -4750093.20045  23544754.907    23544753.719    23544769.526
       209.000         145.000
   6605538.23549   5148004.24545  23110593.891    23110591.718    23110609.312
       212.000         154.000
 -20176350.76749 -15697605.13347  19605392.094    19605391.564    19605400.292
       239.000         203.000
 -26665806.42449 -20757996.34447  19958169.235    19958168.512    19958179.753
       243.000         203.000
 -24321520.59249 -18674211.20646  21224658.038    21224657.027    21224667.232
       233.000         185.000
   5652813.31149   4406765.61846  22083439.736    22083438.145    22083449.831
       227.000         182.000
 -17317240.26749 -13469429.75947  20539011.882    20539010.937    20539020.550
       245.000         207.000
 00  4 27 17 37 29.9970000  0  7G16G 2G 4G24G 5G 7G 9
  -6383444.55049  -4774014.38345  23538912.923    23538911.859    23538927.672
       205.000         146.000
   6665384.18749   5194637.00145  23121982.457    23121980.313    23121998.063
       210.000         153.000
 -20175544.38049 -15696976.80647  19605545.588    19605545.052    19605553.772
       239.000         203.000
 -26745905.69349 -20820411.31347  19942926.800    19942926.089    19942937.316
       243.000         203.000
 -24422864.77249 -18753180.70746  21205372.871    21205371.837    21205382.043
       234.000         185.000
   5692788.49349   4437914.97146  22091046.893    22091045.275    22091056.988
       229.000         182.000
 -17309693.93849 -13463549.57247  20540447.995    20540447.018    20540456.640
       245.000         207.000
 00  4 27 17 37 59.9970000  0  7G16G 2G 4G24G 5G 7G 9
  -6413620.82549  -4797528.19145  23533170.289    23533169.315    23533185.137
       207.000         146.000
   6725437.35749   5241431.22445  23133410.465    23133408.314    23133426.182
       210.000         153.000
 -20174150.87049 -15695890.98347  19605810.816    19605810.267    19605818.969
       239.000         203.000
 -26825507.29049 -20882438.48147  19927779.123    19927778.388    19927789.608
       243.000         203.000
 -24524029.21649 -18832010.13046  21186121.891    21186120.869    21186131.039
       235.000         186.000
   5732842.00349   4469125.36646  22098668.963    22098667.339    22098679.053
       228.000         182.000
 -17301621.23149 -13457259.21847  20541984.245    20541983.262    20541992.904
       245.000         207.000
 00  4 27 17 38 29.9970000  0  7G16G 2G 4G24G 5G 7G 9
  -6443221.76349  -4820593.70545  23527537.334    23527536.337    23527551.988
       209.000         144.000
   6785717.01349   5288401.90845  23144881.615    23144879.477    23144897.417
       211.000         152.000
 -20172145.42049 -15694328.32847  19606192.477    19606191.916    19606200.625
       240.000         204.000
 -26904598.84849 -20944068.21747  19912728.419    19912727.726    19912738.932
       243.000         203.000
 -24624968.03849 -18910663.72646  21166913.861    21166912.857    21166922.987
       235.000         186.000
   5772983.54149   4500404.34146  22106307.844    22106306.150    22106317.880
       228.000         182.000
 -17293001.15549 -13450542.34847  20543624.650    20543623.676    20543633.323
       245.000         207.000
 00  4 27 17 38 59.9970000  0  8G16G 2G 4G24G 5G 7G30G 9
  -6472283.20949  -4843238.84645  23522006.718    23522005.920    23522021.683
       208.000         144.000
   6846190.86549   5335523.92345  23156389.813    23156387.577    23156405.587
       210.000         153.000
 -20169576.98249 -15692326.98547  19606681.249    19606680.707    19606689.409
       240.000         204.000
 -26983216.76049 -21005328.88247  19897767.850    19897767.181    19897778.377
       243.000         204.000
 -24725728.36149 -18989178.24446  21147739.795    21147738.801    21147748.907
       234.000         187.000
   5813175.02449   4531722.20946  22113956.159    22113954.470    22113966.195
       228.000         181.000
  -2255938.99959  -1150362.01955  24320810.215    24320810.152    24320823.886
       223.000         150.000
 -17283871.77449 -13443428.61947  20545361.953    20545360.997    20545370.644
       245.000         207.000
 00  4 27 17 39 29.9970000  0  8G16G 2G 4G24G 5G 7G30G 9
  -6500784.92449  -4865447.84445  23516582.968    23516582.060    23516597.933
       208.000         146.000
   6906900.30949   5382829.49945  23167942.748    23167940.539    23167958.663
       210.000         154.000
 -20166432.52549 -15689876.79347  19607279.633    19607279.111    19607287.818
       240.000         204.000
 -27061319.47649 -21066188.08747  19882905.349    19882904.695    19882915.883
       243.000         204.000
 -24826308.09549 -19067552.01746  21128600.123    21128599.092    21128609.203
       234.000         187.000
   5853431.21249   4563090.52346  22121616.786    22121615.090    22121626.849
       227.000         180.000
  -2380007.48549  -1247038.73845  24297200.811    24297200.638    24297214.348
       215.000         140.000
 -17274219.79549 -13435907.66547  20547198.695    20547197.755    20547207.419
       245.000         207.000
 00  4 27 17 39 59.9970000  0  8G16G 2G 4G24G 5G 7G30G 9
  -6528725.33349  -4887219.43845  23511266.038    23511265.080    23511281.008
       209.000         148.000
   6967862.77049   5430332.22745  23179543.890    23179541.621    23179559.868
       211.000         155.000
 -20162701.54749 -15686969.58047  19607989.594    19607989.107    19607997.830
       239.000         203.000
 -27138913.58149 -21126650.97347  19868139.655    19868138.993    19868150.170
       243.000         204.000
 -24926710.30649 -19145787.47247  21109494.176    21109493.176    21109503.272
       234.000         188.000
   5893737.20249   4594497.66246  22129286.811    22129285.160    22129296.951
       228.000         181.000
  -2504142.42149  -1343767.06745  24273578.596    24273578.481    24273592.352
       213.000         151.000
 -17264033.30249 -13427970.21247  20549137.149    20549136.225    20549145.894
       245.000         207.000
 00  4 27 17 40 29.9970000  0  8G16G 2G 4G24G 5G 7G30G 9
  -6556139.09349  -4908580.67545  23506049.204    23506048.333    23506064.310
       208.000         147.000
   7029069.54249   5478025.34145  23191191.446    23191189.255    23191207.576
       212.000         155.000
 -20158423.45049 -15683636.03947  19608803.673    19608803.211    19608811.953
       240.000         203.000
 -27216021.83149 -21186735.26747  19853466.388    19853465.742    19853476.897
       243.000         204.000
 -25026949.01649 -19223895.52547  21090419.362    21090418.353    21090428.456
       235.000         188.000
   5934064.05649   4625921.03046  22136960.833    22136959.199    22136971.029
       228.000         181.000
  -2628363.74149  -1440562.90545  24249940.090    24249939.944    24249953.744
       213.000         141.000
 -17253309.48049 -13419614.06447  20551177.867    20551176.958    20551186.652
       244.000         207.000
 00  4 27 17 40 59.9970000  0  8G16G 2G 4G24G 5G 7G30G 9
  -6583040.05049  -4929542.29445  23500929.775    23500929.071    23500945.098
       208.000         147.000
   7090532.93649   5525918.39945  23202887.879    23202885.672    23202904.112
       211.000         155.000
 -20153598.49049 -15679876.37747  19609721.841    19609721.387    19609730.131
       240.000         203.000
 -27292619.77549 -21246421.91947  19838890.230    19838889.599    19838900.749
       243.000         204.000
 -25127017.64249 -19301871.03447  21071376.872    21071375.903    21071386.001
       235.000         188.000
   5974427.59349   4657372.98646  22144641.838    22144640.231    22144652.111
       228.000         180.000
  -2752650.08649  -1537409.18845  24226288.929    24226288.780    24226302.759
       214.000         144.000
 -17242041.68949 -13410834.04847  20553322.113    20553321.205    20553330.925
       244.000         207.000
 00  4 27 17 41 29.9970000  0  8G16G 2G 4G24G 5G 7G30G 9
  -6609419.08549  -4950097.24245  23495910.078    23495909.307    23495925.270
       212.000         149.000
   7152247.86349   5574007.44545  23214632.123    23214629.968    23214648.540
       212.000         156.000
 -20148216.57449 -15675682.72547  19610746.034    19610745.566    19610754.303
       240.000         203.000
 -27368706.15349 -21305709.94747  19824411.456    19824410.823    19824421.969
       243.000         204.000
 -25226903.94249 -19379704.47447  21052369.109    21052368.142    21052378.256
       235.000         188.000
   6014825.63449   4688851.83246  22152329.420    22152327.814    22152339.742
       227.000         179.000
  -2876989.43049  -1634296.97245  24202628.097    24202627.806    24202641.655
       214.000         146.000
 -17230224.64949 -13401626.04447  20555570.873    20555569.963    20555579.715
       244.000         207.000
 00  4 27 17 41 59.9970000  0  8G16G 2G 4G24G 5G 7G30G 9
  -6635285.34749  -4970252.63045  23490987.916    23490987.042    23491002.920
       211.000         148.000
   7214182.79049   5622267.90345  23226418.289    23226416.157    23226434.802
       210.000         156.000
 -20142292.67149 -15671066.74247  19611873.363    19611872.882    19611881.604
       240.000         203.000
 -27444307.56349 -21364620.08047  19810024.982    19810024.331    19810035.468
       243.000         204.000
 -25326608.11149 -19457395.98847  21033396.013    21033395.054    21033405.174
       235.000         188.000
   6055246.45249   4720348.42346  22160021.301    22160019.745    22160031.718
       226.000         180.000
  -3001382.01149  -1731226.07745  24178956.744    24178956.630    24178970.456
       209.000         136.000
 -17217875.67649 -13392003.54247  20557920.806    20557919.936    20557929.723
       244.000         207.000
 00  4 27 17 42 29.9970000  0  8G16G 2G 4G24G 5G 7G30G 9
  -6660614.76749  -4989989.71845  23486167.858    23486166.955    23486182.761
       207.000         149.000
   7276355.12649   5670713.34845  23238249.686    23238247.535    23238266.257
       212.000         156.000
 -20135815.60549 -15666019.72847  19613105.983    19613105.478    19613114.176
       240.000         203.000
 -27519396.94249 -21423131.22347  19795735.955    19795735.280    19795746.386
       243.000         204.000
 -25426114.67749 -19534933.55147  21014460.575    21014459.579    21014469.681
       236.000         188.000
   6095726.92749   4751891.49046  22167724.635    22167723.050    22167735.065
       227.000         179.000
  -3125784.97049  -1828163.38745  24155283.786    24155283.560    24155297.217
       215.000         148.000
 -17204983.78049 -13381957.98347  20560374.130    20560373.233    20560383.047
       244.000         207.000
 00  4 27 17 42 59.9970000  0  8G16G 2G 4G24G 5G 7G30G 9
  -6685406.31249  -5009307.72245  23481450.085    23481449.118    23481464.869
       210.000         148.000
   7338760.95549   5719340.69645  23250125.511    23250123.360    23250142.158
       212.000         157.000
 -20128765.73549 -15660526.37347  19614447.626    19614447.076    19614455.770
       241.000         204.000
 -27593962.21349 -21481233.97247  19781546.667    19781545.953    19781557.028
       242.000         204.000
 -25525438.25949 -19612328.51847  20995559.964    20995558.944    20995569.013
       236.000         189.000
   6136277.79749   4783489.42946  22175441.432    22175439.750    22175451.800
       226.000         179.000
  -3250187.02549  -1925099.92045  24131610.639    24131610.577    24131624.236
       207.000         141.000
 -17191561.98749 -13371499.51747  20562928.313    20562927.377    20562937.208
       244.000         207.000
 00  4 27 17 43 29.9970000  0  8G16G 2G 4G24G 5G 7G30G 9
  -6709675.76349  -5028218.79745  23476831.709    23476830.707    23476846.376
       209.000         149.000
   7401373.27349   5768128.97345  23262040.700    23262038.463    23262057.366
       212.000         156.000
 -20121167.70149 -15654605.87747  19615893.544    19615892.982    19615901.649
       240.000         204.000
 -27668053.51949 -21538967.39647  19767447.523    19767446.812    19767457.855
       242.000         204.000
 -25624618.18149 -19689611.53247  20976686.708    20976685.640    20976695.670
       236.000         189.000
   6176875.95149   4815124.21046  22183167.184    22183165.459    22183177.537
       226.000         179.000
  -3374614.57649  -2022056.39045  24107932.762    24107932.637    24107946.315
       215.000         146.000
 -17177637.30149 -13360649.18047  20565578.154    20565577.226    20565587.081
       244.000         207.000
 00  4 27 17 43 59.9970000  0  8G16G 2G 4G24G 5G 7G30G 9
  -6733398.76049  -5046704.15345  23472317.097    23472316.182    23472331.939
       210.000         148.000
   7464222.21949   5817101.60445  23274000.819    23273998.604    23274017.595
       212.000         156.000
 -20113007.62549 -15648247.43247  19617446.397    19617445.825    19617454.494
       240.000         204.000
 -27741648.09249 -21596313.76147  19753442.930    19753442.216    19753453.217
       242.000         204.000
 -25723626.83749 -19766761.09647  20957845.965    20957844.912    20957854.910
       236.000         189.000
   6217550.16049   4846818.26246  22190907.302    22190905.626    22190917.712
       226.000         179.000
  -3499043.78949  -2119014.15545  24084254.743    24084254.500    24084268.160
       212.000         147.000
 -17163191.91249 -13349393.10047  20568327.066    20568326.135    20568336.020
       244.000         207.000
 00  4 27 17 44 29.9970000  0  8G16G 2G 4G24G 5G 7G30G 9
  -6756589.32949  -5064774.64945  23467903.806    23467902.918    23467918.762
       209.000         147.000
   7527296.96649   5866250.18945  23286003.953    23286001.719    23286020.748
       212.000         155.000
 -20104291.46949 -15641455.67747  19619105.079    19619104.496    19619113.151
       241.000         204.000
 -27814746.58749 -21653273.57947  19739532.750    19739532.018    19739542.984
       242.000         204.000
 -25822469.75549 -19843781.53547  20939036.752    20939035.720    20939045.674
       235.000         188.000
   6258292.88149   4878565.67046  22198660.575    22198658.849    22198670.957
       226.000         178.000
  -3623495.32149  -2215989.20545  24060572.426    24060572.026    24060585.779
       217.000         149.000
 -17148232.60349 -13337736.57047  20571173.826    20571172.853    20571182.772
       244.000         207.000
 00  4 27 17 44 59.9970000  0  8G16G 2G 4G24G 5G 7G30G 9
  -6779261.05149  -5082440.83245  23463589.439    23463588.513    23463604.263
       210.000         148.000
   7590583.70649   5915563.98345  23298047.509    23298045.188    23298064.351
       213.000         156.000
 -20095031.50149 -15634240.17447  19620867.222    19620866.657    19620875.306
       241.000         204.000
 -27887345.39349 -21709844.02547  19725717.636    19725716.906    19725727.847
       242.000         204.000
 -25921137.48649 -19920665.45747  20920260.877    20920259.848    20920269.800
       236.000         189.000
   6299092.04249   4910357.05946  22206424.593    22206422.826    22206434.929
       226.000         177.000
  -3747996.95349  -2313003.36345  24036880.505    24036880.155    24036893.763
       211.000         143.000
 -17132782.11049 -13325697.29947  20574114.023    20574113.052    20574122.985
       244.000         207.000
 00  4 27 17 45 29.9970000  0  8G16G 2G 4G24G 5G 7G30G 9
  -6801392.21349  -5099685.80545  23459377.903    23459376.986    23459392.664
       212.000         148.000
   7654100.18749   5965056.80345  23310134.801    23310132.397    23310151.691
       213.000         156.000
 -20085228.06849 -15626601.18747  19622732.825    19622732.230    19622740.887
       241.000         203.000
 -27959433.40249 -21766016.44847  19711999.724    19711998.989    19712009.903
       241.000         204.000
 -26019596.37749 -19997386.66547  20901524.781    20901523.747    20901533.689
       236.000         189.000
   6339948.10949   4942192.82546  22214199.408    22214197.608    22214209.719
       225.000         177.000
  -3872544.58049  -2410053.36845  24013179.796    24013179.485    24013193.082
       214.000         151.000
 -17116832.26149 -13313268.91947  20577149.268    20577148.287    20577158.214
       244.000         206.000
 00  4 27 17 45 59.9970000  0  8G16G 2G 4G24G 5G 7G30G 9
  -6823011.62249  -5116531.97345  23455263.881    23455262.908    23455278.491
       212.000         150.000
   7717811.20249   6014701.26745  23322259.147    23322256.663    23322276.012
       213.000         156.000
 -20074907.97949 -15618559.62047  19624696.721    19624696.126    19624704.772
       241.000         204.000
 -28031005.94049 -21821787.21447  19698379.914    19698379.174    19698390.053
       241.000         204.000
 -26117855.94649 -20073952.55947  20882826.597    20882825.564    20882835.477
       236.000         189.000
   6380832.89149   4974050.95046  22221979.682    22221977.823    22221989.973
       227.000         177.000
  -3997154.30349  -2507151.73145  23989467.428    23989467.027    23989480.474
       216.000         148.000
 -17100410.33449 -13300472.69047  20580274.312    20580273.347    20580283.260
       244.000         206.000
 00  4 27 17 46 29.9970000  0  8G16G 2G 4G24G 5G 7G30G 9
  -6844115.15249  -5132976.19745  23451247.985    23451246.927    23451262.545
       212.000         149.000
   7781721.70749   6064501.22445  23334421.395    23334418.881    23334438.293
       214.000         157.000
 -20064049.82649 -15610098.77547  19626763.018    19626762.409    19626771.050
       241.000         204.000
 -28102048.73349 -21877145.18647  19684860.898    19684860.145    19684871.008
       241.000         204.000
 -26215895.14249 -20150346.73547  20864170.346    20864169.312    20864179.223
       237.000         190.000
   6421753.33049   5005936.86546  22229766.764    22229764.869    22229777.034
       226.000         177.000
  -4121795.75449  -2604274.82845  23965748.785    23965748.490    23965761.851
       211.000         143.000
 -17083505.70249 -13287300.32447  20583491.227    20583490.250    20583500.162
       244.000         205.000
 00  4 27 17 46 59.9970000  0  8G16G 2G 4G24G 5G 7G30G 9
  -6864692.07349  -5149010.06245  23447332.227    23447331.194    23447346.695
       212.000         147.000
   7845848.38749   6114469.60045  23346624.705    23346622.226    23346641.700
       215.000         156.000
 -20052659.54349 -15601223.28347  19628930.563    19628929.957    19628938.601
       241.000         204.000
 -28172558.36249 -21932087.70747  19671443.317    19671442.578    19671453.428
       241.000         204.000
 -26313707.32149 -20226564.02447  20845557.275    20845556.240    20845566.158
       236.000         189.000
   6462696.10349   5037840.20146  22237557.951    22237556.148    22237568.333
       226.000         177.000
  -4246443.85949  -2701403.10845  23942028.900    23942028.597    23942041.975
       209.000         144.000
 -17066120.17849 -13273753.23847  20586799.651    20586798.678    20586808.574
       244.000         205.000
 00  4 27 17 47 29.9970000  0  8G16G 2G 4G24G 5G 7G30G 9
  -6884699.07349  -5164599.88945  23443524.893    23443523.909    23443539.407
       212.000         147.000
   7910220.12349   6164628.97345  23358874.697    23358872.169    23358891.761
       214.000         156.000
 -20040705.49149 -15591908.48747  19631205.417    19631204.803    19631213.426
       241.000         204.000
 -28242520.30849 -21986603.46547  19658129.936    19658129.221    19658140.060
       241.000         203.000
 -26411262.71649 -20302581.20647  20826993.108    20826992.070    20827001.960
       236.000         190.000
   6503680.70149   5069776.10846  22245357.143    22245355.354    22245367.598
       226.000         176.000
  -4371047.34049  -2798496.61345  23918317.357    23918317.195    23918330.663
       210.000         144.000
 -17048204.56049 -13259793.09047  20590208.940    20590207.961    20590217.846
       244.000         205.000
 00  4 27 17 47 59.9970000  0  8G16G 2G 4G24G 5G 7G30G 9
  -6904186.71849  -5179784.95545  23439816.357    23439815.471    23439830.874
       211.000         147.000
   7974779.15049   6214934.23445  23371160.257    23371157.754    23371177.459
       213.000         154.000
 -20028240.46949 -15582195.52647  19633577.506    19633576.869    19633585.484
       241.000         204.000
 -28311991.94849 -22040737.16047  19644909.898    19644909.179    19644920.019
       241.000         204.000
 -26508612.83549 -20378438.41747  20808468.033    20808466.961    20808476.840
       237.000         190.000
   6544663.99549   5101711.00246  22253156.100    22253154.354    22253166.587
       225.000         177.000
  -4495656.55749  -2895594.57945  23894604.744    23894604.684    23894618.244
       215.000         149.000
 -17029804.62349 -13245455.55447  20593710.419    20593709.427    20593719.299
       244.000         205.000
 00  4 27 17 48 29.9970000  0  8G16G 2G 4G24G 5G 7G30G 9
  -6923117.07249  -5194535.81245  23436214.000    23436213.149    23436228.514
       213.000         146.000
   8039566.98449   6265417.81645  23383489.297    23383486.860    23383506.662
       213.000         154.000
 -20015244.94449 -15572069.18847  19636050.496    19636049.893    19636058.510
       241.000         204.000
 -28380954.53849 -22094474.20347  19631786.722    19631786.007    19631796.852
       240.000         204.000
 -26605731.23649 -20454115.07347  20789987.002    20789985.937    20789995.800
       236.000         190.000
   6585677.08749   5133669.10546  22260960.700    22260958.987    22260971.242
       225.000         176.000
  -4620258.06749  -2992686.49045  23870893.824    23870893.698    23870907.319
       218.000         145.000
 -17010888.38049 -13230715.70447  20597310.111    20597309.124    20597318.995
       243.000         205.000
 00  4 27 17 48 59.9970000  0  8G16G 2G 4G24G 5G 7G30G 9
  -6941484.61249  -5208848.08145  23432718.714    23432717.871    23432733.193
       214.000         147.000
   8104570.63149   6316069.58645  23395859.437    23395857.043    23395876.956
       212.000         152.000
 -20001733.70449 -15561540.98447  19638621.645    19638621.045    19638629.663
       241.000         204.000
 -28449419.05549 -22147823.13247  19618758.332    19618757.613    19618768.449
       241.000         203.000
 -26702644.92649 -20529632.20647  20771544.936    20771543.851    20771553.702
       237.000         190.000
   6626717.71049   5165648.65846  22268770.623    22268768.878    22268781.168
       226.000         177.000
  -4744895.51549  -3089806.52845  23847176.152    23847175.986    23847189.470
       212.000         143.000
 -16991464.94449 -13215580.64147  20601006.327    20601005.348    20601015.231
       244.000         205.000
 00  4 27 17 49 29.9970000  0  8G16G 2G 4G24G 5G 7G30G 9
  -6959282.90649  -5222716.78645  23429331.995    23429330.954    23429346.249
       213.000         148.000
   8169783.60649   6366884.49745  23408269.390    23408267.018    23408287.098
       213.000         150.000
 -19987681.85849 -15550591.53047  19641295.638    19641295.061    19641303.681
       241.000         203.000
 -28517367.75649 -22200770.12447  19605828.108    19605827.381    19605838.209
       240.000         203.000
 -26799346.37849 -20604983.96247  20753143.263    20753142.177    20753152.011
       236.000         190.000
   6667819.37849   5197675.78146  22276592.099    22276590.399    22276602.727
       226.000         177.000
  -4869577.36949  -3186961.10045  23823450.010    23823449.729    23823463.214
       217.000         151.000
 -16971516.59049 -13200036.54547  20604802.485    20604801.467    20604811.357
       244.000         205.000
 00  4 27 17 49 59.9970000  0  8G16G 2G 4G24G 5G 7G30G 9
  -6976563.73949  -5236182.28345  23426043.517    23426042.453    23426057.695
       211.000         146.000
   8235172.45649   6417836.35945  23420712.864    23420710.512    23420730.631
       211.000         149.000
 -19973109.53349 -15539236.50547  19644068.683    19644068.118    19644076.746
       241.000         204.000
 -28584814.65849 -22253326.11447  19592993.386    19592992.636    19593003.450
       240.000         203.000
 -26895870.49349 -20680197.53747  20734775.290    20734774.227    20734784.044
       236.000         190.000
   6708961.99649   5229734.80746  22284421.466    22284419.713    22284432.062
       225.000         177.000
  -4994343.64449  -3284181.52545  23799707.722    23799707.442    23799720.868
       212.000         145.000
 -16951081.43449 -13184113.12647  20608691.227    20608690.221    20608700.124
       244.000         205.000
 00  4 27 17 50 29.9970000  0  8G16G 2G 4G24G 5G 7G30G 9
  -6993308.94949  -5249230.37545  23422856.883    23422855.870    23422870.977
       209.000         144.000
   8300754.27349   6468938.56245  23433193.057    23433190.689    23433210.915
       210.000         149.000
 -19957986.50649 -15527452.35747  19646946.527    19646945.959    19646954.604
       241.000         204.000
 -28651741.81849 -22305477.10347  19580257.524    19580256.790    19580267.593
       240.000         203.000
 -26992192.85449 -20755253.92147  20716445.734    20716444.654    20716454.467
       237.000         190.000
   6750163.70349   5261839.87046  22292262.058    22292260.280    22292272.668
       225.000         175.000
  -5119165.10249  -3381444.87045  23775954.695    23775954.580    23775968.037
       218.000         150.000
 -16930141.27649 -13167796.20647  20612676.048    20612675.054    20612684.982
       243.000         205.000
 00  4 27 17 50 59.9970000  0  8G16G 2G 4G24G 5G 7G30G 9
  -7009506.18549  -5261851.54345  23419774.734    23419773.621    23419788.660
       211.000         147.000
   8366544.56549   6520203.22445  23445712.912    23445710.463    23445730.893
       209.000         146.000
 -19942293.21249 -15515223.84947  19649932.892    19649932.327    19649940.973
       241.000         204.000
 -28718140.64449 -22357216.40647  19567622.169    19567621.469    19567632.270
       240.000         203.000
 -27088287.14749 -20830132.58747  20698159.584    20698158.511    20698168.319
       237.000         190.000
   6791435.95249   5293999.90846  22300115.964    22300114.234    22300126.714
       224.000         175.000
  -5244007.93949  -3478724.91345  23752197.675    23752197.712    23752211.237
       215.000         148.000
 -16908685.34449 -13151077.38647  20616759.023    20616758.041    20616768.003
       243.000         205.000
 00  4 27 17 51 29.9960000  0  8G16G 2G 4G24G 5G 7G30G 9
  -7025181.89549  -5274066.28745  23416791.609    23416790.547    23416805.564
       214.000         147.000
   8432538.74249   6571626.80145  23458271.503    23458269.174    23458289.645
       208.000         143.000
 -19926058.70649 -15502573.60747  19653022.229    19653021.681    19653030.345
       242.000         203.000
 -28784017.21949 -22408548.75647  19555086.192    19555085.516    19555096.332
       239.000         203.000
 -27184153.60549 -20904833.71947  20679916.759    20679915.709    20679925.499
       237.000         191.000
   6832760.79749   5326200.94446  22307979.897    22307978.204    22307990.752
       224.000         175.000
  -5368854.50149  -3576007.86145  23728440.118    23728440.071    23728453.577
       218.000         148.000
 -16886726.45849 -13133966.65547  20620937.707    20620936.742    20620946.728
       242.000         205.000
 00  4 27 17 51 59.9960000  0  8G16G 2G 4G24G 5G 7G30G 9
  -7040328.22149  -5285868.56945  23413909.336    23413908.270    23413923.344
       214.000         147.000
   8498753.43949   6623222.13945  23470872.178    23470869.774    23470890.316
       209.000         141.000
 -19909306.04749 -15489519.61047  19656210.180    19656209.640    19656218.306
       242.000         204.000
 -28849388.54649 -22459487.40747  19542646.377    19542645.731    19542656.544
       240.000         203.000
 -27279794.74749 -20979359.28947  20661716.819    20661715.802    20661725.569
       236.000         191.000
   6874140.74049   5358444.90446  22315854.357    22315852.654    22315865.280
       223.000         175.000
  -5493697.91749  -3673288.32445  23704683.278    23704683.170    23704696.615
       212.000         148.000
 -16864268.12949 -13116466.73647  20625211.398    20625210.460    20625220.505
       243.000         205.000
 00  4 27 17 52 29.9960000  0  8G16G 2G 4G24G 5G 7G30G 9
  -7054910.52449  -5297231.34245  23411134.247    23411133.280    23411148.484
       212.000         148.000
   8565212.03449   6675007.53545  23483519.186    23483516.787    23483537.460
       207.000         139.000
 -19892043.34849 -15476068.17747  19659495.149    19659494.639    19659503.310
       242.000         203.000
 -28914240.38049 -22510021.25647  19530305.477    19530304.814    19530315.609
       240.000         203.000
 -27375190.46849 -21053693.61447  20643563.623    20643562.577    20643572.352
       236.000         191.000
   6915586.85649   5390740.40846  22323741.399    22323739.691    22323752.377
       222.000         174.000
  -5618520.15249  -3770552.28745  23680930.170    23680930.134    23680943.657
       215.000         144.000
 -16841303.99849 -13098572.68347  20629581.332    20629580.428    20629590.495
       243.000         205.000
 00  4 27 17 52 59.9960000  0  8G16G 2G 4G24G 5G 7G30G 9
  -7068937.46149  -5308161.32345  23408464.899    23408463.993    23408478.988
       216.000         149.000
   8631918.21049   6726985.85345  23496213.313    23496210.937    23496231.661
       206.000         138.000
 -19874286.86849 -15462231.97447  19662874.120    19662873.598    19662882.274
       242.000         203.000
 -28978552.80049 -22560134.78547  19518067.243    19518066.561    19518077.330
       240.000         203.000
 -27470353.89949 -21127846.93947  20625454.633    20625453.575    20625463.312
       237.000         190.000
   6957100.89249   5423088.83246  22331641.266    22331639.620    22331652.391
       224.000         175.000
  -5743332.53749  -3867808.64345  23657179.231    23657179.113    23657192.490
       212.000         148.000
 -16817839.56149 -13080288.77147  20634046.561    20634045.629    20634055.719
       243.000         205.000
 00  4 27 17 53 29.9960000  0  8G16G 2G 4G24G 5G 7G30G 9
  -7082425.94849  -5318671.79145  23405898.110    23405897.123    23405912.062
       211.000         145.000
   8698835.64549   6779128.75945  23508947.606    23508945.373    23508966.154
       205.000         136.000
 -19856053.34249 -15448024.04947  19666343.891    19666343.355    19666352.029
       242.000         203.000
 -29042328.27849 -22609829.91347  19505931.176    19505930.467    19505941.215
       240.000         202.000
 -27565306.76749 -21201836.17347  20607385.697    20607384.627    20607394.374
       238.000         191.000
   6998667.43349   5455478.20546  22339551.249    22339549.577    22339562.382
       222.000         173.000
  -5868156.60049  -3965074.04345  23633425.886    23633425.783    23633439.163
       214.000         148.000
 -16793895.85849 -13061631.40447  20638602.982    20638602.025    20638612.149
       243.000         205.000
 00  4 27 17 53 59.9960000  0  8G16G 2G 4G24G 5G 7G30G 9
  -7095357.06649  -5328747.91145  23403437.265    23403436.302    23403451.219
       215.000         146.000
   8765963.31549   6831435.46045  23521721.961    23521719.731    23521740.527
       205.000         134.000
 -19837317.27849 -15433424.54247  19669909.301    19669908.743    19669917.412
       242.000         203.000
 -29105562.82249 -22659103.53647  19493898.015    19493897.317    19493908.034
       240.000         202.000
 -27660038.04949 -21275652.74147  20589358.939    20589357.863    20589367.565
       237.000         191.000
   7040289.42749   5487910.76646  22347471.799    22347470.101    22347482.941
       223.000         172.000
  -5992980.08649  -4062338.98345  23609672.704    23609672.505    23609685.874
       213.000         146.000
 -16769474.97449 -13042602.22447  20643250.201    20643249.235    20643259.364
       243.000         205.000
 00  4 27 17 54 29.9960000  0  8G16G 2G 4G24G 5G 7G30G 9
  -7107753.14449  -5338407.14645  23401078.208    23401077.260    23401092.108
       217.000         148.000
   8833285.89649   6883894.08745  23534533.503    23534531.152    23534552.154
       202.000         133.000
 -19818069.65749 -15418426.42047  19673572.023    19673571.479    19673580.143
       242.000         203.000
 -29168263.69349 -22707961.31247  19481966.400    19481965.706    19481976.411
       240.000         203.000
 -27754551.86249 -21349299.83347  20571373.554    20571372.476    20571382.174
       237.000         191.000
   7081937.04849   5520363.28846  22355397.153    22355395.487    22355408.358
       219.000         172.000
  -6117813.35749  -4159611.56945  23585917.823    23585917.510    23585930.846
       217.000         150.000
 -16744592.69749 -13023213.52047  20647985.220    20647984.258    20647994.385
       243.000         205.000
 00  4 27 17 54 59.9960000  0  8G16G 2G 4G24G 5G 7G30G 9
  -7119612.08549  -5347647.79945  23398821.641    23398820.574    23398835.395
       214.000         147.000
   8900793.79149   6936497.16244  23547380.180    23547377.902    23547399.038
       202.000         130.000
 -19798298.04149 -15403019.98747  19677334.433    19677333.907    19677342.586
       242.000         203.000
 -29230431.38449 -22756403.62547  19470136.242    19470135.549    19470146.234
       240.000         203.000
 -27848831.50149 -21422764.45047  20553432.688    20553431.629    20553441.328
       237.000         191.000
   7123612.19749   5552837.25546  22363327.830    22363326.118    22363339.068
       221.000         173.000
  -6242632.84649  -4256873.44345  23562165.429    23562165.112    23562178.374
       212.000         147.000
 -16719239.12449 -13003457.56647  20652809.914    20652808.953    20652819.086
       243.000         205.000
 00  4 27 17 55 29.9960000  0  8G16G 2G 4G24G 5G 7G30G 9
  -7130964.16049  -5356493.50545  23396661.216    23396660.233    23396675.232
       214.000         149.000
   8968453.26449   6989218.25944  23560255.734    23560253.398    23560274.674
       196.000         127.000
 -19778025.14049 -15387222.94147  19681192.257    19681191.738    19681200.428
       241.000         203.000
 -29292115.86649 -22804469.41347  19458398.047    19458397.356    19458408.009
       240.000         203.000
 -27942909.66049 -21496072.07347  20535530.155    20535529.136    20535538.818
       237.000         191.000
   7165274.45749   5585301.20046  22371256.041    22371254.303    22371267.292
       221.000         173.000
  -6367462.32049  -4354143.06145  23538411.153    23538410.810    23538424.002
       219.000         154.000
 -16693454.28949 -12983365.56447  20657716.657    20657715.712    20657725.859
       243.000         205.000
 00  4 27 17 55 59.9960000  0  8G16G 2G 4G24G 5G 7G30G 9
  -7141778.03749  -5364919.82045  23394603.668    23394602.475    23394617.146
       219.000         146.000
   9036324.61649   7042104.45644  23573171.692    23573169.308    23573190.616
       199.000         126.000
 -19757212.51449 -15371005.33447  19685152.742    19685152.258    19685160.965
       242.000         203.000
 -29353285.42949 -22852133.96747  19446757.844    19446757.155    19446767.780
       239.000         203.000
 -28036740.32049 -21569186.84247  20517674.764    20517673.751    20517683.431
       238.000         192.000
   7206961.43949   5617784.40246  22379188.834    22379187.166    22379200.218
       221.000         173.000
  -6492260.20649  -4451388.05145  23514662.766    23514662.560    23514675.657
       215.000         146.000
 -16667196.49849 -12962905.02647  20662713.416    20662712.462    20662722.636
       243.000         204.000
 00  4 27 17 56 29.9960000  0  8G16G 2G 4G24G 5G 7G30G 9
  -7152081.24749  -5372948.26045  23392642.806    23392641.710    23392656.589
       219.000         153.000
   9104384.27949   7095137.39244  23586123.280    23586120.960    23586142.414
       197.000         124.000
 -19735891.31249 -15354391.42647  19689210.028    19689209.563    19689218.276
       242.000         203.000
 -29413948.25649 -22899403.66447  19435214.078    19435213.375    19435223.977
       240.000         203.000
 -28130347.89049 -21642127.76747  20499861.805    20499860.812    20499870.482
       238.000         193.000
   7248655.19149   5650272.85946  22387122.944    22387121.315    22387134.447
       221.000         172.000
  -6617068.75649  -4548641.38845  23490912.402    23490912.205    23490925.201
       217.000         150.000
 -16640486.34749 -12942092.00047  20667796.243    20667795.294    20667805.493
       243.000         204.000
 00  4 27 17 56 59.9960000  0  8G16G 2G 4G24G 5G 7G30G 9
  -7161860.43949  -5380568.35445  23390781.952    23390780.771    23390795.685
       217.000         147.000
   9172630.28449   7148315.53344  23599110.455    23599108.122    23599129.596
       195.000         122.000
 -19714066.51549 -15337385.11347  19693363.185    19693362.708    19693371.431
       242.000         203.000
 -29474081.58349 -22946260.76747  19423771.044    19423770.362    19423780.931
       240.000         203.000
 -28223740.66749 -21714901.32847  20482089.769    20482088.741    20482098.427
       237.000         192.000
   7290376.47749   5682782.77446  22395062.356    22395060.685    22395073.886
       220.000         172.000
  -6741890.28449  -4645904.79445  23467159.612    23467159.444    23467172.425
       222.000         155.000
 -16613324.51049 -12920927.01547  20672965.023    20672964.078    20672974.279
       243.000         204.000
 00  4 27 17 57 29.9960000  0  8G16G 2G 4G24G 5G 7G30G 9
  -7171076.60049  -5387749.67745  23389028.076    23389026.924    23389041.717
       215.000         155.000
   9241109.55249   7201675.46144  23612142.051    23612139.640    23612161.327
       196.000         120.000
 -19691695.08749 -15319952.85047  19697620.368    19697619.886    19697628.607
       242.000         203.000
 -29533641.41049 -22992670.98647  19412437.143    19412436.481    19412447.027
       239.000         203.000
 -28316874.96749 -21787473.48647  20464366.867    20464365.863    20464375.521
       238.000         193.000
   7332164.45149   5715344.65446  22403014.374    22403012.760    22403026.029
       221.000         172.000
  -6866708.94249  -4743165.99845  23443407.413    23443407.239    23443420.155
       216.000         149.000
 -16585678.48649 -12899384.73447  20678225.931    20678225.009    20678235.207
       243.000         204.000
 00  4 27 17 57 59.9960000  0  8G16G 2G 4G24G 5G 7G30G 9
  -7179736.10949  -5394497.35345  23387380.431    23387379.118    23387394.335
       218.000         151.000
   9309796.63448   7255197.34944  23625213.172    23625210.618    23625232.709
       192.000         117.000
 -19668803.64949 -15302115.38547  19701976.476    19701976.015    19701984.724
       242.000         203.000
 -29592628.42849 -23038634.85747  19401212.281    19401211.595    19401222.136
       240.000         203.000
 -28409744.92949 -21859839.66147  20446694.296    20446693.276    20446702.925
       238.000         192.000
   7374004.65649   5747947.22846  22410976.393    22410974.832    22410988.129
       222.000         172.000
  -6991547.65649  -4840442.77145  23419651.214    23419651.065    23419664.096
       222.000         155.000
 -16557563.49949 -12877477.02147  20683576.061    20683575.161    20683585.351
       243.000         204.000
 00  4 27 17 58 29.9960000  0  8G16G 2G 4G24G 5G 7G30G 9
  -7187847.96049  -5400818.17645  23385836.511    23385835.384    23385850.333
       214.000         148.000
   9378653.70148   7308851.69044  23638316.701    23638314.049    23638336.382
       191.000         114.000
 -19645423.57849 -15283897.17247  19706425.632    19706425.126    19706433.838
       242.000         203.000
 -29651060.41349 -23084166.24547  19390093.039    19390092.345    19390102.855
       240.000         203.000
 -28502357.76549 -21932005.47747  20429070.673    20429069.644    20429079.278
       239.000         193.000
   7415883.80049   5780580.14546  22418945.930    22418944.303    22418957.637
       219.000         173.000
  -7116423.69249  -4937748.67745  23395887.956    23395887.860    23395900.791
       219.000         150.000
 -16529006.64849 -12855225.00147  20689010.306    20689009.417    20689019.611
       244.000         203.000
 00  4 27 17 58 59.9960000  0  8G16G 2G 4G24G 5G 7G30G 9
  -7195400.76649  -5406703.42645  23384399.441    23384398.237    23384413.077
       217.000         150.000
   9447698.21158   7362652.09154  23651455.797    23651453.234    23651475.304
       190.000         112.000
 -19621555.79849 -15265298.92947  19710967.567    19710967.042    19710975.753
       242.000         203.000
 -29708944.69549 -23129270.84547  19379078.015    19379077.311    19379087.793
       239.000         203.000
 -28594686.60949 -22003949.99947  20411501.080    20411500.066    20411509.674
       239.000         193.000
   7457812.88749   5813251.99446  22426924.953    22426923.272    22426936.656
       219.000         171.000
  -7241304.87049  -5035058.57445  23372123.894    23372123.691    23372136.645
       221.000         156.000
 -16499997.21949 -12832620.32347  20694530.726    20694529.798    20694540.002
       243.000         204.000
 00  4 27 17 59 29.9960000  0  8G16G 2G 4G24G 5G 7G30G 9
  -7202407.05549  -5412162.82545  23383066.244    23383064.978    23383079.658
       218.000         148.000
   9516931.54548   7416599.70544  23664630.749    23664628.218    23664650.273
       188.000         109.000
 -19597213.98149 -15246331.30947  19715599.665    19715599.147    19715607.859
       242.000         203.000
 -29766305.97149 -23173967.90747  19368162.526    19368161.811    19368172.271
       239.000         202.000
 -28686718.29649 -22075662.95947  20393988.033    20393986.997    20393996.601
       238.000         194.000
   7499779.69849   5845953.21146  22434911.135    22434909.409    22434922.872
       219.000         172.000
  -7366183.97949  -5132366.87645  23348360.078    23348359.880    23348372.855
       220.000         151.000
 -16470534.19949 -12809662.19847  20700137.423    20700136.484    20700146.706
       243.000         204.000
 00  4 27 17 59 59.9960000  0  8G16G 2G 4G24G 5G 7G30G 9
  -7208863.08249  -5417193.45145  23381838.070    23381836.609    23381850.903
       217.000         149.000
                   7470694.25644  23677841.632                    23677861.604
       186.000         108.000
 -19572405.92049 -15227000.38347  19720320.488    19720319.976    19720328.700
       242.000         203.000
 -29823138.27949 -23218252.79147  19357347.683    19357346.957    19357357.401
       239.000         202.000
 -28778458.43649 -22147148.75047  20376530.429    20376529.400    20376539.005
       238.000         194.000
   7541800.45449   5878696.45946  22442907.460    22442905.830    22442919.304
       218.000         171.000
  -7491023.79449  -5229644.55445  23324603.921    23324603.581    23324616.471
       218.000         152.000
 -16440607.70449 -12786342.93347  20705832.295    20705831.362    20705841.589
       243.000         204.000
 00  4 27 18  0 29.9960000  0  8G16G 2G 4G24G 5G 7G30G 9
  -7214766.10849  -5421793.14445  23380714.714    23380713.312    23380727.590
       218.000         151.000
                   7524944.83644  23691090.600
       186.000         101.000
 -19547128.87149 -15207304.01847  19725130.539    19725130.056    19725138.773
       242.000         203.000
 -29879446.81549 -23262129.54647  19346632.509    19346631.803    19346642.207
       239.000         203.000
 -28869916.84549 -22218415.03647  20359126.444    20359125.426    20359135.019
       238.000         194.000
   7583879.43649   5911485.09346  22450914.925    22450913.295    22450926.802
       221.000         172.000
  -7615799.52349  -5326872.30245  23300859.740    23300859.487    23300872.303
       220.000         152.000
 -16410197.50849 -12762646.77247  20711619.259    20711618.311    20711628.526
       244.000         204.000
 00  4 27 18  0 59.9960000  0  8G16G 2G 4G24G 5G 7G30G 9
  -7220154.60449  -5425991.98445  23379689.091    23379687.780    23379702.284
       214.000         147.000
                   7579333.69053  23704373.360
       181.000          92.000
 -19521403.38949 -15187258.21447  19730025.955    19730025.459    19730034.193
       241.000         203.000
 -29935267.43249 -23305626.09847  19336010.167    19336009.470    19336019.880
       239.000         202.000
 -28961148.24949 -22289504.43247  20341765.666    20341764.661    20341774.244
       239.000         195.000
   7625973.04149   5944285.11346  22458925.227    22458923.597    22458937.150
       219.000         172.000
  -7740554.88949  -5424084.14945  23277119.279    23277119.170    23277132.051
       216.000         151.000
 -16379330.53749 -12738594.66847  20717493.116    20717492.167    20717502.398
       243.000         204.000
 00  4 27 18  1 29.9960000  0  9G16G 2G 4G24G 5G 7G30G 9G10
  -7225035.82349  -5429795.48045  23378760.120    23378758.877    23378773.382
       214.000         151.000
                   7633842.23054  23717685.414
       181.000         105.000
 -19495227.65649 -15166861.57147  19735007.070    19735006.565    19735015.285
       242.000         203.000
 -29990598.20749 -23348740.95647  19325481.029    19325480.353    19325490.749
       239.000         202.000
 -29052172.97549 -22360432.78747  20324444.242    20324443.217    20324452.804
       239.000         195.000
   7668072.67049   5977089.82946  22466936.689    22466935.039    22466948.632
       220.000         172.000
  -7865303.04249  -5521290.41845  23253380.477    23253380.331    23253393.119
       219.000         151.000
 -16348011.73849 -12714190.48747  20723452.963    20723452.000    20723462.237
       244.000         204.000
   -234785.82953                  23744613.494
       206.000          81.000
 00  4 27 18  1 59.9960000  0  9G16G 2G 4G24G 5G 7G30G 9G10
  -7229352.51349  -5433159.09945  23377938.315    23377937.312    23377952.055
       215.000         145.000
                     25206.71253  23731034.293
       178.000          74.000
 -19468552.36049 -15146075.66447  19740083.229    19740082.722    19740091.449
       242.000         203.000
 -30045385.52649 -23391432.34447  19315055.340    19315054.656    19315065.033
       239.000         202.000
 -29142957.24749 -22431173.77447  20307168.558    20307167.529    20307177.125
       238.000         195.000
   7710227.27649   6009937.38346  22474958.724    22474956.963    22474970.566
       221.000         172.000
  -7990003.00249  -5618459.12145  23229650.870    23229650.634    23229663.377
       220.000         155.000
 -16316201.51649 -12689403.38547  20729506.326    20729505.358    20729515.607
       243.000         204.000
    -37637.88143                  23721294.594
       207.000          74.000
 00  4 27 18  2 29.9960000  0  9G16G 2G 4G24G 5G 7G30G 9G10
  -7233110.16449  -5436087.14045  23377223.268    23377222.195    23377237.050
       213.000         150.000
                     80092.95253  23744420.770
       172.000          69.000
 -19441373.27449 -15124897.19547  19745255.271    19745254.764    19745263.498
       241.000         203.000
 -30099632.46649 -23433702.66447  19304732.465    19304731.767    19304742.141
       238.000         202.000
 -29233503.87749 -22501729.59347  20289938.106    20289937.061    20289946.669
       239.000         195.000
   7752421.27949   6042815.65246  22482988.124    22482986.358    22483000.019
       219.000         171.000
  -8114675.74449  -5715606.62945  23205926.275    23205926.095    23205938.797
       217.000         150.000
 -16283910.64649 -12664241.75547  20735651.123    20735650.162    20735660.414
       243.000         203.000
   -133175.87843                  23697964.251
       207.000          82.000
 00  4 27 18  2 59.9960000  0  8G16G 4G24G 5G 7G30G 9G10
  -7236341.31249  -5438604.88945  23376608.199    23376607.197    23376622.276
       214.000         147.000
 -19413718.09349 -15103347.75147  19750517.876    19750517.394    19750526.132
       242.000         203.000
 -30153359.32949 -23475567.73047  19294508.559    19294507.876    19294518.237
       239.000         202.000
 -29323835.08049 -22572117.54547  20272748.630    20272747.608    20272757.213
       239.000         195.000
   7794635.81149   6075709.92146  22491021.431    22491019.650    22491033.336
       217.000         170.000
  -8239362.02749  -5812764.70145  23182199.317    23182199.037    23182211.695
       220.000         156.000
 -16251198.24349 -12638751.65847  20741876.140    20741875.184    20741885.463
       243.000         203.000
   -228807.92143                  23674611.803
       208.000          92.000
 00  4 27 18  3 29.9960000  0  8G16G 4G24G 5G 7G30G 9G10
  -7239021.55749  -5440693.36445  23376098.302    23376097.136    23376112.085
       213.000         143.000
 -19385582.34449 -15081423.82347  19755871.947    19755871.461    19755880.194
       241.000         203.000
 -30206534.15249 -23517002.63447  19284389.713    19284389.023    19284399.371
       238.000         202.000
 -29413913.04049 -22642308.16247  20255607.356    20255606.324    20255615.960
       238.000         195.000
   7836902.41049   6108644.72446  22499064.604    22499062.845    22499076.560
       219.000         169.000
  -8364023.94449  -5909903.76945  23158476.920    23158476.577    23158489.227
       221.000         155.000
 -16218054.99249 -12612925.83847  20748183.116    20748182.194    20748192.478
       243.000         203.000
    -28194.50643                  23651236.956
       210.000          74.000
 00  4 27 18  3 59.9960000  0  8G16G 4G24G 5G 7G30G 9G10
  -7241155.37249  -5442356.04345  23375691.964    23375690.958    23375705.961
       210.000         144.000
 -19356980.44249 -15059136.65947  19761314.719    19761314.235    19761322.978
       242.000         203.000
 -30259154.79749 -23558005.70747  19274376.320    19274375.626    19274385.958
       238.000         202.000
 -29503721.36249 -22712288.66647  20238517.384    20238516.370    20238525.991
       239.000         195.000
   7879214.15349   6141614.72746  22507116.422    22507114.627    22507128.357
       217.000         169.000
  -8488661.22649  -6007023.62345  23134759.132    23134758.776    23134771.471
       218.000         155.000
 -16184507.32449 -12586784.88347  20754567.077    20754566.152    20754576.468
       242.000         203.000
   -124006.91645                  23627838.507
       209.000         136.000
 00  4 27 18  4 29.9960000  0  8G16G 4G24G 5G 7G30G 9G10
  -7242742.25249  -5443592.47745  23375390.085    23375389.051    23375403.901
       210.000         147.000
 -19327898.72149 -15036475.61347  19766848.822    19766848.327    19766857.081
       242.000         203.000
 -30311201.89549 -23598561.86947  19264472.104    19264471.379    19264481.693
       238.000         201.000
 -29593232.66749 -22782037.73347  20221483.958    20221482.942    20221492.555
       239.000         195.000
   7921584.24749   6174630.17546  22515179.296    22515177.505    22515191.288
       217.000         169.000
  -8613259.33549  -6104112.99345  23111048.879    23111048.512    23111061.182
       219.000         155.000
 -16150545.17649 -12560320.96247  20761029.952    20761029.017    20761039.349
       243.000         203.000
   -219907.28545                  23604418.496
       210.000         141.000
 00  4 27 18  4 59.9960000  0  8G16G 4G24G 5G 7G30G 9G10
  -7243791.97249  -5444410.43845  23375190.310    23375189.199    23375204.152
       213.000         149.000
 -19298359.75549 -15013458.27847  19772469.952    19772469.443    19772478.191
       242.000         203.000
 -30362695.85449 -23638687.01447  19254673.139    19254672.403    19254682.680
       238.000         201.000
 -29682440.89349 -22851550.63447  20204508.216    20204507.180    20204516.802
       238.000         195.000
   7964008.09849   6207687.51846  22523252.456    22523250.640    22523264.465
       218.000         168.000
  -8737822.67749  -6201175.26445  23087345.124    23087344.838    23087357.484
       219.000         157.000
 -16116173.03349 -12533537.56647  20767570.864    20767569.893    20767580.242
       242.000         202.000
  -1195225.53349   -315898.56245  23580976.320    23580973.062    23580998.293
       211.000         144.000
 00  4 27 18  5 29.9960000  0  8G16G 4G24G 5G 7G30G 9G10
  -7244280.52149  -5444791.11345  23375097.396    23375096.270    23375111.214
       214.000         146.000
 -19268343.35049 -14990068.91647  19778181.939    19778181.419    19778190.151
       242.000         203.000
 -30413631.34149 -23678376.98947  19244980.423    19244979.678    19244989.938
       238.000         201.000
 -29771319.09249 -22920806.36247  20187595.259    20187594.197    20187603.834
       239.000         195.000
   8006503.92249   6240800.94046  22531339.221    22531337.494    22531351.361
       217.000         167.000
  -8862321.74349  -6298187.46145  23063653.635    23063653.467    23063666.042
       221.000         155.000
 -16081360.14949 -12506410.74247  20774195.628    20774194.642    20774205.005
       242.000         202.000
  -1318481.44249   -411941.89055  23557521.371    23557519.572    23557542.705
       210.000         144.000
 00  4 27 18  5 59.9960000  0  8G16G 4G24G 5G 7G30G 9G10
  -7244231.03049  -5444752.50345  23375106.747    23375105.651    23375120.516
       214.000         151.000
 -19237864.09449 -14966318.89247  19783982.010    19783981.485    19783990.203
       243.000         203.000
 -30464039.13649 -23717655.77447  19235388.095    19235387.359    19235397.628
       238.000         201.000
 -29859899.46549 -22989830.02447  20170738.943    20170737.908    20170747.542
       239.000         196.000
   8049043.06449   6273948.11446  22539434.382    22539432.563    22539446.467
       217.000         168.000
  -8986777.61649  -6395165.98345  23039970.304    23039970.172    23039982.764
       217.000         155.000
 -16046119.93849 -12478950.92547  20780901.666    20780900.680    20780911.085
       242.000         201.000
  -1441799.80959   -508033.86645  23534054.442    23534052.893    23534075.963
       210.000         145.000
 00  4 27 18  6 29.9960000  0  8G16G 4G24G 5G 7G30G 9G10
  -7243645.19449  -5444295.97745  23375218.102    23375217.108    23375231.967
       212.000         145.000
 -19206923.41849 -14942209.31847  19789869.909    19789869.345    19789878.051
       243.000         204.000
 -30513940.12449 -23756539.64447  19225892.202    19225891.490    19225901.746
       237.000         201.000
 -29948210.74649 -23058643.99647  20153933.867    20153932.820    20153942.459
       239.000         196.000
   8091623.08149   6307127.13646  22547537.206    22547535.434    22547549.348
       218.000         168.000
  -9111200.73349  -6492119.00445  23016293.329    23016293.158    23016305.688
       217.000         153.000
 -16010439.14649 -12451147.79547  20787691.537    20787690.572    20787700.994
       241.000         201.000
  -1565178.83149   -604173.10245  23510575.951    23510574.343    23510597.403
       208.000         147.000
 00  4 27 18  6 59.9960000  0  8G16G 4G24G 5G 7G30G 9G10
  -7242508.22449  -5443410.03345  23375434.449    23375433.406    23375448.380
       209.000         146.000
 -19175519.97349 -14917739.15247  19795845.786    19795845.252    19795853.948
       243.000         204.000
 -30563348.55649 -23795039.70547  19216490.042    19216489.352    19216499.606
       238.000         200.000
 -30036242.42849 -23127240.09447  20137181.987    20137180.947    20137190.594
       239.000         196.000
   8134247.11349   6340340.44046  22555648.438    22555646.657    22555660.600
       218.000         168.000
  -9235585.66849  -6589042.25945  22992623.673    22992623.455    22992635.990
       217.000         156.000
 -15974311.72449 -12422996.64547  20794566.368    20794565.433    20794575.882
       241.000         201.000
  -1688600.24649   -700345.37045  23487089.318    23487087.700    23487111.097
       209.000         145.000
 00  4 27 18  7 29.9960000  0  8G16G 4G24G 5G 7G30G 9G10
  -7240821.90949  -5442096.00245  23375755.409    23375754.307    23375769.098
       209.000         148.000
 -19143660.42449 -14892913.59147  19801908.467    19801907.947    19801916.658
       243.000         203.000
 -30612259.32549 -23833151.97647  19207182.594    19207181.917    19207192.169
       237.000         201.000
 -30124012.11049 -23195632.03747  20120479.935    20120478.912    20120488.586
       239.000         197.000
   8176903.32549   6373578.83646  22563765.807    22563764.030    22563777.997
       219.000         168.000
  -9359951.36849  -6685950.52745  22968957.605    22968957.366    22968969.862
       220.000         157.000
 -15937767.06849 -12394520.38547  20801520.616    20801519.699    20801530.185
       241.000         200.000
  -1812077.21049   -796560.91645  23463592.183    23463590.664    23463614.114
       209.000         146.000
 00  4 27 18  7 59.9960000  0  8G16G 4G24G 5G 7G30G 9G10
  -7238580.69949  -5440349.57045  23376181.819    23376180.808    23376195.672
       210.000         147.000
 -19111349.48749 -14867736.29947  19808057.013    19808056.518    19808065.274
       243.000         203.000
 -30660656.52749 -23870864.06547  19197972.889    19197972.217    19197982.457
       237.000         200.000
 -30211513.77749 -23263815.14447  20103828.891    20103827.880    20103837.570
       239.000         197.000
   8219589.27449   6406840.43146  22571888.853    22571887.055    22571901.015
       217.000         167.000
  -9484300.90049  -6782846.18945  22945294.483    22945294.338    22945306.814
       219.000         158.000
 -15900801.85649 -12365716.41847  20808554.860    20808553.976    20808564.508
       241.000         200.000
  -1935613.80049   -892822.92345  23440083.691    23440082.251    23440105.810
       209.000         146.000
 00  4 27 18  8 29.9960000  0  8G16G 4G24G 5G 7G30G 9G10
  -7235779.79249  -5438167.04845  23376714.754    23376713.718    23376728.637
       209.000         144.000
 -19078583.03349 -14842204.05447  19814292.225    19814291.772    19814300.581
       243.000         203.000
 -30708537.89649 -23908174.20447  19188861.311    19188860.672    19188870.888
       237.000         200.000
 -30298727.67149 -23331774.00947  20087232.573    20087231.594    20087241.305
       240.000         197.000
   8262311.13749   6440130.00946  22580018.665    22580016.881    22580030.906
       219.000         167.000
  -9608634.02549  -6879729.06445  22921634.645    22921634.477    22921646.928
       220.000         156.000
 -15863417.29949 -12336585.69547  20815668.884    20815668.051    20815678.623
       241.000         200.000
  -2059221.52649   -989140.37245  23416561.619    23416560.295    23416583.915
       211.000         147.000
 00  4 27 18  8 59.9960000  0  8G16G 4G24G 5G 7G30G 9G10
  -7232445.13649  -5435568.56245  23377349.152    23377348.236    23377363.012
       208.000         145.000
 -19045374.11649 -14816327.03647  19820611.646    19820611.228    19820620.073
       242.000         203.000
 -30755894.00749 -23945075.05147  19179849.718    19179849.074    19179859.286
       237.000         200.000
 -30385650.92449 -23399506.39647  20070691.570    20070690.607    20070700.347
       239.000         196.000
   8305052.94749   6473435.10546  22588152.274    22588150.527    22588164.577
       218.000         168.000
  -9732956.00149  -6976603.26045  22897976.931    22897976.722    22897989.140
       219.000         158.000
 -15825643.27249 -12307151.49047  20822857.067    20822856.249    20822866.863
       241.000         200.000
  -2182916.61449  -1085525.89045  23393023.057    23393021.828    23393045.449
       211.000         149.000
 00  4 27 18  9 29.9960000  0  8G16G 4G24G 5G 7G30G 9G10
  -7228609.34049  -5432579.62045  23378078.899    23378077.993    23378092.769
       208.000         146.000
 -19011745.97049 -14790123.34647  19827010.872    19827010.464    19827019.348
       243.000         203.000
 -30802720.04049 -23981562.84147  19170938.996    19170938.350    19170948.568
       237.000         200.000
 -30472317.15249 -23467038.50747  20054199.482    20054198.546    20054208.320
       240.000         197.000
   8347784.43049   6506732.13946  22596283.892    22596282.208    22596296.313
       219.000         167.000
  -9857278.50349  -7073477.84545  22874319.009    22874318.812    22874331.332
       223.000         158.000
 -15787502.51649 -12277431.51647  20830115.058    20830114.243    20830124.892
       241.000         200.000
  -2306737.85049  -1182009.70845  23369460.461    23369459.315    23369482.943
       212.000         150.000
 00  4 27 18  9 59.9960000  0  8G16G 4G24G 5G 7G30G 9G10
  -7224252.65249  -5429184.75245  23378908.279    23378907.159    23378921.952
       209.000         146.000
 -18977661.48249 -14763564.06547  19833496.982    19833496.555    19833505.461
       243.000         203.000
 -30848978.80749 -24017608.61747  19162136.224    19162135.587    19162145.789
       237.000         200.000
 -30558679.66549 -23534333.96647  20037765.193    20037764.270    20037774.056
       239.000         197.000
   8390528.37249   6540038.90346  22604417.958    22604416.257    22604430.415
       219.000         167.000
  -9981547.32549  -7170310.61545  22850671.325    22850671.194    22850683.685
       219.000         157.000
 -15748946.03349 -12247387.59947  20837452.167    20837451.337    20837462.037
       241.000         200.000
  -2430646.49549  -1278561.61345  23345881.176    23345880.176    23345903.752
       213.000         150.000
 00  4 27 18 10 29.9960000  0  8G16G 4G24G 5G 7G30G 9G10
  -7219357.17249  -5425370.08145  23379839.760    23379838.671    23379853.624
       213.000         150.000
 -18943091.56949 -14736626.52847  19840075.427    19840075.014    19840083.937
       243.000         203.000
 -30894631.63949 -24053182.23347  19153448.739    19153448.118    19153458.317
       237.000         200.000
 -30644710.98949 -23601371.35247  20021393.925    20021393.023    20021402.833
       240.000         197.000
   8433308.24549   6573373.66746  22612558.791    22612557.136    22612571.356
       218.000         167.000
 -10105721.50149  -7267069.65945  22827041.774    22827041.567    22827054.113
       220.000         159.000
 -15709953.52749 -12217003.92347  20844872.220    20844871.419    20844882.157
       241.000         200.000
  -2554609.15849  -1375155.60545  23322291.659    23322290.697    23322314.375
       212.000         150.000
 00  4 27 18 10 59.9960000  0  8G16G 4G24G 5G 7G30G 9G10
  -7213958.46449  -5421163.24345  23380867.026    23380866.032    23380880.892
       210.000         146.000
 -18908080.06049 -14709344.88847  19846737.954    19846737.528    19846746.465
       243.000         203.000
 -30939698.58649 -24088299.31047  19144872.791    19144872.156    19144882.330
       236.000         199.000
 -30730438.97949 -23668172.35647  20005080.405    20005079.507    20005089.345
       239.000         197.000
   8476098.07449   6606716.17546  22620701.606    22620699.943    22620714.211
       217.000         167.000
 -10229820.19449  -7363769.86345  22803426.571    22803426.365    22803438.869
       223.000         160.000
 -15670569.77449 -12186315.38247  20852366.793    20852365.977    20852376.731
       241.000         200.000
  -2678638.24249  -1471801.33545  23298689.551    23298688.566    23298712.227
       211.000         152.000
 00  4 27 18 11 29.9960000  0  8G16G 4G24G 5G 7G30G 9G10
  -7208030.12349  -5416543.72845  23381995.057    23381994.157    23382008.946
       211.000         147.000
 -18872639.66049 -14681729.05147  19853482.113    19853481.657    19853490.602
       243.000         203.000
 -30984192.58849 -24122969.93747  19136405.868    19136405.226    19136415.377
       236.000         200.000
 -30815848.41649 -23734725.14147  19988827.532    19988826.614    19988836.466
       240.000         197.000
   8518910.34649   6640076.17146  22628848.598    22628846.995    22628861.330
       219.000         166.000
 -10353835.30849  -7460404.96745  22779827.283    22779827.065    22779839.525
       220.000         161.000
 -15630780.62249 -12155310.94147  20859938.536    20859937.682    20859948.448
       241.000         200.000
  -2802714.57949  -1568483.90445  23275078.376    23275077.520    23275101.124
       213.000         151.000
